<?xml version="1.0" encoding="UTF-8" standalone="no" ?>
<gpx xmlns="http://www.topografix.com/GPX/1/1" xmlns:xsi="http://www.w3.org/2001/XMLSchema-instance" xsi:schemaLocation="http://www.topografix.com/GPX/1/1 http://www.topografix.com/GPX/1/1/gpx.xsd" version="1.1" creator="VisuGPX - https://www.visugpx.com">
  <metadata>
    <name>1 GY MACHILLY CURRENT TRACK- 22 SEP 202</name>
    <desc><![CDATA[draft reco gy hw]]></desc>
  </metadata>
  <trk>
    <name><![CDATA[CURRENT TRACK- 22 SEP 2021 GY MACHILLY]]></name>
    <trkseg>
      <trkpt lat="46.26812" lon="6.25786">
        <ele>353.11</ele>
        <time>2021-09-29T09:31:00Z</time>
      </trkpt>
      <trkpt lat="46.26822" lon="6.25798">
        <ele>491.37</ele>
        <time>2021-09-29T09:37:36Z</time>
      </trkpt>
      <trkpt lat="46.26832" lon="6.25773">
        <ele>491.37</ele>
        <time>2021-09-29T09:37:43Z</time>
      </trkpt>
      <trkpt lat="46.26841" lon="6.25749">
        <ele>491.37</ele>
        <time>2021-09-29T09:38:05Z</time>
      </trkpt>
      <trkpt lat="46.26841" lon="6.25721">
        <ele>491.37</ele>
        <time>2021-09-29T09:38:13Z</time>
      </trkpt>
      <trkpt lat="46.2683" lon="6.257">
        <ele>491.37</ele>
        <time>2021-09-29T09:38:19Z</time>
      </trkpt>
      <trkpt lat="46.26832" lon="6.25721">
        <ele>491.37</ele>
        <time>2021-09-29T09:38:26Z</time>
      </trkpt>
      <trkpt lat="46.26845" lon="6.25741">
        <ele>491.37</ele>
        <time>2021-09-29T09:38:33Z</time>
      </trkpt>
      <trkpt lat="46.26843" lon="6.25772">
        <ele>491.37</ele>
        <time>2021-09-29T09:38:38Z</time>
      </trkpt>
      <trkpt lat="46.26833" lon="6.25794">
        <ele>491.37</ele>
        <time>2021-09-29T09:38:46Z</time>
      </trkpt>
      <trkpt lat="46.26819" lon="6.25813">
        <ele>491.37</ele>
        <time>2021-09-29T09:38:54Z</time>
      </trkpt>
      <trkpt lat="46.26803" lon="6.25802">
        <ele>491.37</ele>
        <time>2021-09-29T09:39:02Z</time>
      </trkpt>
      <trkpt lat="46.26784" lon="6.2579">
        <ele>491.37</ele>
        <time>2021-09-29T09:39:08Z</time>
      </trkpt>
      <trkpt lat="46.26765" lon="6.25777">
        <ele>491.37</ele>
        <time>2021-09-29T09:39:13Z</time>
      </trkpt>
      <trkpt lat="46.26748" lon="6.25766">
        <ele>491.37</ele>
        <time>2021-09-29T09:39:18Z</time>
      </trkpt>
      <trkpt lat="46.26731" lon="6.25754">
        <ele>491.37</ele>
        <time>2021-09-29T09:39:23Z</time>
      </trkpt>
      <trkpt lat="46.26709" lon="6.25742">
        <ele>491.37</ele>
        <time>2021-09-29T09:39:31Z</time>
      </trkpt>
      <trkpt lat="46.267" lon="6.25721">
        <ele>491.37</ele>
        <time>2021-09-29T09:39:40Z</time>
      </trkpt>
      <trkpt lat="46.26677" lon="6.25724">
        <ele>491.37</ele>
        <time>2021-09-29T09:39:49Z</time>
      </trkpt>
      <trkpt lat="46.26659" lon="6.2572">
        <ele>491.37</ele>
        <time>2021-09-29T09:39:55Z</time>
      </trkpt>
      <trkpt lat="46.26641" lon="6.25706">
        <ele>491.37</ele>
        <time>2021-09-29T09:40:02Z</time>
      </trkpt>
      <trkpt lat="46.26622" lon="6.25695">
        <ele>491.37</ele>
        <time>2021-09-29T09:40:08Z</time>
      </trkpt>
      <trkpt lat="46.26604" lon="6.25705">
        <ele>491.37</ele>
        <time>2021-09-29T09:40:15Z</time>
      </trkpt>
      <trkpt lat="46.26602" lon="6.25708">
        <ele>491.37</ele>
        <time>2021-09-29T09:40:26Z</time>
      </trkpt>
      <trkpt lat="46.26606" lon="6.2573">
        <ele>491.37</ele>
        <time>2021-09-29T09:40:35Z</time>
      </trkpt>
      <trkpt lat="46.2661" lon="6.25723">
        <ele>491.37</ele>
        <time>2021-09-29T09:40:44Z</time>
      </trkpt>
      <trkpt lat="46.26615" lon="6.257">
        <ele>491.37</ele>
        <time>2021-09-29T09:40:51Z</time>
      </trkpt>
      <trkpt lat="46.26634" lon="6.25701">
        <ele>491.37</ele>
        <time>2021-09-29T09:40:57Z</time>
      </trkpt>
      <trkpt lat="46.26651" lon="6.25714">
        <ele>491.37</ele>
        <time>2021-09-29T09:41:01Z</time>
      </trkpt>
      <trkpt lat="46.2667" lon="6.2572">
        <ele>491.37</ele>
        <time>2021-09-29T09:41:05Z</time>
      </trkpt>
      <trkpt lat="46.2669" lon="6.25721">
        <ele>491.37</ele>
        <time>2021-09-29T09:41:12Z</time>
      </trkpt>
      <trkpt lat="46.267" lon="6.25732">
        <ele>491.37</ele>
        <time>2021-09-29T09:41:22Z</time>
      </trkpt>
      <trkpt lat="46.267" lon="6.25762">
        <ele>491.37</ele>
        <time>2021-09-29T09:41:28Z</time>
      </trkpt>
      <trkpt lat="46.26698" lon="6.25794">
        <ele>491.37</ele>
        <time>2021-09-29T09:41:33Z</time>
      </trkpt>
      <trkpt lat="46.26697" lon="6.25821">
        <ele>491.37</ele>
        <time>2021-09-29T09:41:40Z</time>
      </trkpt>
      <trkpt lat="46.26677" lon="6.25829">
        <ele>491.37</ele>
        <time>2021-09-29T09:42:02Z</time>
      </trkpt>
      <trkpt lat="46.26652" lon="6.25831">
        <ele>491.37</ele>
        <time>2021-09-29T09:42:09Z</time>
      </trkpt>
      <trkpt lat="46.26633" lon="6.25844">
        <ele>491.37</ele>
        <time>2021-09-29T09:42:17Z</time>
      </trkpt>
      <trkpt lat="46.26616" lon="6.25858">
        <ele>491.37</ele>
        <time>2021-09-29T09:42:24Z</time>
      </trkpt>
      <trkpt lat="46.26599" lon="6.25877">
        <ele>491.37</ele>
        <time>2021-09-29T09:42:57Z</time>
      </trkpt>
      <trkpt lat="46.26582" lon="6.25894">
        <ele>491.37</ele>
        <time>2021-09-29T09:43:05Z</time>
      </trkpt>
      <trkpt lat="46.26568" lon="6.25885">
        <ele>495.05</ele>
        <time>2021-09-29T09:43:24Z</time>
      </trkpt>
      <trkpt lat="46.26554" lon="6.25864">
        <ele>495.21</ele>
        <time>2021-09-29T09:43:31Z</time>
      </trkpt>
      <trkpt lat="46.26539" lon="6.25847">
        <ele>495.43</ele>
        <time>2021-09-29T09:43:39Z</time>
      </trkpt>
      <trkpt lat="46.26546" lon="6.25859">
        <ele>495.73</ele>
        <time>2021-09-29T09:43:48Z</time>
      </trkpt>
      <trkpt lat="46.26561" lon="6.25876">
        <ele>495.73</ele>
        <time>2021-09-29T09:43:52Z</time>
      </trkpt>
      <trkpt lat="46.26571" lon="6.25899">
        <ele>495.69</ele>
        <time>2021-09-29T09:43:56Z</time>
      </trkpt>
      <trkpt lat="46.26577" lon="6.25926">
        <ele>495.55</ele>
        <time>2021-09-29T09:44:00Z</time>
      </trkpt>
      <trkpt lat="46.2658" lon="6.25955">
        <ele>495.32</ele>
        <time>2021-09-29T09:44:04Z</time>
      </trkpt>
      <trkpt lat="46.26585" lon="6.25985">
        <ele>494.83</ele>
        <time>2021-09-29T09:44:08Z</time>
      </trkpt>
      <trkpt lat="46.26588" lon="6.26013">
        <ele>494.3</ele>
        <time>2021-09-29T09:44:12Z</time>
      </trkpt>
      <trkpt lat="46.26587" lon="6.26044">
        <ele>493.8</ele>
        <time>2021-09-29T09:44:17Z</time>
      </trkpt>
      <trkpt lat="46.2658" lon="6.26072">
        <ele>493.53</ele>
        <time>2021-09-29T09:44:23Z</time>
      </trkpt>
      <trkpt lat="46.26572" lon="6.26099">
        <ele>493.57</ele>
        <time>2021-09-29T09:44:29Z</time>
      </trkpt>
      <trkpt lat="46.26562" lon="6.26123">
        <ele>493.87</ele>
        <time>2021-09-29T09:44:34Z</time>
      </trkpt>
      <trkpt lat="46.26553" lon="6.26152">
        <ele>494.42</ele>
        <time>2021-09-29T09:44:39Z</time>
      </trkpt>
      <trkpt lat="46.26547" lon="6.26181">
        <ele>494.87</ele>
        <time>2021-09-29T09:44:44Z</time>
      </trkpt>
      <trkpt lat="46.26545" lon="6.26211">
        <ele>495.25</ele>
        <time>2021-09-29T09:44:50Z</time>
      </trkpt>
      <trkpt lat="46.26548" lon="6.26239">
        <ele>495.45</ele>
        <time>2021-09-29T09:44:55Z</time>
      </trkpt>
      <trkpt lat="46.26552" lon="6.26268">
        <ele>495.33</ele>
        <time>2021-09-29T09:45:00Z</time>
      </trkpt>
      <trkpt lat="46.26555" lon="6.26294">
        <ele>495.14</ele>
        <time>2021-09-29T09:45:05Z</time>
      </trkpt>
      <trkpt lat="46.26561" lon="6.26323">
        <ele>494.75</ele>
        <time>2021-09-29T09:45:11Z</time>
      </trkpt>
      <trkpt lat="46.26566" lon="6.26352">
        <ele>494.52</ele>
        <time>2021-09-29T09:45:17Z</time>
      </trkpt>
      <trkpt lat="46.2657" lon="6.26382">
        <ele>494.24</ele>
        <time>2021-09-29T09:45:22Z</time>
      </trkpt>
      <trkpt lat="46.26575" lon="6.2641">
        <ele>494</ele>
        <time>2021-09-29T09:45:27Z</time>
      </trkpt>
      <trkpt lat="46.26577" lon="6.26439">
        <ele>493.76</ele>
        <time>2021-09-29T09:45:33Z</time>
      </trkpt>
      <trkpt lat="46.26578" lon="6.26467">
        <ele>493.67</ele>
        <time>2021-09-29T09:45:38Z</time>
      </trkpt>
      <trkpt lat="46.2658" lon="6.26494">
        <ele>493.66</ele>
        <time>2021-09-29T09:45:43Z</time>
      </trkpt>
      <trkpt lat="46.26581" lon="6.26521">
        <ele>493.84</ele>
        <time>2021-09-29T09:45:48Z</time>
      </trkpt>
      <trkpt lat="46.26582" lon="6.2655">
        <ele>494.04</ele>
        <time>2021-09-29T09:45:53Z</time>
      </trkpt>
      <trkpt lat="46.26584" lon="6.26579">
        <ele>494.2</ele>
        <time>2021-09-29T09:45:59Z</time>
      </trkpt>
      <trkpt lat="46.26585" lon="6.26607">
        <ele>494.34</ele>
        <time>2021-09-29T09:46:04Z</time>
      </trkpt>
      <trkpt lat="46.26588" lon="6.26637">
        <ele>494.48</ele>
        <time>2021-09-29T09:46:09Z</time>
      </trkpt>
      <trkpt lat="46.2659" lon="6.26663">
        <ele>494.8</ele>
        <time>2021-09-29T09:46:13Z</time>
      </trkpt>
      <trkpt lat="46.26594" lon="6.26691">
        <ele>494.95</ele>
        <time>2021-09-29T09:46:18Z</time>
      </trkpt>
      <trkpt lat="46.26599" lon="6.26716">
        <ele>495.13</ele>
        <time>2021-09-29T09:46:25Z</time>
      </trkpt>
      <trkpt lat="46.26582" lon="6.26715">
        <ele>496.64</ele>
        <time>2021-09-29T09:46:34Z</time>
      </trkpt>
      <trkpt lat="46.26564" lon="6.26705">
        <ele>498.79</ele>
        <time>2021-09-29T09:46:43Z</time>
      </trkpt>
      <trkpt lat="46.26542" lon="6.26694">
        <ele>500.38</ele>
        <time>2021-09-29T09:46:51Z</time>
      </trkpt>
      <trkpt lat="46.2652" lon="6.26683">
        <ele>501.68</ele>
        <time>2021-09-29T09:46:58Z</time>
      </trkpt>
      <trkpt lat="46.26501" lon="6.26674">
        <ele>502.24</ele>
        <time>2021-09-29T09:47:04Z</time>
      </trkpt>
      <trkpt lat="46.26479" lon="6.26667">
        <ele>502.41</ele>
        <time>2021-09-29T09:47:10Z</time>
      </trkpt>
      <trkpt lat="46.2646" lon="6.26666">
        <ele>502.43</ele>
        <time>2021-09-29T09:47:15Z</time>
      </trkpt>
      <trkpt lat="46.2644" lon="6.26668">
        <ele>502.79</ele>
        <time>2021-09-29T09:47:20Z</time>
      </trkpt>
      <trkpt lat="46.2642" lon="6.2667">
        <ele>502.97</ele>
        <time>2021-09-29T09:47:26Z</time>
      </trkpt>
      <trkpt lat="46.26401" lon="6.26671">
        <ele>503.17</ele>
        <time>2021-09-29T09:47:32Z</time>
      </trkpt>
      <trkpt lat="46.26381" lon="6.26669">
        <ele>503.61</ele>
        <time>2021-09-29T09:47:40Z</time>
      </trkpt>
      <trkpt lat="46.26363" lon="6.26661">
        <ele>503.82</ele>
        <time>2021-09-29T09:47:46Z</time>
      </trkpt>
      <trkpt lat="46.26345" lon="6.26651">
        <ele>504.13</ele>
        <time>2021-09-29T09:47:52Z</time>
      </trkpt>
      <trkpt lat="46.26327" lon="6.2664">
        <ele>504.34</ele>
        <time>2021-09-29T09:47:59Z</time>
      </trkpt>
      <trkpt lat="46.26307" lon="6.26628">
        <ele>503.97</ele>
        <time>2021-09-29T09:48:05Z</time>
      </trkpt>
      <trkpt lat="46.26287" lon="6.26617">
        <ele>504.11</ele>
        <time>2021-09-29T09:48:10Z</time>
      </trkpt>
      <trkpt lat="46.26271" lon="6.26605">
        <ele>504.38</ele>
        <time>2021-09-29T09:48:15Z</time>
      </trkpt>
      <trkpt lat="46.26254" lon="6.26594">
        <ele>504.24</ele>
        <time>2021-09-29T09:48:20Z</time>
      </trkpt>
      <trkpt lat="46.26236" lon="6.26583">
        <ele>503.89</ele>
        <time>2021-09-29T09:48:25Z</time>
      </trkpt>
      <trkpt lat="46.26217" lon="6.26572">
        <ele>503.53</ele>
        <time>2021-09-29T09:48:30Z</time>
      </trkpt>
      <trkpt lat="46.262" lon="6.26564">
        <ele>503.46</ele>
        <time>2021-09-29T09:48:34Z</time>
      </trkpt>
      <trkpt lat="46.26179" lon="6.26555">
        <ele>503.49</ele>
        <time>2021-09-29T09:48:39Z</time>
      </trkpt>
      <trkpt lat="46.26159" lon="6.26546">
        <ele>503.75</ele>
        <time>2021-09-29T09:48:44Z</time>
      </trkpt>
      <trkpt lat="46.26139" lon="6.26536">
        <ele>503.95</ele>
        <time>2021-09-29T09:48:49Z</time>
      </trkpt>
      <trkpt lat="46.2612" lon="6.26526">
        <ele>504.44</ele>
        <time>2021-09-29T09:48:54Z</time>
      </trkpt>
      <trkpt lat="46.26101" lon="6.26517">
        <ele>504.64</ele>
        <time>2021-09-29T09:49:00Z</time>
      </trkpt>
      <trkpt lat="46.26083" lon="6.2651">
        <ele>504.71</ele>
        <time>2021-09-29T09:49:06Z</time>
      </trkpt>
      <trkpt lat="46.26064" lon="6.265">
        <ele>504.72</ele>
        <time>2021-09-29T09:49:12Z</time>
      </trkpt>
      <trkpt lat="46.26047" lon="6.26488">
        <ele>504.92</ele>
        <time>2021-09-29T09:49:18Z</time>
      </trkpt>
      <trkpt lat="46.26026" lon="6.26479">
        <ele>505.06</ele>
        <time>2021-09-29T09:49:24Z</time>
      </trkpt>
      <trkpt lat="46.26009" lon="6.2647">
        <ele>505.25</ele>
        <time>2021-09-29T09:49:29Z</time>
      </trkpt>
      <trkpt lat="46.25989" lon="6.26463">
        <ele>505.49</ele>
        <time>2021-09-29T09:49:36Z</time>
      </trkpt>
      <trkpt lat="46.25971" lon="6.26452">
        <ele>505.7</ele>
        <time>2021-09-29T09:49:42Z</time>
      </trkpt>
      <trkpt lat="46.25953" lon="6.26438">
        <ele>506.05</ele>
        <time>2021-09-29T09:49:48Z</time>
      </trkpt>
      <trkpt lat="46.25935" lon="6.26422">
        <ele>506.28</ele>
        <time>2021-09-29T09:49:54Z</time>
      </trkpt>
      <trkpt lat="46.25919" lon="6.26409">
        <ele>506.26</ele>
        <time>2021-09-29T09:50:15Z</time>
      </trkpt>
      <trkpt lat="46.25898" lon="6.26408">
        <ele>506.38</ele>
        <time>2021-09-29T09:50:24Z</time>
      </trkpt>
      <trkpt lat="46.25878" lon="6.26409">
        <ele>506.74</ele>
        <time>2021-09-29T09:50:30Z</time>
      </trkpt>
      <trkpt lat="46.25857" lon="6.26405">
        <ele>507.24</ele>
        <time>2021-09-29T09:50:36Z</time>
      </trkpt>
      <trkpt lat="46.25836" lon="6.26401">
        <ele>507.66</ele>
        <time>2021-09-29T09:50:41Z</time>
      </trkpt>
      <trkpt lat="46.25816" lon="6.264">
        <ele>507.92</ele>
        <time>2021-09-29T09:50:45Z</time>
      </trkpt>
      <trkpt lat="46.25797" lon="6.26394">
        <ele>508.25</ele>
        <time>2021-09-29T09:50:49Z</time>
      </trkpt>
      <trkpt lat="46.25777" lon="6.26387">
        <ele>508.78</ele>
        <time>2021-09-29T09:50:55Z</time>
      </trkpt>
      <trkpt lat="46.25759" lon="6.26378">
        <ele>509.28</ele>
        <time>2021-09-29T09:51:02Z</time>
      </trkpt>
      <trkpt lat="46.25743" lon="6.26367">
        <ele>509.25</ele>
        <time>2021-09-29T09:51:07Z</time>
      </trkpt>
      <trkpt lat="46.25725" lon="6.26353">
        <ele>509.25</ele>
        <time>2021-09-29T09:51:12Z</time>
      </trkpt>
      <trkpt lat="46.25708" lon="6.26339">
        <ele>509.09</ele>
        <time>2021-09-29T09:51:17Z</time>
      </trkpt>
      <trkpt lat="46.25691" lon="6.26324">
        <ele>508.92</ele>
        <time>2021-09-29T09:51:22Z</time>
      </trkpt>
      <trkpt lat="46.25674" lon="6.26311">
        <ele>508.86</ele>
        <time>2021-09-29T09:51:27Z</time>
      </trkpt>
      <trkpt lat="46.25659" lon="6.26298">
        <ele>508.82</ele>
        <time>2021-09-29T09:51:32Z</time>
      </trkpt>
      <trkpt lat="46.25641" lon="6.26285">
        <ele>508.95</ele>
        <time>2021-09-29T09:51:38Z</time>
      </trkpt>
      <trkpt lat="46.2563" lon="6.26267">
        <ele>509.95</ele>
        <time>2021-09-29T09:51:46Z</time>
      </trkpt>
      <trkpt lat="46.25609" lon="6.2626">
        <ele>509.92</ele>
        <time>2021-09-29T09:51:53Z</time>
      </trkpt>
      <trkpt lat="46.2559" lon="6.26247">
        <ele>509.91</ele>
        <time>2021-09-29T09:51:58Z</time>
      </trkpt>
      <trkpt lat="46.25572" lon="6.26234">
        <ele>510.2</ele>
        <time>2021-09-29T09:52:03Z</time>
      </trkpt>
      <trkpt lat="46.25555" lon="6.2622">
        <ele>510.39</ele>
        <time>2021-09-29T09:52:08Z</time>
      </trkpt>
      <trkpt lat="46.25538" lon="6.26206">
        <ele>510.46</ele>
        <time>2021-09-29T09:52:13Z</time>
      </trkpt>
      <trkpt lat="46.25519" lon="6.2619">
        <ele>510.65</ele>
        <time>2021-09-29T09:52:19Z</time>
      </trkpt>
      <trkpt lat="46.25503" lon="6.26179">
        <ele>510.91</ele>
        <time>2021-09-29T09:52:24Z</time>
      </trkpt>
      <trkpt lat="46.25483" lon="6.26169">
        <ele>511.05</ele>
        <time>2021-09-29T09:52:30Z</time>
      </trkpt>
      <trkpt lat="46.25463" lon="6.26164">
        <ele>510.91</ele>
        <time>2021-09-29T09:52:36Z</time>
      </trkpt>
      <trkpt lat="46.25445" lon="6.26157">
        <ele>510.77</ele>
        <time>2021-09-29T09:52:41Z</time>
      </trkpt>
      <trkpt lat="46.25425" lon="6.26148">
        <ele>511.06</ele>
        <time>2021-09-29T09:52:47Z</time>
      </trkpt>
      <trkpt lat="46.25408" lon="6.2614">
        <ele>511.34</ele>
        <time>2021-09-29T09:52:52Z</time>
      </trkpt>
      <trkpt lat="46.25387" lon="6.2613">
        <ele>511.87</ele>
        <time>2021-09-29T09:52:58Z</time>
      </trkpt>
      <trkpt lat="46.25368" lon="6.26122">
        <ele>512.47</ele>
        <time>2021-09-29T09:53:04Z</time>
      </trkpt>
      <trkpt lat="46.25349" lon="6.26112">
        <ele>513.11</ele>
        <time>2021-09-29T09:53:10Z</time>
      </trkpt>
      <trkpt lat="46.2533" lon="6.26104">
        <ele>513.83</ele>
        <time>2021-09-29T09:53:17Z</time>
      </trkpt>
      <trkpt lat="46.25312" lon="6.26096">
        <ele>514.52</ele>
        <time>2021-09-29T09:53:23Z</time>
      </trkpt>
      <trkpt lat="46.25292" lon="6.26089">
        <ele>514.73</ele>
        <time>2021-09-29T09:53:29Z</time>
      </trkpt>
      <trkpt lat="46.25274" lon="6.26083">
        <ele>514.96</ele>
        <time>2021-09-29T09:53:34Z</time>
      </trkpt>
      <trkpt lat="46.25256" lon="6.26075">
        <ele>515.12</ele>
        <time>2021-09-29T09:53:39Z</time>
      </trkpt>
      <trkpt lat="46.2524" lon="6.26062">
        <ele>515.25</ele>
        <time>2021-09-29T09:53:44Z</time>
      </trkpt>
      <trkpt lat="46.25225" lon="6.26047">
        <ele>515.52</ele>
        <time>2021-09-29T09:53:49Z</time>
      </trkpt>
      <trkpt lat="46.25209" lon="6.26033">
        <ele>515.67</ele>
        <time>2021-09-29T09:53:54Z</time>
      </trkpt>
      <trkpt lat="46.25193" lon="6.2602">
        <ele>515.67</ele>
        <time>2021-09-29T09:54:00Z</time>
      </trkpt>
      <trkpt lat="46.25174" lon="6.26012">
        <ele>515.63</ele>
        <time>2021-09-29T09:54:09Z</time>
      </trkpt>
      <trkpt lat="46.25155" lon="6.26009">
        <ele>516.07</ele>
        <time>2021-09-29T09:54:16Z</time>
      </trkpt>
      <trkpt lat="46.25136" lon="6.25995">
        <ele>516.35</ele>
        <time>2021-09-29T09:54:22Z</time>
      </trkpt>
      <trkpt lat="46.25118" lon="6.25981">
        <ele>516.32</ele>
        <time>2021-09-29T09:54:26Z</time>
      </trkpt>
      <trkpt lat="46.25099" lon="6.25967">
        <ele>515.77</ele>
        <time>2021-09-29T09:54:30Z</time>
      </trkpt>
      <trkpt lat="46.25082" lon="6.25955">
        <ele>514.97</ele>
        <time>2021-09-29T09:54:34Z</time>
      </trkpt>
      <trkpt lat="46.25063" lon="6.25941">
        <ele>514.68</ele>
        <time>2021-09-29T09:54:39Z</time>
      </trkpt>
      <trkpt lat="46.25046" lon="6.25928">
        <ele>514.53</ele>
        <time>2021-09-29T09:54:44Z</time>
      </trkpt>
      <trkpt lat="46.25027" lon="6.25915">
        <ele>514.48</ele>
        <time>2021-09-29T09:54:49Z</time>
      </trkpt>
      <trkpt lat="46.25008" lon="6.25902">
        <ele>514.49</ele>
        <time>2021-09-29T09:54:54Z</time>
      </trkpt>
      <trkpt lat="46.2499" lon="6.2589">
        <ele>514.48</ele>
        <time>2021-09-29T09:54:59Z</time>
      </trkpt>
      <trkpt lat="46.24975" lon="6.25883">
        <ele>513.04</ele>
        <time>2021-09-29T09:59:34Z</time>
      </trkpt>
      <trkpt lat="46.24995" lon="6.25895">
        <ele>513.04</ele>
        <time>2021-09-29T09:59:43Z</time>
      </trkpt>
      <trkpt lat="46.25013" lon="6.25907">
        <ele>513.04</ele>
        <time>2021-09-29T09:59:47Z</time>
      </trkpt>
      <trkpt lat="46.25033" lon="6.2592">
        <ele>513.04</ele>
        <time>2021-09-29T09:59:51Z</time>
      </trkpt>
      <trkpt lat="46.2505" lon="6.25933">
        <ele>513.04</ele>
        <time>2021-09-29T09:59:55Z</time>
      </trkpt>
      <trkpt lat="46.25069" lon="6.25947">
        <ele>513.04</ele>
        <time>2021-09-29T10:00:00Z</time>
      </trkpt>
      <trkpt lat="46.25086" lon="6.25959">
        <ele>513.04</ele>
        <time>2021-09-29T10:00:05Z</time>
      </trkpt>
      <trkpt lat="46.25104" lon="6.25973">
        <ele>513.04</ele>
        <time>2021-09-29T10:00:10Z</time>
      </trkpt>
      <trkpt lat="46.25123" lon="6.25986">
        <ele>513.04</ele>
        <time>2021-09-29T10:00:15Z</time>
      </trkpt>
      <trkpt lat="46.25141" lon="6.26">
        <ele>513.04</ele>
        <time>2021-09-29T10:00:20Z</time>
      </trkpt>
      <trkpt lat="46.25159" lon="6.26009">
        <ele>513.04</ele>
        <time>2021-09-29T10:00:25Z</time>
      </trkpt>
      <trkpt lat="46.25167" lon="6.26028">
        <ele>515.96</ele>
        <time>2021-09-29T10:00:33Z</time>
      </trkpt>
      <trkpt lat="46.25157" lon="6.26055">
        <ele>516.06</ele>
        <time>2021-09-29T10:00:40Z</time>
      </trkpt>
      <trkpt lat="46.25149" lon="6.26082">
        <ele>516.35</ele>
        <time>2021-09-29T10:00:50Z</time>
      </trkpt>
      <trkpt lat="46.25139" lon="6.26108">
        <ele>516.52</ele>
        <time>2021-09-29T10:00:59Z</time>
      </trkpt>
      <trkpt lat="46.25132" lon="6.26132">
        <ele>515.03</ele>
        <time>2021-09-29T10:01:32Z</time>
      </trkpt>
      <trkpt lat="46.25126" lon="6.26162">
        <ele>515.03</ele>
        <time>2021-09-29T10:01:39Z</time>
      </trkpt>
      <trkpt lat="46.25122" lon="6.26188">
        <ele>515.03</ele>
        <time>2021-09-29T10:01:44Z</time>
      </trkpt>
      <trkpt lat="46.25117" lon="6.26215">
        <ele>515.03</ele>
        <time>2021-09-29T10:01:49Z</time>
      </trkpt>
      <trkpt lat="46.25111" lon="6.26244">
        <ele>514.93</ele>
        <time>2021-09-29T10:01:54Z</time>
      </trkpt>
      <trkpt lat="46.25104" lon="6.26271">
        <ele>514.95</ele>
        <time>2021-09-29T10:01:59Z</time>
      </trkpt>
      <trkpt lat="46.25095" lon="6.26295">
        <ele>515.3</ele>
        <time>2021-09-29T10:02:04Z</time>
      </trkpt>
      <trkpt lat="46.25081" lon="6.26316">
        <ele>516.2</ele>
        <time>2021-09-29T10:02:09Z</time>
      </trkpt>
      <trkpt lat="46.25067" lon="6.26335">
        <ele>516.82</ele>
        <time>2021-09-29T10:02:14Z</time>
      </trkpt>
      <trkpt lat="46.25054" lon="6.26356">
        <ele>517.55</ele>
        <time>2021-09-29T10:02:19Z</time>
      </trkpt>
      <trkpt lat="46.25037" lon="6.26378">
        <ele>518.18</ele>
        <time>2021-09-29T10:02:24Z</time>
      </trkpt>
      <trkpt lat="46.25023" lon="6.26399">
        <ele>518.87</ele>
        <time>2021-09-29T10:02:31Z</time>
      </trkpt>
      <trkpt lat="46.25008" lon="6.26422">
        <ele>518.95</ele>
        <time>2021-09-29T10:02:37Z</time>
      </trkpt>
      <trkpt lat="46.24992" lon="6.26444">
        <ele>518.81</ele>
        <time>2021-09-29T10:02:42Z</time>
      </trkpt>
      <trkpt lat="46.24976" lon="6.26464">
        <ele>518.63</ele>
        <time>2021-09-29T10:02:46Z</time>
      </trkpt>
      <trkpt lat="46.24961" lon="6.26483">
        <ele>518.58</ele>
        <time>2021-09-29T10:02:50Z</time>
      </trkpt>
      <trkpt lat="46.24953" lon="6.26506">
        <ele>518.54</ele>
        <time>2021-09-29T10:02:55Z</time>
      </trkpt>
      <trkpt lat="46.24964" lon="6.26529">
        <ele>518.75</ele>
        <time>2021-09-29T10:03:00Z</time>
      </trkpt>
      <trkpt lat="46.2498" lon="6.26545">
        <ele>518.86</ele>
        <time>2021-09-29T10:03:04Z</time>
      </trkpt>
      <trkpt lat="46.24998" lon="6.26564">
        <ele>518.93</ele>
        <time>2021-09-29T10:03:08Z</time>
      </trkpt>
      <trkpt lat="46.25013" lon="6.26584">
        <ele>519.22</ele>
        <time>2021-09-29T10:03:12Z</time>
      </trkpt>
      <trkpt lat="46.25014" lon="6.26614">
        <ele>519.26</ele>
        <time>2021-09-29T10:03:17Z</time>
      </trkpt>
      <trkpt lat="46.25003" lon="6.26638">
        <ele>519.43</ele>
        <time>2021-09-29T10:03:23Z</time>
      </trkpt>
      <trkpt lat="46.2499" lon="6.26661">
        <ele>519.62</ele>
        <time>2021-09-29T10:03:29Z</time>
      </trkpt>
      <trkpt lat="46.24978" lon="6.26687">
        <ele>519.73</ele>
        <time>2021-09-29T10:03:35Z</time>
      </trkpt>
      <trkpt lat="46.24966" lon="6.2671">
        <ele>519.74</ele>
        <time>2021-09-29T10:03:40Z</time>
      </trkpt>
      <trkpt lat="46.24955" lon="6.26732">
        <ele>519.88</ele>
        <time>2021-09-29T10:03:45Z</time>
      </trkpt>
      <trkpt lat="46.24949" lon="6.26756">
        <ele>520.26</ele>
        <time>2021-09-29T10:03:53Z</time>
      </trkpt>
      <trkpt lat="46.24958" lon="6.26779">
        <ele>520.31</ele>
        <time>2021-09-29T10:03:58Z</time>
      </trkpt>
      <trkpt lat="46.2497" lon="6.26804">
        <ele>520.07</ele>
        <time>2021-09-29T10:04:03Z</time>
      </trkpt>
      <trkpt lat="46.24983" lon="6.2683">
        <ele>519.77</ele>
        <time>2021-09-29T10:04:08Z</time>
      </trkpt>
      <trkpt lat="46.24994" lon="6.26857">
        <ele>519.54</ele>
        <time>2021-09-29T10:04:13Z</time>
      </trkpt>
      <trkpt lat="46.25003" lon="6.26881">
        <ele>519.62</ele>
        <time>2021-09-29T10:04:17Z</time>
      </trkpt>
      <trkpt lat="46.25012" lon="6.26906">
        <ele>519.71</ele>
        <time>2021-09-29T10:04:21Z</time>
      </trkpt>
      <trkpt lat="46.25022" lon="6.26934">
        <ele>519.78</ele>
        <time>2021-09-29T10:04:25Z</time>
      </trkpt>
      <trkpt lat="46.25032" lon="6.2696">
        <ele>520.14</ele>
        <time>2021-09-29T10:04:30Z</time>
      </trkpt>
      <trkpt lat="46.25044" lon="6.26981">
        <ele>520.33</ele>
        <time>2021-09-29T10:04:35Z</time>
      </trkpt>
      <trkpt lat="46.25058" lon="6.27006">
        <ele>520.55</ele>
        <time>2021-09-29T10:04:40Z</time>
      </trkpt>
      <trkpt lat="46.25072" lon="6.2703">
        <ele>520.81</ele>
        <time>2021-09-29T10:04:44Z</time>
      </trkpt>
      <trkpt lat="46.25085" lon="6.27054">
        <ele>520.95</ele>
        <time>2021-09-29T10:04:48Z</time>
      </trkpt>
      <trkpt lat="46.25095" lon="6.2708">
        <ele>521.12</ele>
        <time>2021-09-29T10:04:53Z</time>
      </trkpt>
      <trkpt lat="46.25102" lon="6.27107">
        <ele>521.3</ele>
        <time>2021-09-29T10:04:59Z</time>
      </trkpt>
      <trkpt lat="46.25107" lon="6.27135">
        <ele>521.7</ele>
        <time>2021-09-29T10:05:04Z</time>
      </trkpt>
      <trkpt lat="46.25114" lon="6.27166">
        <ele>522.05</ele>
        <time>2021-09-29T10:05:09Z</time>
      </trkpt>
      <trkpt lat="46.25122" lon="6.27195">
        <ele>522.18</ele>
        <time>2021-09-29T10:05:13Z</time>
      </trkpt>
      <trkpt lat="46.25131" lon="6.27218">
        <ele>522.18</ele>
        <time>2021-09-29T10:05:17Z</time>
      </trkpt>
      <trkpt lat="46.25143" lon="6.27239">
        <ele>522.4</ele>
        <time>2021-09-29T10:05:23Z</time>
      </trkpt>
      <trkpt lat="46.25157" lon="6.27258">
        <ele>522.68</ele>
        <time>2021-09-29T10:05:28Z</time>
      </trkpt>
      <trkpt lat="46.2517" lon="6.27284">
        <ele>522.91</ele>
        <time>2021-09-29T10:05:33Z</time>
      </trkpt>
      <trkpt lat="46.25179" lon="6.27308">
        <ele>523.05</ele>
        <time>2021-09-29T10:05:37Z</time>
      </trkpt>
      <trkpt lat="46.25191" lon="6.27329">
        <ele>523.19</ele>
        <time>2021-09-29T10:05:43Z</time>
      </trkpt>
      <trkpt lat="46.25206" lon="6.27349">
        <ele>523.72</ele>
        <time>2021-09-29T10:05:50Z</time>
      </trkpt>
      <trkpt lat="46.25218" lon="6.27375">
        <ele>524.44</ele>
        <time>2021-09-29T10:05:56Z</time>
      </trkpt>
      <trkpt lat="46.25231" lon="6.27385">
        <ele>524.91</ele>
        <time>2021-09-29T10:06:15Z</time>
      </trkpt>
      <trkpt lat="46.2525" lon="6.27364">
        <ele>524.91</ele>
        <time>2021-09-29T10:06:29Z</time>
      </trkpt>
      <trkpt lat="46.25268" lon="6.27344">
        <ele>524.44</ele>
        <time>2021-09-29T10:06:34Z</time>
      </trkpt>
      <trkpt lat="46.25285" lon="6.27322">
        <ele>522.58</ele>
        <time>2021-09-29T10:06:38Z</time>
      </trkpt>
      <trkpt lat="46.25303" lon="6.27305">
        <ele>522.58</ele>
        <time>2021-09-29T10:06:42Z</time>
      </trkpt>
      <trkpt lat="46.25318" lon="6.2729">
        <ele>522.58</ele>
        <time>2021-09-29T10:06:46Z</time>
      </trkpt>
      <trkpt lat="46.25336" lon="6.27274">
        <ele>522.58</ele>
        <time>2021-09-29T10:06:52Z</time>
      </trkpt>
      <trkpt lat="46.25351" lon="6.2726">
        <ele>522.58</ele>
        <time>2021-09-29T10:06:58Z</time>
      </trkpt>
      <trkpt lat="46.25368" lon="6.27245">
        <ele>522.58</ele>
        <time>2021-09-29T10:07:03Z</time>
      </trkpt>
      <trkpt lat="46.25381" lon="6.27225">
        <ele>522.58</ele>
        <time>2021-09-29T10:07:07Z</time>
      </trkpt>
      <trkpt lat="46.25392" lon="6.27203">
        <ele>522.58</ele>
        <time>2021-09-29T10:07:11Z</time>
      </trkpt>
      <trkpt lat="46.25406" lon="6.27182">
        <ele>522.58</ele>
        <time>2021-09-29T10:07:15Z</time>
      </trkpt>
      <trkpt lat="46.25418" lon="6.27161">
        <ele>522.58</ele>
        <time>2021-09-29T10:07:19Z</time>
      </trkpt>
      <trkpt lat="46.25432" lon="6.2714">
        <ele>522.58</ele>
        <time>2021-09-29T10:07:26Z</time>
      </trkpt>
      <trkpt lat="46.25445" lon="6.27114">
        <ele>522.58</ele>
        <time>2021-09-29T10:07:32Z</time>
      </trkpt>
      <trkpt lat="46.25458" lon="6.27087">
        <ele>522.58</ele>
        <time>2021-09-29T10:07:36Z</time>
      </trkpt>
      <trkpt lat="46.2547" lon="6.27058">
        <ele>517.7</ele>
        <time>2021-09-29T10:07:40Z</time>
      </trkpt>
      <trkpt lat="46.25483" lon="6.27032">
        <ele>517.62</ele>
        <time>2021-09-29T10:07:44Z</time>
      </trkpt>
      <trkpt lat="46.25494" lon="6.27008">
        <ele>517.47</ele>
        <time>2021-09-29T10:07:48Z</time>
      </trkpt>
      <trkpt lat="46.25506" lon="6.26987">
        <ele>517.02</ele>
        <time>2021-09-29T10:07:52Z</time>
      </trkpt>
      <trkpt lat="46.2552" lon="6.26962">
        <ele>516.5</ele>
        <time>2021-09-29T10:07:57Z</time>
      </trkpt>
      <trkpt lat="46.25531" lon="6.26938">
        <ele>515.86</ele>
        <time>2021-09-29T10:08:02Z</time>
      </trkpt>
      <trkpt lat="46.25541" lon="6.26914">
        <ele>515.45</ele>
        <time>2021-09-29T10:08:07Z</time>
      </trkpt>
      <trkpt lat="46.25553" lon="6.26888">
        <ele>514.9</ele>
        <time>2021-09-29T10:08:13Z</time>
      </trkpt>
      <trkpt lat="46.25564" lon="6.26863">
        <ele>514.45</ele>
        <time>2021-09-29T10:08:18Z</time>
      </trkpt>
      <trkpt lat="46.25574" lon="6.2684">
        <ele>514.3</ele>
        <time>2021-09-29T10:08:22Z</time>
      </trkpt>
      <trkpt lat="46.25583" lon="6.26817">
        <ele>513.9</ele>
        <time>2021-09-29T10:08:26Z</time>
      </trkpt>
      <trkpt lat="46.25596" lon="6.26793">
        <ele>513.13</ele>
        <time>2021-09-29T10:08:31Z</time>
      </trkpt>
      <trkpt lat="46.25605" lon="6.26769">
        <ele>512.93</ele>
        <time>2021-09-29T10:08:36Z</time>
      </trkpt>
      <trkpt lat="46.25614" lon="6.26741">
        <ele>512.64</ele>
        <time>2021-09-29T10:08:41Z</time>
      </trkpt>
      <trkpt lat="46.25625" lon="6.26718">
        <ele>512.47</ele>
        <time>2021-09-29T10:08:45Z</time>
      </trkpt>
      <trkpt lat="46.25637" lon="6.26698">
        <ele>512.14</ele>
        <time>2021-09-29T10:08:49Z</time>
      </trkpt>
      <trkpt lat="46.25652" lon="6.26679">
        <ele>511.61</ele>
        <time>2021-09-29T10:08:55Z</time>
      </trkpt>
      <trkpt lat="46.25663" lon="6.26658">
        <ele>511.06</ele>
        <time>2021-09-29T10:09:07Z</time>
      </trkpt>
      <trkpt lat="46.25676" lon="6.2663">
        <ele>511.03</ele>
        <time>2021-09-29T10:09:12Z</time>
      </trkpt>
      <trkpt lat="46.25688" lon="6.26603">
        <ele>510.93</ele>
        <time>2021-09-29T10:09:16Z</time>
      </trkpt>
      <trkpt lat="46.25698" lon="6.26575">
        <ele>510.73</ele>
        <time>2021-09-29T10:09:20Z</time>
      </trkpt>
      <trkpt lat="46.25708" lon="6.26548">
        <ele>510.51</ele>
        <time>2021-09-29T10:09:24Z</time>
      </trkpt>
      <trkpt lat="46.25717" lon="6.26522">
        <ele>509.91</ele>
        <time>2021-09-29T10:09:28Z</time>
      </trkpt>
      <trkpt lat="46.25727" lon="6.26494">
        <ele>509.09</ele>
        <time>2021-09-29T10:09:32Z</time>
      </trkpt>
      <trkpt lat="46.25736" lon="6.26467">
        <ele>508.17</ele>
        <time>2021-09-29T10:09:36Z</time>
      </trkpt>
      <trkpt lat="46.25745" lon="6.2644">
        <ele>507.43</ele>
        <time>2021-09-29T10:09:40Z</time>
      </trkpt>
      <trkpt lat="46.25754" lon="6.26413">
        <ele>506.9</ele>
        <time>2021-09-29T10:09:44Z</time>
      </trkpt>
      <trkpt lat="46.25763" lon="6.26387">
        <ele>506.59</ele>
        <time>2021-09-29T10:09:49Z</time>
      </trkpt>
      <trkpt lat="46.25782" lon="6.26389">
        <ele>505.7</ele>
        <time>2021-09-29T10:10:26Z</time>
      </trkpt>
      <trkpt lat="46.25801" lon="6.26395">
        <ele>505.5</ele>
        <time>2021-09-29T10:10:30Z</time>
      </trkpt>
      <trkpt lat="46.25822" lon="6.26399">
        <ele>505.31</ele>
        <time>2021-09-29T10:10:34Z</time>
      </trkpt>
      <trkpt lat="46.25843" lon="6.26403">
        <ele>505.18</ele>
        <time>2021-09-29T10:10:38Z</time>
      </trkpt>
      <trkpt lat="46.25862" lon="6.26406">
        <ele>504.93</ele>
        <time>2021-09-29T10:10:42Z</time>
      </trkpt>
      <trkpt lat="46.25881" lon="6.26409">
        <ele>504.65</ele>
        <time>2021-09-29T10:10:46Z</time>
      </trkpt>
      <trkpt lat="46.259" lon="6.26411">
        <ele>504.4</ele>
        <time>2021-09-29T10:10:50Z</time>
      </trkpt>
      <trkpt lat="46.25915" lon="6.26404">
        <ele>503.94</ele>
        <time>2021-09-29T10:10:56Z</time>
      </trkpt>
      <trkpt lat="46.25893" lon="6.26408">
        <ele>503.44</ele>
        <time>2021-09-29T10:11:03Z</time>
      </trkpt>
      <trkpt lat="46.25873" lon="6.26406">
        <ele>503.56</ele>
        <time>2021-09-29T10:11:08Z</time>
      </trkpt>
      <trkpt lat="46.25852" lon="6.26402">
        <ele>503.89</ele>
        <time>2021-09-29T10:11:13Z</time>
      </trkpt>
      <trkpt lat="46.25829" lon="6.26399">
        <ele>504.51</ele>
        <time>2021-09-29T10:11:18Z</time>
      </trkpt>
      <trkpt lat="46.25807" lon="6.26394">
        <ele>504.68</ele>
        <time>2021-09-29T10:11:22Z</time>
      </trkpt>
      <trkpt lat="46.25787" lon="6.26389">
        <ele>504.7</ele>
        <time>2021-09-29T10:11:26Z</time>
      </trkpt>
      <trkpt lat="46.25767" lon="6.26382">
        <ele>504.92</ele>
        <time>2021-09-29T10:11:31Z</time>
      </trkpt>
      <trkpt lat="46.25754" lon="6.26399">
        <ele>505.27</ele>
        <time>2021-09-29T10:11:37Z</time>
      </trkpt>
      <trkpt lat="46.25745" lon="6.26429">
        <ele>505.41</ele>
        <time>2021-09-29T10:11:42Z</time>
      </trkpt>
      <trkpt lat="46.25737" lon="6.26455">
        <ele>505.62</ele>
        <time>2021-09-29T10:11:46Z</time>
      </trkpt>
      <trkpt lat="46.25728" lon="6.26481">
        <ele>505.89</ele>
        <time>2021-09-29T10:11:50Z</time>
      </trkpt>
      <trkpt lat="46.2572" lon="6.26507">
        <ele>506.33</ele>
        <time>2021-09-29T10:11:54Z</time>
      </trkpt>
      <trkpt lat="46.2571" lon="6.26536">
        <ele>506.95</ele>
        <time>2021-09-29T10:11:59Z</time>
      </trkpt>
      <trkpt lat="46.25701" lon="6.26564">
        <ele>507.58</ele>
        <time>2021-09-29T10:12:04Z</time>
      </trkpt>
      <trkpt lat="46.2569" lon="6.26591">
        <ele>508.03</ele>
        <time>2021-09-29T10:12:09Z</time>
      </trkpt>
      <trkpt lat="46.25681" lon="6.26612">
        <ele>508.38</ele>
        <time>2021-09-29T10:12:13Z</time>
      </trkpt>
      <trkpt lat="46.25671" lon="6.26636">
        <ele>508.69</ele>
        <time>2021-09-29T10:12:18Z</time>
      </trkpt>
      <trkpt lat="46.25661" lon="6.2666">
        <ele>509.09</ele>
        <time>2021-09-29T10:12:23Z</time>
      </trkpt>
      <trkpt lat="46.2565" lon="6.26681">
        <ele>509.43</ele>
        <time>2021-09-29T10:12:29Z</time>
      </trkpt>
      <trkpt lat="46.25647" lon="6.26681">
        <ele>509.5</ele>
        <time>2021-09-29T10:12:40Z</time>
      </trkpt>
      <trkpt lat="46.25632" lon="6.26703">
        <ele>509.77</ele>
        <time>2021-09-29T10:12:46Z</time>
      </trkpt>
      <trkpt lat="46.25618" lon="6.26725">
        <ele>510.01</ele>
        <time>2021-09-29T10:12:51Z</time>
      </trkpt>
      <trkpt lat="46.25608" lon="6.26751">
        <ele>510.33</ele>
        <time>2021-09-29T10:12:56Z</time>
      </trkpt>
      <trkpt lat="46.25598" lon="6.26781">
        <ele>510.49</ele>
        <time>2021-09-29T10:13:01Z</time>
      </trkpt>
      <trkpt lat="46.25587" lon="6.26806">
        <ele>510.61</ele>
        <time>2021-09-29T10:13:05Z</time>
      </trkpt>
      <trkpt lat="46.25577" lon="6.2683">
        <ele>510.97</ele>
        <time>2021-09-29T10:13:09Z</time>
      </trkpt>
      <trkpt lat="46.25569" lon="6.26852">
        <ele>511.14</ele>
        <time>2021-09-29T10:13:14Z</time>
      </trkpt>
      <trkpt lat="46.25558" lon="6.26876">
        <ele>511.22</ele>
        <time>2021-09-29T10:13:21Z</time>
      </trkpt>
      <trkpt lat="46.25546" lon="6.26901">
        <ele>511.74</ele>
        <time>2021-09-29T10:13:26Z</time>
      </trkpt>
      <trkpt lat="46.25536" lon="6.26924">
        <ele>512.12</ele>
        <time>2021-09-29T10:13:30Z</time>
      </trkpt>
      <trkpt lat="46.25524" lon="6.26948">
        <ele>512.55</ele>
        <time>2021-09-29T10:13:35Z</time>
      </trkpt>
      <trkpt lat="46.25513" lon="6.26974">
        <ele>512.7</ele>
        <time>2021-09-29T10:13:41Z</time>
      </trkpt>
      <trkpt lat="46.25499" lon="6.26998">
        <ele>512.72</ele>
        <time>2021-09-29T10:13:46Z</time>
      </trkpt>
      <trkpt lat="46.25485" lon="6.27021">
        <ele>513.15</ele>
        <time>2021-09-29T10:13:51Z</time>
      </trkpt>
      <trkpt lat="46.25474" lon="6.27045">
        <ele>513.66</ele>
        <time>2021-09-29T10:13:57Z</time>
      </trkpt>
      <trkpt lat="46.25462" lon="6.2707">
        <ele>513.93</ele>
        <time>2021-09-29T10:14:03Z</time>
      </trkpt>
      <trkpt lat="46.2545" lon="6.27096">
        <ele>514.11</ele>
        <time>2021-09-29T10:14:08Z</time>
      </trkpt>
      <trkpt lat="46.25438" lon="6.27121">
        <ele>514.5</ele>
        <time>2021-09-29T10:14:13Z</time>
      </trkpt>
      <trkpt lat="46.25427" lon="6.27141">
        <ele>514.96</ele>
        <time>2021-09-29T10:14:19Z</time>
      </trkpt>
      <trkpt lat="46.25414" lon="6.27162">
        <ele>515.33</ele>
        <time>2021-09-29T10:14:27Z</time>
      </trkpt>
      <trkpt lat="46.254" lon="6.27183">
        <ele>515.71</ele>
        <time>2021-09-29T10:14:32Z</time>
      </trkpt>
      <trkpt lat="46.25387" lon="6.27204">
        <ele>516.06</ele>
        <time>2021-09-29T10:14:37Z</time>
      </trkpt>
      <trkpt lat="46.25377" lon="6.27226">
        <ele>516.5</ele>
        <time>2021-09-29T10:14:42Z</time>
      </trkpt>
      <trkpt lat="46.25362" lon="6.27246">
        <ele>517.3</ele>
        <time>2021-09-29T10:14:48Z</time>
      </trkpt>
      <trkpt lat="46.25344" lon="6.27261">
        <ele>518.25</ele>
        <time>2021-09-29T10:14:56Z</time>
      </trkpt>
      <trkpt lat="46.25326" lon="6.27279">
        <ele>518.63</ele>
        <time>2021-09-29T10:15:02Z</time>
      </trkpt>
      <trkpt lat="46.25309" lon="6.27296">
        <ele>518.73</ele>
        <time>2021-09-29T10:15:08Z</time>
      </trkpt>
      <trkpt lat="46.25292" lon="6.27312">
        <ele>518.49</ele>
        <time>2021-09-29T10:15:13Z</time>
      </trkpt>
      <trkpt lat="46.25277" lon="6.27327">
        <ele>518.51</ele>
        <time>2021-09-29T10:15:18Z</time>
      </trkpt>
      <trkpt lat="46.25263" lon="6.27346">
        <ele>518.74</ele>
        <time>2021-09-29T10:15:24Z</time>
      </trkpt>
      <trkpt lat="46.25249" lon="6.27369">
        <ele>520.16</ele>
        <time>2021-09-29T10:15:34Z</time>
      </trkpt>
      <trkpt lat="46.25233" lon="6.2739">
        <ele>522.1</ele>
        <time>2021-09-29T10:15:44Z</time>
      </trkpt>
      <trkpt lat="46.25242" lon="6.27421">
        <ele>522.38</ele>
        <time>2021-09-29T10:15:53Z</time>
      </trkpt>
      <trkpt lat="46.25255" lon="6.27449">
        <ele>521.94</ele>
        <time>2021-09-29T10:15:59Z</time>
      </trkpt>
      <trkpt lat="46.25266" lon="6.27474">
        <ele>521.31</ele>
        <time>2021-09-29T10:16:09Z</time>
      </trkpt>
      <trkpt lat="46.25271" lon="6.27506">
        <ele>521.27</ele>
        <time>2021-09-29T10:16:19Z</time>
      </trkpt>
      <trkpt lat="46.25276" lon="6.27537">
        <ele>521.35</ele>
        <time>2021-09-29T10:16:27Z</time>
      </trkpt>
      <trkpt lat="46.25282" lon="6.27567">
        <ele>521.73</ele>
        <time>2021-09-29T10:16:36Z</time>
      </trkpt>
      <trkpt lat="46.25287" lon="6.27598">
        <ele>521.82</ele>
        <time>2021-09-29T10:16:45Z</time>
      </trkpt>
      <trkpt lat="46.25292" lon="6.2763">
        <ele>522.12</ele>
        <time>2021-09-29T10:16:55Z</time>
      </trkpt>
      <trkpt lat="46.25298" lon="6.27661">
        <ele>522.37</ele>
        <time>2021-09-29T10:17:04Z</time>
      </trkpt>
      <trkpt lat="46.2531" lon="6.27688">
        <ele>522.5</ele>
        <time>2021-09-29T10:17:14Z</time>
      </trkpt>
      <trkpt lat="46.25315" lon="6.27717">
        <ele>522.62</ele>
        <time>2021-09-29T10:17:21Z</time>
      </trkpt>
      <trkpt lat="46.25311" lon="6.27749">
        <ele>522.21</ele>
        <time>2021-09-29T10:19:58Z</time>
      </trkpt>
      <trkpt lat="46.25303" lon="6.2778">
        <ele>522.21</ele>
        <time>2021-09-29T10:20:23Z</time>
      </trkpt>
      <trkpt lat="46.25296" lon="6.27815">
        <ele>522.21</ele>
        <time>2021-09-29T10:20:53Z</time>
      </trkpt>
      <trkpt lat="46.25291" lon="6.27858">
        <ele>522.21</ele>
        <time>2021-09-29T10:21:23Z</time>
      </trkpt>
      <trkpt lat="46.25287" lon="6.27894">
        <ele>522.21</ele>
        <time>2021-09-29T10:21:46Z</time>
      </trkpt>
      <trkpt lat="46.25265" lon="6.27898">
        <ele>522.21</ele>
        <time>2021-09-29T10:22:19Z</time>
      </trkpt>
      <trkpt lat="46.25254" lon="6.27873">
        <ele>522.21</ele>
        <time>2021-09-29T10:22:26Z</time>
      </trkpt>
      <trkpt lat="46.25237" lon="6.27873">
        <ele>522.21</ele>
        <time>2021-09-29T10:22:38Z</time>
      </trkpt>
      <trkpt lat="46.25213" lon="6.27887">
        <ele>522.21</ele>
        <time>2021-09-29T10:22:47Z</time>
      </trkpt>
      <trkpt lat="46.25189" lon="6.27903">
        <ele>522.21</ele>
        <time>2021-09-29T10:22:59Z</time>
      </trkpt>
      <trkpt lat="46.25159" lon="6.27915">
        <ele>522.21</ele>
        <time>2021-09-29T10:23:22Z</time>
      </trkpt>
      <trkpt lat="46.25153" lon="6.27885">
        <ele>522.21</ele>
        <time>2021-09-29T10:23:50Z</time>
      </trkpt>
      <trkpt lat="46.25144" lon="6.27852">
        <ele>518.44</ele>
        <time>2021-09-29T10:24:02Z</time>
      </trkpt>
      <trkpt lat="46.2513" lon="6.27832">
        <ele>517.97</ele>
        <time>2021-09-29T10:24:15Z</time>
      </trkpt>
      <trkpt lat="46.25134" lon="6.27808">
        <ele>517.5</ele>
        <time>2021-09-29T10:24:29Z</time>
      </trkpt>
      <trkpt lat="46.25129" lon="6.2778">
        <ele>517.82</ele>
        <time>2021-09-29T10:24:38Z</time>
      </trkpt>
      <trkpt lat="46.2512" lon="6.27752">
        <ele>517.81</ele>
        <time>2021-09-29T10:24:46Z</time>
      </trkpt>
      <trkpt lat="46.25112" lon="6.27725">
        <ele>517.39</ele>
        <time>2021-09-29T10:24:55Z</time>
      </trkpt>
      <trkpt lat="46.25104" lon="6.277">
        <ele>517.39</ele>
        <time>2021-09-29T10:25:01Z</time>
      </trkpt>
      <trkpt lat="46.25098" lon="6.27668">
        <ele>517.39</ele>
        <time>2021-09-29T10:25:28Z</time>
      </trkpt>
      <trkpt lat="46.2509" lon="6.27637">
        <ele>517.39</ele>
        <time>2021-09-29T10:25:46Z</time>
      </trkpt>
      <trkpt lat="46.25081" lon="6.27609">
        <ele>517.39</ele>
        <time>2021-09-29T10:25:53Z</time>
      </trkpt>
      <trkpt lat="46.25073" lon="6.27584">
        <ele>517.39</ele>
        <time>2021-09-29T10:25:58Z</time>
      </trkpt>
      <trkpt lat="46.25067" lon="6.27558">
        <ele>517.39</ele>
        <time>2021-09-29T10:26:04Z</time>
      </trkpt>
      <trkpt lat="46.25059" lon="6.27529">
        <ele>517.39</ele>
        <time>2021-09-29T10:26:11Z</time>
      </trkpt>
      <trkpt lat="46.25051" lon="6.275">
        <ele>517.39</ele>
        <time>2021-09-29T10:26:16Z</time>
      </trkpt>
      <trkpt lat="46.25037" lon="6.27481">
        <ele>517.39</ele>
        <time>2021-09-29T10:26:21Z</time>
      </trkpt>
      <trkpt lat="46.25023" lon="6.27472">
        <ele>517.39</ele>
        <time>2021-09-29T10:26:44Z</time>
      </trkpt>
      <trkpt lat="46.25012" lon="6.2745">
        <ele>517.39</ele>
        <time>2021-09-29T10:26:49Z</time>
      </trkpt>
      <trkpt lat="46.25002" lon="6.27423">
        <ele>517.39</ele>
        <time>2021-09-29T10:26:55Z</time>
      </trkpt>
      <trkpt lat="46.24994" lon="6.27398">
        <ele>517.39</ele>
        <time>2021-09-29T10:27:00Z</time>
      </trkpt>
      <trkpt lat="46.24984" lon="6.27372">
        <ele>517.39</ele>
        <time>2021-09-29T10:27:05Z</time>
      </trkpt>
      <trkpt lat="46.24971" lon="6.27349">
        <ele>517.39</ele>
        <time>2021-09-29T10:27:11Z</time>
      </trkpt>
      <trkpt lat="46.24958" lon="6.27329">
        <ele>517.39</ele>
        <time>2021-09-29T10:27:17Z</time>
      </trkpt>
      <trkpt lat="46.24946" lon="6.27304">
        <ele>517.39</ele>
        <time>2021-09-29T10:27:22Z</time>
      </trkpt>
      <trkpt lat="46.24936" lon="6.27278">
        <ele>517.39</ele>
        <time>2021-09-29T10:27:27Z</time>
      </trkpt>
      <trkpt lat="46.24928" lon="6.27252">
        <ele>517.39</ele>
        <time>2021-09-29T10:27:33Z</time>
      </trkpt>
      <trkpt lat="46.24919" lon="6.27226">
        <ele>517.39</ele>
        <time>2021-09-29T10:27:40Z</time>
      </trkpt>
      <trkpt lat="46.24915" lon="6.27197">
        <ele>517.39</ele>
        <time>2021-09-29T10:27:46Z</time>
      </trkpt>
      <trkpt lat="46.24908" lon="6.27171">
        <ele>517.39</ele>
        <time>2021-09-29T10:27:51Z</time>
      </trkpt>
      <trkpt lat="46.24901" lon="6.27142">
        <ele>517.39</ele>
        <time>2021-09-29T10:27:57Z</time>
      </trkpt>
      <trkpt lat="46.24891" lon="6.27118">
        <ele>514.15</ele>
        <time>2021-09-29T10:28:02Z</time>
      </trkpt>
      <trkpt lat="46.2488" lon="6.27095">
        <ele>514.09</ele>
        <time>2021-09-29T10:28:07Z</time>
      </trkpt>
      <trkpt lat="46.24871" lon="6.2707">
        <ele>514.1</ele>
        <time>2021-09-29T10:28:12Z</time>
      </trkpt>
      <trkpt lat="46.24862" lon="6.27045">
        <ele>513.98</ele>
        <time>2021-09-29T10:28:18Z</time>
      </trkpt>
      <trkpt lat="46.24848" lon="6.2702">
        <ele>513.97</ele>
        <time>2021-09-29T10:28:26Z</time>
      </trkpt>
      <trkpt lat="46.24836" lon="6.26998">
        <ele>514.13</ele>
        <time>2021-09-29T10:28:31Z</time>
      </trkpt>
      <trkpt lat="46.24826" lon="6.26972">
        <ele>514.03</ele>
        <time>2021-09-29T10:28:36Z</time>
      </trkpt>
      <trkpt lat="46.2482" lon="6.26944">
        <ele>513.81</ele>
        <time>2021-09-29T10:28:41Z</time>
      </trkpt>
      <trkpt lat="46.24814" lon="6.26917">
        <ele>513.56</ele>
        <time>2021-09-29T10:28:46Z</time>
      </trkpt>
      <trkpt lat="46.24807" lon="6.26889">
        <ele>513.3</ele>
        <time>2021-09-29T10:28:51Z</time>
      </trkpt>
      <trkpt lat="46.248" lon="6.26861">
        <ele>513.21</ele>
        <time>2021-09-29T10:28:56Z</time>
      </trkpt>
      <trkpt lat="46.24793" lon="6.26835">
        <ele>513.18</ele>
        <time>2021-09-29T10:29:01Z</time>
      </trkpt>
      <trkpt lat="46.24786" lon="6.26809">
        <ele>512.58</ele>
        <time>2021-09-29T10:29:07Z</time>
      </trkpt>
      <trkpt lat="46.24779" lon="6.26783">
        <ele>512.3</ele>
        <time>2021-09-29T10:29:14Z</time>
      </trkpt>
      <trkpt lat="46.2477" lon="6.26757">
        <ele>512.14</ele>
        <time>2021-09-29T10:29:20Z</time>
      </trkpt>
      <trkpt lat="46.24762" lon="6.26732">
        <ele>512.04</ele>
        <time>2021-09-29T10:29:25Z</time>
      </trkpt>
      <trkpt lat="46.24753" lon="6.26706">
        <ele>511.94</ele>
        <time>2021-09-29T10:29:30Z</time>
      </trkpt>
      <trkpt lat="46.24741" lon="6.26682">
        <ele>511.82</ele>
        <time>2021-09-29T10:29:35Z</time>
      </trkpt>
      <trkpt lat="46.24729" lon="6.26657">
        <ele>511.68</ele>
        <time>2021-09-29T10:29:40Z</time>
      </trkpt>
      <trkpt lat="46.24717" lon="6.26635">
        <ele>511.56</ele>
        <time>2021-09-29T10:29:45Z</time>
      </trkpt>
      <trkpt lat="46.24703" lon="6.26612">
        <ele>511.35</ele>
        <time>2021-09-29T10:29:51Z</time>
      </trkpt>
      <trkpt lat="46.2469" lon="6.2659">
        <ele>511.27</ele>
        <time>2021-09-29T10:29:56Z</time>
      </trkpt>
      <trkpt lat="46.24675" lon="6.26568">
        <ele>511.21</ele>
        <time>2021-09-29T10:30:01Z</time>
      </trkpt>
      <trkpt lat="46.2466" lon="6.26548">
        <ele>511.06</ele>
        <time>2021-09-29T10:30:08Z</time>
      </trkpt>
      <trkpt lat="46.24643" lon="6.2653">
        <ele>510.83</ele>
        <time>2021-09-29T10:30:14Z</time>
      </trkpt>
      <trkpt lat="46.24626" lon="6.26515">
        <ele>510.79</ele>
        <time>2021-09-29T10:30:19Z</time>
      </trkpt>
      <trkpt lat="46.24606" lon="6.265">
        <ele>510.82</ele>
        <time>2021-09-29T10:30:25Z</time>
      </trkpt>
      <trkpt lat="46.2459" lon="6.26487">
        <ele>510.93</ele>
        <time>2021-09-29T10:30:30Z</time>
      </trkpt>
      <trkpt lat="46.24574" lon="6.26472">
        <ele>510.69</ele>
        <time>2021-09-29T10:30:38Z</time>
      </trkpt>
      <trkpt lat="46.24583" lon="6.26479">
        <ele>510.18</ele>
        <time>2021-09-29T10:31:08Z</time>
      </trkpt>
      <trkpt lat="46.24601" lon="6.26492">
        <ele>510.87</ele>
        <time>2021-09-29T10:31:17Z</time>
      </trkpt>
      <trkpt lat="46.24619" lon="6.26507">
        <ele>511.07</ele>
        <time>2021-09-29T10:31:27Z</time>
      </trkpt>
      <trkpt lat="46.24639" lon="6.26526">
        <ele>511.09</ele>
        <time>2021-09-29T10:31:35Z</time>
      </trkpt>
      <trkpt lat="46.24656" lon="6.26543">
        <ele>511.03</ele>
        <time>2021-09-29T10:31:41Z</time>
      </trkpt>
      <trkpt lat="46.24673" lon="6.26546">
        <ele>511.03</ele>
        <time>2021-09-29T10:31:50Z</time>
      </trkpt>
      <trkpt lat="46.24687" lon="6.26524">
        <ele>510.93</ele>
        <time>2021-09-29T10:31:59Z</time>
      </trkpt>
      <trkpt lat="46.24701" lon="6.26497">
        <ele>511.06</ele>
        <time>2021-09-29T10:32:05Z</time>
      </trkpt>
      <trkpt lat="46.24714" lon="6.26472">
        <ele>511.14</ele>
        <time>2021-09-29T10:32:09Z</time>
      </trkpt>
      <trkpt lat="46.24729" lon="6.26446">
        <ele>511.32</ele>
        <time>2021-09-29T10:32:13Z</time>
      </trkpt>
      <trkpt lat="46.24742" lon="6.26426">
        <ele>511.41</ele>
        <time>2021-09-29T10:32:17Z</time>
      </trkpt>
      <trkpt lat="46.24756" lon="6.26404">
        <ele>511.34</ele>
        <time>2021-09-29T10:32:23Z</time>
      </trkpt>
      <trkpt lat="46.24766" lon="6.26384">
        <ele>511.26</ele>
        <time>2021-09-29T10:32:28Z</time>
      </trkpt>
      <trkpt lat="46.24778" lon="6.26362">
        <ele>511.31</ele>
        <time>2021-09-29T10:32:33Z</time>
      </trkpt>
      <trkpt lat="46.24789" lon="6.26342">
        <ele>511.34</ele>
        <time>2021-09-29T10:32:38Z</time>
      </trkpt>
      <trkpt lat="46.24801" lon="6.2632">
        <ele>511.35</ele>
        <time>2021-09-29T10:32:43Z</time>
      </trkpt>
      <trkpt lat="46.24815" lon="6.26297">
        <ele>511.71</ele>
        <time>2021-09-29T10:32:48Z</time>
      </trkpt>
      <trkpt lat="46.24826" lon="6.26277">
        <ele>512.38</ele>
        <time>2021-09-29T10:32:56Z</time>
      </trkpt>
      <trkpt lat="46.24844" lon="6.26282">
        <ele>512.99</ele>
        <time>2021-09-29T10:33:33Z</time>
      </trkpt>
      <trkpt lat="46.24861" lon="6.26293">
        <ele>512.93</ele>
        <time>2021-09-29T10:33:38Z</time>
      </trkpt>
      <trkpt lat="46.2488" lon="6.26294">
        <ele>513.08</ele>
        <time>2021-09-29T10:33:44Z</time>
      </trkpt>
      <trkpt lat="46.24888" lon="6.26265">
        <ele>513.33</ele>
        <time>2021-09-29T10:33:50Z</time>
      </trkpt>
      <trkpt lat="46.24895" lon="6.26234">
        <ele>513.81</ele>
        <time>2021-09-29T10:33:55Z</time>
      </trkpt>
      <trkpt lat="46.24901" lon="6.26206">
        <ele>514.18</ele>
        <time>2021-09-29T10:33:59Z</time>
      </trkpt>
      <trkpt lat="46.24908" lon="6.26178">
        <ele>514.16</ele>
        <time>2021-09-29T10:34:03Z</time>
      </trkpt>
      <trkpt lat="46.24914" lon="6.2615">
        <ele>513.81</ele>
        <time>2021-09-29T10:34:07Z</time>
      </trkpt>
      <trkpt lat="46.2492" lon="6.26124">
        <ele>513.34</ele>
        <time>2021-09-29T10:34:11Z</time>
      </trkpt>
      <trkpt lat="46.24926" lon="6.26099">
        <ele>513.21</ele>
        <time>2021-09-29T10:34:15Z</time>
      </trkpt>
      <trkpt lat="46.24933" lon="6.26073">
        <ele>512.73</ele>
        <time>2021-09-29T10:34:19Z</time>
      </trkpt>
      <trkpt lat="46.24939" lon="6.26048">
        <ele>512.25</ele>
        <time>2021-09-29T10:34:23Z</time>
      </trkpt>
      <trkpt lat="46.24946" lon="6.26021">
        <ele>511.85</ele>
        <time>2021-09-29T10:34:27Z</time>
      </trkpt>
      <trkpt lat="46.24951" lon="6.25995">
        <ele>511.4</ele>
        <time>2021-09-29T10:34:31Z</time>
      </trkpt>
      <trkpt lat="46.24958" lon="6.2597">
        <ele>510.88</ele>
        <time>2021-09-29T10:34:35Z</time>
      </trkpt>
      <trkpt lat="46.24963" lon="6.25944">
        <ele>510.57</ele>
        <time>2021-09-29T10:34:39Z</time>
      </trkpt>
      <trkpt lat="46.2497" lon="6.25914">
        <ele>509.95</ele>
        <time>2021-09-29T10:34:44Z</time>
      </trkpt>
      <trkpt lat="46.24983" lon="6.25892">
        <ele>509.12</ele>
        <time>2021-09-29T10:34:49Z</time>
      </trkpt>
      <trkpt lat="46.25002" lon="6.25901">
        <ele>508.55</ele>
        <time>2021-09-29T10:34:54Z</time>
      </trkpt>
      <trkpt lat="46.25019" lon="6.25913">
        <ele>508.24</ele>
        <time>2021-09-29T10:34:59Z</time>
      </trkpt>
      <trkpt lat="46.25039" lon="6.2593">
        <ele>508.14</ele>
        <time>2021-09-29T10:35:04Z</time>
      </trkpt>
      <trkpt lat="46.25059" lon="6.25942">
        <ele>508.17</ele>
        <time>2021-09-29T10:35:08Z</time>
      </trkpt>
      <trkpt lat="46.25075" lon="6.25953">
        <ele>508.2</ele>
        <time>2021-09-29T10:35:12Z</time>
      </trkpt>
      <trkpt lat="46.25093" lon="6.25967">
        <ele>508.31</ele>
        <time>2021-09-29T10:35:17Z</time>
      </trkpt>
      <trkpt lat="46.25111" lon="6.25979">
        <ele>508.69</ele>
        <time>2021-09-29T10:35:23Z</time>
      </trkpt>
      <trkpt lat="46.25127" lon="6.25992">
        <ele>509</ele>
        <time>2021-09-29T10:35:28Z</time>
      </trkpt>
      <trkpt lat="46.25144" lon="6.26004">
        <ele>509.33</ele>
        <time>2021-09-29T10:35:33Z</time>
      </trkpt>
      <trkpt lat="46.25163" lon="6.26013">
        <ele>509.84</ele>
        <time>2021-09-29T10:35:39Z</time>
      </trkpt>
      <trkpt lat="46.25168" lon="6.26037">
        <ele>510.08</ele>
        <time>2021-09-29T10:35:47Z</time>
      </trkpt>
      <trkpt lat="46.25159" lon="6.26062">
        <ele>510.32</ele>
        <time>2021-09-29T10:35:52Z</time>
      </trkpt>
      <trkpt lat="46.25152" lon="6.26087">
        <ele>510.52</ele>
        <time>2021-09-29T10:35:56Z</time>
      </trkpt>
      <trkpt lat="46.25143" lon="6.26115">
        <ele>510.8</ele>
        <time>2021-09-29T10:36:00Z</time>
      </trkpt>
      <trkpt lat="46.25135" lon="6.2614">
        <ele>510.74</ele>
        <time>2021-09-29T10:36:04Z</time>
      </trkpt>
      <trkpt lat="46.25129" lon="6.26169">
        <ele>510.47</ele>
        <time>2021-09-29T10:36:09Z</time>
      </trkpt>
      <trkpt lat="46.25125" lon="6.26195">
        <ele>510.13</ele>
        <time>2021-09-29T10:36:17Z</time>
      </trkpt>
      <trkpt lat="46.25119" lon="6.26223">
        <ele>510.29</ele>
        <time>2021-09-29T10:36:25Z</time>
      </trkpt>
      <trkpt lat="46.25114" lon="6.26251">
        <ele>510.34</ele>
        <time>2021-09-29T10:36:31Z</time>
      </trkpt>
      <trkpt lat="46.25108" lon="6.26276">
        <ele>510.33</ele>
        <time>2021-09-29T10:36:36Z</time>
      </trkpt>
      <trkpt lat="46.25097" lon="6.26302">
        <ele>510.78</ele>
        <time>2021-09-29T10:36:43Z</time>
      </trkpt>
      <trkpt lat="46.25083" lon="6.26322">
        <ele>511.88</ele>
        <time>2021-09-29T10:36:51Z</time>
      </trkpt>
      <trkpt lat="46.25069" lon="6.26341">
        <ele>512.7</ele>
        <time>2021-09-29T10:36:59Z</time>
      </trkpt>
      <trkpt lat="46.25056" lon="6.26359">
        <ele>513.34</ele>
        <time>2021-09-29T10:37:06Z</time>
      </trkpt>
      <trkpt lat="46.25044" lon="6.26378">
        <ele>513.9</ele>
        <time>2021-09-29T10:37:14Z</time>
      </trkpt>
      <trkpt lat="46.2503" lon="6.264">
        <ele>514.22</ele>
        <time>2021-09-29T10:37:22Z</time>
      </trkpt>
      <trkpt lat="46.25012" lon="6.26398">
        <ele>514.35</ele>
        <time>2021-09-29T10:37:30Z</time>
      </trkpt>
      <trkpt lat="46.24991" lon="6.26384">
        <ele>514.93</ele>
        <time>2021-09-29T10:37:36Z</time>
      </trkpt>
      <trkpt lat="46.24972" lon="6.2637">
        <ele>515.32</ele>
        <time>2021-09-29T10:37:40Z</time>
      </trkpt>
      <trkpt lat="46.24953" lon="6.26357">
        <ele>515.34</ele>
        <time>2021-09-29T10:37:45Z</time>
      </trkpt>
      <trkpt lat="46.24936" lon="6.26345">
        <ele>515.16</ele>
        <time>2021-09-29T10:37:51Z</time>
      </trkpt>
      <trkpt lat="46.24917" lon="6.26331">
        <ele>514.87</ele>
        <time>2021-09-29T10:37:56Z</time>
      </trkpt>
      <trkpt lat="46.249" lon="6.26319">
        <ele>514.69</ele>
        <time>2021-09-29T10:38:01Z</time>
      </trkpt>
      <trkpt lat="46.24882" lon="6.26307">
        <ele>514.14</ele>
        <time>2021-09-29T10:38:07Z</time>
      </trkpt>
      <trkpt lat="46.24862" lon="6.26293">
        <ele>513.9</ele>
        <time>2021-09-29T10:38:13Z</time>
      </trkpt>
      <trkpt lat="46.24845" lon="6.26282">
        <ele>513.9</ele>
        <time>2021-09-29T10:38:17Z</time>
      </trkpt>
      <trkpt lat="46.24828" lon="6.26277">
        <ele>513.9</ele>
        <time>2021-09-29T10:38:21Z</time>
      </trkpt>
      <trkpt lat="46.24814" lon="6.26301">
        <ele>513.9</ele>
        <time>2021-09-29T10:38:26Z</time>
      </trkpt>
      <trkpt lat="46.24801" lon="6.26326">
        <ele>513.9</ele>
        <time>2021-09-29T10:38:31Z</time>
      </trkpt>
      <trkpt lat="46.24789" lon="6.26348">
        <ele>513.9</ele>
        <time>2021-09-29T10:38:36Z</time>
      </trkpt>
      <trkpt lat="46.24776" lon="6.2637">
        <ele>513.9</ele>
        <time>2021-09-29T10:38:42Z</time>
      </trkpt>
      <trkpt lat="46.24764" lon="6.26393">
        <ele>513.9</ele>
        <time>2021-09-29T10:38:47Z</time>
      </trkpt>
      <trkpt lat="46.2475" lon="6.26418">
        <ele>513.9</ele>
        <time>2021-09-29T10:38:52Z</time>
      </trkpt>
      <trkpt lat="46.24736" lon="6.2644">
        <ele>513.9</ele>
        <time>2021-09-29T10:38:57Z</time>
      </trkpt>
      <trkpt lat="46.24723" lon="6.26461">
        <ele>513.9</ele>
        <time>2021-09-29T10:39:03Z</time>
      </trkpt>
      <trkpt lat="46.24711" lon="6.26482">
        <ele>513.9</ele>
        <time>2021-09-29T10:39:08Z</time>
      </trkpt>
      <trkpt lat="46.24697" lon="6.26506">
        <ele>513.9</ele>
        <time>2021-09-29T10:39:13Z</time>
      </trkpt>
      <trkpt lat="46.24685" lon="6.26527">
        <ele>513.9</ele>
        <time>2021-09-29T10:39:19Z</time>
      </trkpt>
      <trkpt lat="46.24674" lon="6.26552">
        <ele>513.9</ele>
        <time>2021-09-29T10:39:30Z</time>
      </trkpt>
      <trkpt lat="46.24683" lon="6.26577">
        <ele>513.9</ele>
        <time>2021-09-29T10:39:37Z</time>
      </trkpt>
      <trkpt lat="46.24698" lon="6.26599">
        <ele>513.9</ele>
        <time>2021-09-29T10:39:41Z</time>
      </trkpt>
      <trkpt lat="46.24713" lon="6.26624">
        <ele>513.9</ele>
        <time>2021-09-29T10:39:45Z</time>
      </trkpt>
      <trkpt lat="46.24727" lon="6.26648">
        <ele>513.9</ele>
        <time>2021-09-29T10:39:49Z</time>
      </trkpt>
      <trkpt lat="46.24738" lon="6.2667">
        <ele>513.9</ele>
        <time>2021-09-29T10:39:53Z</time>
      </trkpt>
      <trkpt lat="46.2475" lon="6.26694">
        <ele>513.9</ele>
        <time>2021-09-29T10:39:58Z</time>
      </trkpt>
      <trkpt lat="46.2476" lon="6.26718">
        <ele>513.9</ele>
        <time>2021-09-29T10:40:02Z</time>
      </trkpt>
      <trkpt lat="46.24769" lon="6.26746">
        <ele>513.9</ele>
        <time>2021-09-29T10:40:06Z</time>
      </trkpt>
      <trkpt lat="46.24778" lon="6.26774">
        <ele>513.9</ele>
        <time>2021-09-29T10:40:10Z</time>
      </trkpt>
      <trkpt lat="46.24787" lon="6.26806">
        <ele>513.9</ele>
        <time>2021-09-29T10:40:14Z</time>
      </trkpt>
      <trkpt lat="46.24795" lon="6.26837">
        <ele>513.9</ele>
        <time>2021-09-29T10:40:18Z</time>
      </trkpt>
      <trkpt lat="46.24802" lon="6.26861">
        <ele>513.9</ele>
        <time>2021-09-29T10:40:22Z</time>
      </trkpt>
      <trkpt lat="46.2481" lon="6.26888">
        <ele>513.9</ele>
        <time>2021-09-29T10:40:27Z</time>
      </trkpt>
      <trkpt lat="46.24816" lon="6.26915">
        <ele>513.9</ele>
        <time>2021-09-29T10:40:32Z</time>
      </trkpt>
      <trkpt lat="46.24824" lon="6.26943">
        <ele>513.9</ele>
        <time>2021-09-29T10:40:37Z</time>
      </trkpt>
      <trkpt lat="46.24829" lon="6.26968">
        <ele>513.9</ele>
        <time>2021-09-29T10:40:41Z</time>
      </trkpt>
      <trkpt lat="46.24838" lon="6.26994">
        <ele>513.9</ele>
        <time>2021-09-29T10:40:45Z</time>
      </trkpt>
      <trkpt lat="46.24851" lon="6.2702">
        <ele>513.9</ele>
        <time>2021-09-29T10:40:49Z</time>
      </trkpt>
      <trkpt lat="46.24866" lon="6.27047">
        <ele>513.9</ele>
        <time>2021-09-29T10:40:53Z</time>
      </trkpt>
      <trkpt lat="46.24876" lon="6.27074">
        <ele>513.9</ele>
        <time>2021-09-29T10:40:57Z</time>
      </trkpt>
      <trkpt lat="46.24888" lon="6.27102">
        <ele>513.9</ele>
        <time>2021-09-29T10:41:02Z</time>
      </trkpt>
      <trkpt lat="46.249" lon="6.27128">
        <ele>513.9</ele>
        <time>2021-09-29T10:41:08Z</time>
      </trkpt>
      <trkpt lat="46.2491" lon="6.27155">
        <ele>513.9</ele>
        <time>2021-09-29T10:41:13Z</time>
      </trkpt>
      <trkpt lat="46.24918" lon="6.27184">
        <ele>513.9</ele>
        <time>2021-09-29T10:41:17Z</time>
      </trkpt>
      <trkpt lat="46.24924" lon="6.27212">
        <ele>513.9</ele>
        <time>2021-09-29T10:41:21Z</time>
      </trkpt>
      <trkpt lat="46.2493" lon="6.2724">
        <ele>513.9</ele>
        <time>2021-09-29T10:41:26Z</time>
      </trkpt>
      <trkpt lat="46.24939" lon="6.2727">
        <ele>513.9</ele>
        <time>2021-09-29T10:41:32Z</time>
      </trkpt>
      <trkpt lat="46.24948" lon="6.27294">
        <ele>513.9</ele>
        <time>2021-09-29T10:41:37Z</time>
      </trkpt>
      <trkpt lat="46.24959" lon="6.2732">
        <ele>513.9</ele>
        <time>2021-09-29T10:41:43Z</time>
      </trkpt>
      <trkpt lat="46.24971" lon="6.27349">
        <ele>513.9</ele>
        <time>2021-09-29T10:41:48Z</time>
      </trkpt>
      <trkpt lat="46.24987" lon="6.27373">
        <ele>513.9</ele>
        <time>2021-09-29T10:41:52Z</time>
      </trkpt>
      <trkpt lat="46.24999" lon="6.27404">
        <ele>513.9</ele>
        <time>2021-09-29T10:41:56Z</time>
      </trkpt>
      <trkpt lat="46.25006" lon="6.27432">
        <ele>513.9</ele>
        <time>2021-09-29T10:42:00Z</time>
      </trkpt>
      <trkpt lat="46.25016" lon="6.27455">
        <ele>513.9</ele>
        <time>2021-09-29T10:42:05Z</time>
      </trkpt>
      <trkpt lat="46.25027" lon="6.27478">
        <ele>515.85</ele>
        <time>2021-09-29T10:42:12Z</time>
      </trkpt>
      <trkpt lat="46.25024" lon="6.27505">
        <ele>517.59</ele>
        <time>2021-09-29T10:42:21Z</time>
      </trkpt>
      <trkpt lat="46.25009" lon="6.27525">
        <ele>517.8</ele>
        <time>2021-09-29T10:42:28Z</time>
      </trkpt>
      <trkpt lat="46.24994" lon="6.27545">
        <ele>517.86</ele>
        <time>2021-09-29T10:42:35Z</time>
      </trkpt>
      <trkpt lat="46.24978" lon="6.27565">
        <ele>518.33</ele>
        <time>2021-09-29T10:42:41Z</time>
      </trkpt>
      <trkpt lat="46.24965" lon="6.27584">
        <ele>518.84</ele>
        <time>2021-09-29T10:42:46Z</time>
      </trkpt>
      <trkpt lat="46.24951" lon="6.27602">
        <ele>519.15</ele>
        <time>2021-09-29T10:42:52Z</time>
      </trkpt>
      <trkpt lat="46.24937" lon="6.27621">
        <ele>519.39</ele>
        <time>2021-09-29T10:42:58Z</time>
      </trkpt>
      <trkpt lat="46.24922" lon="6.27642">
        <ele>519.95</ele>
        <time>2021-09-29T10:43:04Z</time>
      </trkpt>
      <trkpt lat="46.24909" lon="6.2766">
        <ele>520.34</ele>
        <time>2021-09-29T10:43:09Z</time>
      </trkpt>
      <trkpt lat="46.24894" lon="6.2768">
        <ele>520.53</ele>
        <time>2021-09-29T10:43:16Z</time>
      </trkpt>
      <trkpt lat="46.2488" lon="6.27698">
        <ele>520.78</ele>
        <time>2021-09-29T10:43:22Z</time>
      </trkpt>
      <trkpt lat="46.24866" lon="6.27717">
        <ele>521.15</ele>
        <time>2021-09-29T10:43:29Z</time>
      </trkpt>
      <trkpt lat="46.24853" lon="6.27734">
        <ele>521.55</ele>
        <time>2021-09-29T10:43:35Z</time>
      </trkpt>
      <trkpt lat="46.24838" lon="6.27753">
        <ele>522.12</ele>
        <time>2021-09-29T10:43:42Z</time>
      </trkpt>
      <trkpt lat="46.24825" lon="6.27772">
        <ele>522.43</ele>
        <time>2021-09-29T10:43:51Z</time>
      </trkpt>
      <trkpt lat="46.2481" lon="6.2779">
        <ele>522.94</ele>
        <time>2021-09-29T10:44:24Z</time>
      </trkpt>
      <trkpt lat="46.24794" lon="6.27809">
        <ele>523.23</ele>
        <time>2021-09-29T10:44:30Z</time>
      </trkpt>
      <trkpt lat="46.2478" lon="6.27827">
        <ele>523.49</ele>
        <time>2021-09-29T10:44:36Z</time>
      </trkpt>
      <trkpt lat="46.24766" lon="6.27845">
        <ele>523.62</ele>
        <time>2021-09-29T10:44:42Z</time>
      </trkpt>
      <trkpt lat="46.24751" lon="6.27864">
        <ele>523.94</ele>
        <time>2021-09-29T10:44:48Z</time>
      </trkpt>
      <trkpt lat="46.24735" lon="6.27883">
        <ele>524.33</ele>
        <time>2021-09-29T10:44:54Z</time>
      </trkpt>
      <trkpt lat="46.24722" lon="6.27901">
        <ele>524.6</ele>
        <time>2021-09-29T10:44:59Z</time>
      </trkpt>
      <trkpt lat="46.24707" lon="6.27919">
        <ele>525.06</ele>
        <time>2021-09-29T10:45:07Z</time>
      </trkpt>
      <trkpt lat="46.24693" lon="6.27937">
        <ele>525.18</ele>
        <time>2021-09-29T10:45:13Z</time>
      </trkpt>
      <trkpt lat="46.24678" lon="6.27956">
        <ele>525.58</ele>
        <time>2021-09-29T10:45:19Z</time>
      </trkpt>
      <trkpt lat="46.24663" lon="6.27975">
        <ele>526.11</ele>
        <time>2021-09-29T10:45:26Z</time>
      </trkpt>
      <trkpt lat="46.24648" lon="6.27993">
        <ele>526.54</ele>
        <time>2021-09-29T10:45:32Z</time>
      </trkpt>
      <trkpt lat="46.24632" lon="6.28012">
        <ele>527.18</ele>
        <time>2021-09-29T10:45:40Z</time>
      </trkpt>
      <trkpt lat="46.24618" lon="6.28029">
        <ele>527.62</ele>
        <time>2021-09-29T10:45:46Z</time>
      </trkpt>
      <trkpt lat="46.24603" lon="6.28046">
        <ele>528.06</ele>
        <time>2021-09-29T10:45:52Z</time>
      </trkpt>
      <trkpt lat="46.24587" lon="6.28065">
        <ele>528.63</ele>
        <time>2021-09-29T10:46:00Z</time>
      </trkpt>
      <trkpt lat="46.24572" lon="6.28084">
        <ele>528.79</ele>
        <time>2021-09-29T10:46:07Z</time>
      </trkpt>
      <trkpt lat="46.24556" lon="6.28103">
        <ele>529.19</ele>
        <time>2021-09-29T10:46:14Z</time>
      </trkpt>
      <trkpt lat="46.24541" lon="6.28117">
        <ele>529.82</ele>
        <time>2021-09-29T10:46:21Z</time>
      </trkpt>
      <trkpt lat="46.24532" lon="6.28135">
        <ele>530.36</ele>
        <time>2021-09-29T10:47:23Z</time>
      </trkpt>
      <trkpt lat="46.24547" lon="6.28157">
        <ele>529.92</ele>
        <time>2021-09-29T10:47:32Z</time>
      </trkpt>
      <trkpt lat="46.24559" lon="6.28178">
        <ele>529.88</ele>
        <time>2021-09-29T10:47:37Z</time>
      </trkpt>
      <trkpt lat="46.24571" lon="6.282">
        <ele>530.03</ele>
        <time>2021-09-29T10:47:44Z</time>
      </trkpt>
      <trkpt lat="46.24583" lon="6.28221">
        <ele>530.04</ele>
        <time>2021-09-29T10:47:53Z</time>
      </trkpt>
      <trkpt lat="46.24596" lon="6.28242">
        <ele>530.01</ele>
        <time>2021-09-29T10:48:04Z</time>
      </trkpt>
      <trkpt lat="46.24616" lon="6.28238">
        <ele>529.8</ele>
        <time>2021-09-29T10:48:13Z</time>
      </trkpt>
      <trkpt lat="46.24632" lon="6.2822">
        <ele>529.71</ele>
        <time>2021-09-29T10:48:22Z</time>
      </trkpt>
      <trkpt lat="46.24644" lon="6.28199">
        <ele>529.62</ele>
        <time>2021-09-29T10:48:29Z</time>
      </trkpt>
      <trkpt lat="46.24656" lon="6.28178">
        <ele>529.23</ele>
        <time>2021-09-29T10:48:38Z</time>
      </trkpt>
      <trkpt lat="46.2467" lon="6.28155">
        <ele>528.71</ele>
        <time>2021-09-29T10:48:46Z</time>
      </trkpt>
      <trkpt lat="46.24683" lon="6.28135">
        <ele>528.4</ele>
        <time>2021-09-29T10:48:52Z</time>
      </trkpt>
      <trkpt lat="46.24696" lon="6.28114">
        <ele>527.75</ele>
        <time>2021-09-29T10:49:00Z</time>
      </trkpt>
      <trkpt lat="46.24708" lon="6.28094">
        <ele>527.37</ele>
        <time>2021-09-29T10:49:05Z</time>
      </trkpt>
      <trkpt lat="46.24721" lon="6.28075">
        <ele>527.03</ele>
        <time>2021-09-29T10:49:09Z</time>
      </trkpt>
      <trkpt lat="46.24733" lon="6.28056">
        <ele>526.56</ele>
        <time>2021-09-29T10:49:14Z</time>
      </trkpt>
      <trkpt lat="46.24748" lon="6.28037">
        <ele>526.02</ele>
        <time>2021-09-29T10:49:21Z</time>
      </trkpt>
      <trkpt lat="46.24764" lon="6.28016">
        <ele>525.7</ele>
        <time>2021-09-29T10:49:26Z</time>
      </trkpt>
      <trkpt lat="46.2478" lon="6.27994">
        <ele>525.33</ele>
        <time>2021-09-29T10:49:31Z</time>
      </trkpt>
      <trkpt lat="46.24793" lon="6.27975">
        <ele>524.77</ele>
        <time>2021-09-29T10:49:36Z</time>
      </trkpt>
      <trkpt lat="46.24808" lon="6.27956">
        <ele>523.94</ele>
        <time>2021-09-29T10:49:42Z</time>
      </trkpt>
      <trkpt lat="46.24822" lon="6.27937">
        <ele>523.55</ele>
        <time>2021-09-29T10:49:46Z</time>
      </trkpt>
      <trkpt lat="46.24837" lon="6.27917">
        <ele>523.33</ele>
        <time>2021-09-29T10:49:51Z</time>
      </trkpt>
      <trkpt lat="46.2485" lon="6.27899">
        <ele>522.83</ele>
        <time>2021-09-29T10:49:58Z</time>
      </trkpt>
      <trkpt lat="46.24864" lon="6.27881">
        <ele>522.3</ele>
        <time>2021-09-29T10:50:04Z</time>
      </trkpt>
      <trkpt lat="46.24879" lon="6.27869">
        <ele>521.85</ele>
        <time>2021-09-29T10:50:14Z</time>
      </trkpt>
      <trkpt lat="46.24896" lon="6.27847">
        <ele>521.66</ele>
        <time>2021-09-29T10:50:21Z</time>
      </trkpt>
      <trkpt lat="46.24909" lon="6.27828">
        <ele>521.66</ele>
        <time>2021-09-29T10:50:25Z</time>
      </trkpt>
      <trkpt lat="46.24923" lon="6.2781">
        <ele>521.6</ele>
        <time>2021-09-29T10:50:29Z</time>
      </trkpt>
      <trkpt lat="46.2494" lon="6.27788">
        <ele>521.25</ele>
        <time>2021-09-29T10:50:34Z</time>
      </trkpt>
      <trkpt lat="46.24955" lon="6.27769">
        <ele>521.12</ele>
        <time>2021-09-29T10:50:39Z</time>
      </trkpt>
      <trkpt lat="46.24971" lon="6.27749">
        <ele>520.83</ele>
        <time>2021-09-29T10:50:45Z</time>
      </trkpt>
      <trkpt lat="46.24985" lon="6.27732">
        <ele>520.31</ele>
        <time>2021-09-29T10:50:51Z</time>
      </trkpt>
      <trkpt lat="46.25003" lon="6.2772">
        <ele>519.91</ele>
        <time>2021-09-29T10:50:58Z</time>
      </trkpt>
      <trkpt lat="46.25016" lon="6.27742">
        <ele>519.41</ele>
        <time>2021-09-29T10:51:07Z</time>
      </trkpt>
      <trkpt lat="46.25028" lon="6.27768">
        <ele>519.52</ele>
        <time>2021-09-29T10:51:15Z</time>
      </trkpt>
      <trkpt lat="46.25042" lon="6.27796">
        <ele>519.63</ele>
        <time>2021-09-29T10:51:20Z</time>
      </trkpt>
      <trkpt lat="46.25054" lon="6.27823">
        <ele>519.71</ele>
        <time>2021-09-29T10:51:25Z</time>
      </trkpt>
      <trkpt lat="46.25064" lon="6.27847">
        <ele>519.67</ele>
        <time>2021-09-29T10:51:30Z</time>
      </trkpt>
      <trkpt lat="46.25076" lon="6.27874">
        <ele>519.51</ele>
        <time>2021-09-29T10:51:36Z</time>
      </trkpt>
      <trkpt lat="46.25089" lon="6.27896">
        <ele>519.4</ele>
        <time>2021-09-29T10:51:41Z</time>
      </trkpt>
      <trkpt lat="46.25105" lon="6.27921">
        <ele>519.38</ele>
        <time>2021-09-29T10:51:46Z</time>
      </trkpt>
      <trkpt lat="46.25119" lon="6.27944">
        <ele>519.43</ele>
        <time>2021-09-29T10:51:50Z</time>
      </trkpt>
      <trkpt lat="46.25133" lon="6.27973">
        <ele>519.62</ele>
        <time>2021-09-29T10:51:55Z</time>
      </trkpt>
      <trkpt lat="46.25141" lon="6.28003">
        <ele>519.68</ele>
        <time>2021-09-29T10:52:01Z</time>
      </trkpt>
      <trkpt lat="46.25142" lon="6.28032">
        <ele>519.61</ele>
        <time>2021-09-29T10:52:06Z</time>
      </trkpt>
      <trkpt lat="46.25142" lon="6.28063">
        <ele>519.58</ele>
        <time>2021-09-29T10:52:11Z</time>
      </trkpt>
      <trkpt lat="46.25149" lon="6.28092">
        <ele>519.85</ele>
        <time>2021-09-29T10:52:16Z</time>
      </trkpt>
      <trkpt lat="46.25165" lon="6.28111">
        <ele>519.94</ele>
        <time>2021-09-29T10:52:22Z</time>
      </trkpt>
      <trkpt lat="46.25181" lon="6.28126">
        <ele>520.03</ele>
        <time>2021-09-29T10:52:27Z</time>
      </trkpt>
      <trkpt lat="46.25198" lon="6.28146">
        <ele>520.07</ele>
        <time>2021-09-29T10:52:32Z</time>
      </trkpt>
      <trkpt lat="46.25215" lon="6.28165">
        <ele>520.15</ele>
        <time>2021-09-29T10:52:36Z</time>
      </trkpt>
      <trkpt lat="46.25231" lon="6.28185">
        <ele>520.5</ele>
        <time>2021-09-29T10:52:40Z</time>
      </trkpt>
      <trkpt lat="46.25247" lon="6.28206">
        <ele>520.7</ele>
        <time>2021-09-29T10:52:45Z</time>
      </trkpt>
      <trkpt lat="46.25262" lon="6.28224">
        <ele>520.64</ele>
        <time>2021-09-29T10:52:51Z</time>
      </trkpt>
      <trkpt lat="46.25278" lon="6.2824">
        <ele>520.21</ele>
        <time>2021-09-29T10:52:57Z</time>
      </trkpt>
      <trkpt lat="46.25295" lon="6.28259">
        <ele>519.9</ele>
        <time>2021-09-29T10:53:25Z</time>
      </trkpt>
      <trkpt lat="46.25311" lon="6.28278">
        <ele>519.9</ele>
        <time>2021-09-29T10:53:31Z</time>
      </trkpt>
      <trkpt lat="46.25326" lon="6.28301">
        <ele>519.9</ele>
        <time>2021-09-29T10:53:36Z</time>
      </trkpt>
      <trkpt lat="46.2534" lon="6.2832">
        <ele>519.9</ele>
        <time>2021-09-29T10:53:40Z</time>
      </trkpt>
      <trkpt lat="46.25355" lon="6.28342">
        <ele>519.9</ele>
        <time>2021-09-29T10:53:45Z</time>
      </trkpt>
      <trkpt lat="46.25369" lon="6.2836">
        <ele>519.9</ele>
        <time>2021-09-29T10:53:50Z</time>
      </trkpt>
      <trkpt lat="46.25384" lon="6.28379">
        <ele>519.9</ele>
        <time>2021-09-29T10:53:56Z</time>
      </trkpt>
      <trkpt lat="46.25399" lon="6.28398">
        <ele>519.9</ele>
        <time>2021-09-29T10:54:02Z</time>
      </trkpt>
      <trkpt lat="46.25414" lon="6.28422">
        <ele>519.9</ele>
        <time>2021-09-29T10:54:09Z</time>
      </trkpt>
      <trkpt lat="46.25432" lon="6.28445">
        <ele>519.9</ele>
        <time>2021-09-29T10:54:16Z</time>
      </trkpt>
      <trkpt lat="46.25447" lon="6.28468">
        <ele>519.9</ele>
        <time>2021-09-29T10:54:21Z</time>
      </trkpt>
      <trkpt lat="46.25463" lon="6.28492">
        <ele>523.51</ele>
        <time>2021-09-29T10:54:26Z</time>
      </trkpt>
      <trkpt lat="46.25478" lon="6.28513">
        <ele>523.61</ele>
        <time>2021-09-29T10:54:32Z</time>
      </trkpt>
      <trkpt lat="46.25492" lon="6.28535">
        <ele>523.79</ele>
        <time>2021-09-29T10:54:38Z</time>
      </trkpt>
      <trkpt lat="46.25508" lon="6.28556">
        <ele>523.58</ele>
        <time>2021-09-29T10:55:38Z</time>
      </trkpt>
      <trkpt lat="46.25521" lon="6.28579">
        <ele>523.58</ele>
        <time>2021-09-29T10:55:47Z</time>
      </trkpt>
      <trkpt lat="46.25532" lon="6.28605">
        <ele>523.58</ele>
        <time>2021-09-29T10:55:52Z</time>
      </trkpt>
      <trkpt lat="46.2554" lon="6.28632">
        <ele>523.58</ele>
        <time>2021-09-29T10:55:56Z</time>
      </trkpt>
      <trkpt lat="46.25546" lon="6.28661">
        <ele>523.58</ele>
        <time>2021-09-29T10:56:01Z</time>
      </trkpt>
      <trkpt lat="46.25553" lon="6.2869">
        <ele>523.58</ele>
        <time>2021-09-29T10:56:07Z</time>
      </trkpt>
      <trkpt lat="46.25558" lon="6.28717">
        <ele>523.58</ele>
        <time>2021-09-29T10:56:12Z</time>
      </trkpt>
      <trkpt lat="46.25564" lon="6.28752">
        <ele>523.58</ele>
        <time>2021-09-29T10:56:17Z</time>
      </trkpt>
      <trkpt lat="46.25568" lon="6.28781">
        <ele>523.58</ele>
        <time>2021-09-29T10:56:21Z</time>
      </trkpt>
      <trkpt lat="46.25574" lon="6.2881">
        <ele>523.58</ele>
        <time>2021-09-29T10:56:26Z</time>
      </trkpt>
      <trkpt lat="46.25581" lon="6.28839">
        <ele>523.58</ele>
        <time>2021-09-29T10:56:32Z</time>
      </trkpt>
      <trkpt lat="46.25589" lon="6.28869">
        <ele>523.58</ele>
        <time>2021-09-29T10:56:37Z</time>
      </trkpt>
      <trkpt lat="46.25603" lon="6.28897">
        <ele>523.58</ele>
        <time>2021-09-29T10:56:42Z</time>
      </trkpt>
      <trkpt lat="46.25623" lon="6.28916">
        <ele>523.58</ele>
        <time>2021-09-29T10:56:47Z</time>
      </trkpt>
      <trkpt lat="46.2564" lon="6.2893">
        <ele>523.58</ele>
        <time>2021-09-29T10:56:52Z</time>
      </trkpt>
      <trkpt lat="46.2566" lon="6.28946">
        <ele>523.58</ele>
        <time>2021-09-29T10:56:58Z</time>
      </trkpt>
      <trkpt lat="46.25677" lon="6.28958">
        <ele>523.58</ele>
        <time>2021-09-29T10:57:03Z</time>
      </trkpt>
      <trkpt lat="46.25698" lon="6.28973">
        <ele>523.58</ele>
        <time>2021-09-29T10:57:08Z</time>
      </trkpt>
      <trkpt lat="46.25717" lon="6.28985">
        <ele>523.58</ele>
        <time>2021-09-29T10:57:12Z</time>
      </trkpt>
      <trkpt lat="46.25737" lon="6.28995">
        <ele>523.58</ele>
        <time>2021-09-29T10:57:17Z</time>
      </trkpt>
      <trkpt lat="46.25754" lon="6.29008">
        <ele>523.58</ele>
        <time>2021-09-29T10:57:22Z</time>
      </trkpt>
      <trkpt lat="46.25772" lon="6.29024">
        <ele>523.58</ele>
        <time>2021-09-29T10:57:27Z</time>
      </trkpt>
      <trkpt lat="46.25791" lon="6.29039">
        <ele>523.58</ele>
        <time>2021-09-29T10:57:31Z</time>
      </trkpt>
      <trkpt lat="46.25812" lon="6.29054">
        <ele>523.58</ele>
        <time>2021-09-29T10:57:35Z</time>
      </trkpt>
      <trkpt lat="46.2583" lon="6.29067">
        <ele>523.58</ele>
        <time>2021-09-29T10:57:39Z</time>
      </trkpt>
      <trkpt lat="46.25851" lon="6.29079">
        <ele>523.58</ele>
        <time>2021-09-29T10:57:44Z</time>
      </trkpt>
      <trkpt lat="46.25872" lon="6.29087">
        <ele>523.58</ele>
        <time>2021-09-29T10:58:04Z</time>
      </trkpt>
      <trkpt lat="46.25873" lon="6.29113">
        <ele>523.58</ele>
        <time>2021-09-29T10:59:12Z</time>
      </trkpt>
      <trkpt lat="46.25869" lon="6.29145">
        <ele>523.58</ele>
        <time>2021-09-29T10:59:19Z</time>
      </trkpt>
      <trkpt lat="46.25864" lon="6.29177">
        <ele>523.58</ele>
        <time>2021-09-29T10:59:24Z</time>
      </trkpt>
      <trkpt lat="46.25854" lon="6.29204">
        <ele>523.58</ele>
        <time>2021-09-29T10:59:29Z</time>
      </trkpt>
      <trkpt lat="46.25838" lon="6.29226">
        <ele>523.58</ele>
        <time>2021-09-29T10:59:35Z</time>
      </trkpt>
      <trkpt lat="46.2582" lon="6.29245">
        <ele>523.58</ele>
        <time>2021-09-29T10:59:41Z</time>
      </trkpt>
      <trkpt lat="46.25798" lon="6.29265">
        <ele>523.58</ele>
        <time>2021-09-29T10:59:48Z</time>
      </trkpt>
      <trkpt lat="46.25778" lon="6.29285">
        <ele>523.58</ele>
        <time>2021-09-29T10:59:54Z</time>
      </trkpt>
      <trkpt lat="46.25765" lon="6.2931">
        <ele>523.58</ele>
        <time>2021-09-29T11:00:01Z</time>
      </trkpt>
      <trkpt lat="46.25776" lon="6.29336">
        <ele>523.58</ele>
        <time>2021-09-29T11:00:13Z</time>
      </trkpt>
      <trkpt lat="46.25789" lon="6.29354">
        <ele>523.58</ele>
        <time>2021-09-29T11:00:27Z</time>
      </trkpt>
      <trkpt lat="46.25792" lon="6.29378">
        <ele>523.58</ele>
        <time>2021-09-29T11:00:43Z</time>
      </trkpt>
      <trkpt lat="46.25792" lon="6.29398">
        <ele>523.58</ele>
        <time>2021-09-29T11:00:55Z</time>
      </trkpt>
      <trkpt lat="46.25774" lon="6.29409">
        <ele>523.58</ele>
        <time>2021-09-29T11:01:03Z</time>
      </trkpt>
      <trkpt lat="46.25756" lon="6.29443">
        <ele>523.58</ele>
        <time>2021-09-29T11:01:48Z</time>
      </trkpt>
      <trkpt lat="46.25733" lon="6.29456">
        <ele>523.58</ele>
        <time>2021-09-29T11:01:58Z</time>
      </trkpt>
      <trkpt lat="46.25707" lon="6.29467">
        <ele>523.58</ele>
        <time>2021-09-29T11:02:10Z</time>
      </trkpt>
      <trkpt lat="46.25685" lon="6.29479">
        <ele>523.58</ele>
        <time>2021-09-29T11:02:19Z</time>
      </trkpt>
      <trkpt lat="46.25667" lon="6.2948">
        <ele>523.58</ele>
        <time>2021-09-29T11:02:30Z</time>
      </trkpt>
      <trkpt lat="46.25647" lon="6.29468">
        <ele>526.12</ele>
        <time>2021-09-29T11:02:42Z</time>
      </trkpt>
      <trkpt lat="46.25624" lon="6.29474">
        <ele>526.34</ele>
        <time>2021-09-29T11:02:53Z</time>
      </trkpt>
      <trkpt lat="46.25616" lon="6.29479">
        <ele>526.45</ele>
        <time>2021-09-29T11:03:11Z</time>
      </trkpt>
      <trkpt lat="46.25634" lon="6.29472">
        <ele>526.4</ele>
        <time>2021-09-29T11:03:20Z</time>
      </trkpt>
      <trkpt lat="46.25622" lon="6.29492">
        <ele>526.26</ele>
        <time>2021-09-29T11:03:49Z</time>
      </trkpt>
      <trkpt lat="46.25607" lon="6.29511">
        <ele>526.26</ele>
        <time>2021-09-29T11:04:01Z</time>
      </trkpt>
      <trkpt lat="46.25602" lon="6.2954">
        <ele>526.26</ele>
        <time>2021-09-29T11:04:09Z</time>
      </trkpt>
      <trkpt lat="46.25594" lon="6.2957">
        <ele>526.26</ele>
        <time>2021-09-29T11:04:23Z</time>
      </trkpt>
      <trkpt lat="46.25586" lon="6.29592">
        <ele>526.26</ele>
        <time>2021-09-29T11:05:00Z</time>
      </trkpt>
      <trkpt lat="46.25571" lon="6.29572">
        <ele>526.26</ele>
        <time>2021-09-29T11:05:08Z</time>
      </trkpt>
      <trkpt lat="46.25554" lon="6.29554">
        <ele>526.26</ele>
        <time>2021-09-29T11:05:17Z</time>
      </trkpt>
      <trkpt lat="46.25537" lon="6.29535">
        <ele>526.26</ele>
        <time>2021-09-29T11:05:23Z</time>
      </trkpt>
      <trkpt lat="46.25523" lon="6.29508">
        <ele>526.26</ele>
        <time>2021-09-29T11:05:30Z</time>
      </trkpt>
      <trkpt lat="46.25519" lon="6.29475">
        <ele>526.26</ele>
        <time>2021-09-29T11:05:38Z</time>
      </trkpt>
      <trkpt lat="46.25523" lon="6.29441">
        <ele>526.26</ele>
        <time>2021-09-29T11:05:48Z</time>
      </trkpt>
      <trkpt lat="46.25532" lon="6.29412">
        <ele>526.26</ele>
        <time>2021-09-29T11:05:54Z</time>
      </trkpt>
      <trkpt lat="46.25544" lon="6.29381">
        <ele>526.26</ele>
        <time>2021-09-29T11:06:01Z</time>
      </trkpt>
      <trkpt lat="46.25555" lon="6.2935">
        <ele>526.26</ele>
        <time>2021-09-29T11:06:09Z</time>
      </trkpt>
      <trkpt lat="46.25561" lon="6.29318">
        <ele>526.26</ele>
        <time>2021-09-29T11:06:14Z</time>
      </trkpt>
      <trkpt lat="46.25559" lon="6.29285">
        <ele>526.26</ele>
        <time>2021-09-29T11:06:20Z</time>
      </trkpt>
      <trkpt lat="46.2555" lon="6.29253">
        <ele>526.26</ele>
        <time>2021-09-29T11:06:28Z</time>
      </trkpt>
      <trkpt lat="46.25569" lon="6.29246">
        <ele>526.26</ele>
        <time>2021-09-29T11:06:38Z</time>
      </trkpt>
      <trkpt lat="46.25592" lon="6.29246">
        <ele>526.26</ele>
        <time>2021-09-29T11:06:43Z</time>
      </trkpt>
      <trkpt lat="46.25613" lon="6.29247">
        <ele>526.26</ele>
        <time>2021-09-29T11:06:48Z</time>
      </trkpt>
      <trkpt lat="46.25635" lon="6.2925">
        <ele>526.26</ele>
        <time>2021-09-29T11:06:54Z</time>
      </trkpt>
      <trkpt lat="46.25655" lon="6.29259">
        <ele>526.26</ele>
        <time>2021-09-29T11:07:00Z</time>
      </trkpt>
      <trkpt lat="46.25674" lon="6.2927">
        <ele>526.26</ele>
        <time>2021-09-29T11:07:05Z</time>
      </trkpt>
      <trkpt lat="46.25692" lon="6.2928">
        <ele>526.26</ele>
        <time>2021-09-29T11:07:09Z</time>
      </trkpt>
      <trkpt lat="46.25713" lon="6.29291">
        <ele>526.26</ele>
        <time>2021-09-29T11:07:14Z</time>
      </trkpt>
      <trkpt lat="46.25731" lon="6.29302">
        <ele>526.26</ele>
        <time>2021-09-29T11:07:20Z</time>
      </trkpt>
      <trkpt lat="46.25749" lon="6.29312">
        <ele>526.26</ele>
        <time>2021-09-29T11:07:25Z</time>
      </trkpt>
      <trkpt lat="46.25754" lon="6.29318">
        <ele>526.26</ele>
        <time>2021-09-29T11:07:36Z</time>
      </trkpt>
      <trkpt lat="46.25734" lon="6.29306">
        <ele>526.26</ele>
        <time>2021-09-29T11:07:42Z</time>
      </trkpt>
      <trkpt lat="46.25713" lon="6.29296">
        <ele>526.26</ele>
        <time>2021-09-29T11:07:46Z</time>
      </trkpt>
      <trkpt lat="46.25695" lon="6.29285">
        <ele>526.26</ele>
        <time>2021-09-29T11:07:50Z</time>
      </trkpt>
      <trkpt lat="46.25677" lon="6.29274">
        <ele>526.26</ele>
        <time>2021-09-29T11:07:55Z</time>
      </trkpt>
      <trkpt lat="46.25658" lon="6.29263">
        <ele>526.26</ele>
        <time>2021-09-29T11:08:00Z</time>
      </trkpt>
      <trkpt lat="46.25639" lon="6.29254">
        <ele>526.26</ele>
        <time>2021-09-29T11:08:05Z</time>
      </trkpt>
      <trkpt lat="46.25619" lon="6.29248">
        <ele>526.26</ele>
        <time>2021-09-29T11:08:10Z</time>
      </trkpt>
      <trkpt lat="46.256" lon="6.29245">
        <ele>526.26</ele>
        <time>2021-09-29T11:08:14Z</time>
      </trkpt>
      <trkpt lat="46.25581" lon="6.29244">
        <ele>526.26</ele>
        <time>2021-09-29T11:08:18Z</time>
      </trkpt>
      <trkpt lat="46.25562" lon="6.29243">
        <ele>526.26</ele>
        <time>2021-09-29T11:08:24Z</time>
      </trkpt>
      <trkpt lat="46.25555" lon="6.29262">
        <ele>526.26</ele>
        <time>2021-09-29T11:08:36Z</time>
      </trkpt>
      <trkpt lat="46.25566" lon="6.29291">
        <ele>526.26</ele>
        <time>2021-09-29T11:08:43Z</time>
      </trkpt>
      <trkpt lat="46.25565" lon="6.29324">
        <ele>526.26</ele>
        <time>2021-09-29T11:08:48Z</time>
      </trkpt>
      <trkpt lat="46.25554" lon="6.29357">
        <ele>526.26</ele>
        <time>2021-09-29T11:08:53Z</time>
      </trkpt>
      <trkpt lat="46.25541" lon="6.29388">
        <ele>526.26</ele>
        <time>2021-09-29T11:08:58Z</time>
      </trkpt>
      <trkpt lat="46.25531" lon="6.29419">
        <ele>526.26</ele>
        <time>2021-09-29T11:09:04Z</time>
      </trkpt>
      <trkpt lat="46.25524" lon="6.29454">
        <ele>526.26</ele>
        <time>2021-09-29T11:09:10Z</time>
      </trkpt>
      <trkpt lat="46.25513" lon="6.29484">
        <ele>526.26</ele>
        <time>2021-09-29T11:09:18Z</time>
      </trkpt>
      <trkpt lat="46.25498" lon="6.29508">
        <ele>526.26</ele>
        <time>2021-09-29T11:09:24Z</time>
      </trkpt>
      <trkpt lat="46.25489" lon="6.29542">
        <ele>526.26</ele>
        <time>2021-09-29T11:09:31Z</time>
      </trkpt>
      <trkpt lat="46.25481" lon="6.29577">
        <ele>526.26</ele>
        <time>2021-09-29T11:09:37Z</time>
      </trkpt>
      <trkpt lat="46.25474" lon="6.2961">
        <ele>531.23</ele>
        <time>2021-09-29T11:09:44Z</time>
      </trkpt>
      <trkpt lat="46.25469" lon="6.29643">
        <ele>531.62</ele>
        <time>2021-09-29T11:09:51Z</time>
      </trkpt>
      <trkpt lat="46.25465" lon="6.29672">
        <ele>532.27</ele>
        <time>2021-09-29T11:09:57Z</time>
      </trkpt>
      <trkpt lat="46.25459" lon="6.29703">
        <ele>533.18</ele>
        <time>2021-09-29T11:10:05Z</time>
      </trkpt>
      <trkpt lat="46.25455" lon="6.29736">
        <ele>533.82</ele>
        <time>2021-09-29T11:10:12Z</time>
      </trkpt>
      <trkpt lat="46.25453" lon="6.29764">
        <ele>534.29</ele>
        <time>2021-09-29T11:10:19Z</time>
      </trkpt>
      <trkpt lat="46.25449" lon="6.29795">
        <ele>534.75</ele>
        <time>2021-09-29T11:10:27Z</time>
      </trkpt>
      <trkpt lat="46.25446" lon="6.29826">
        <ele>535.37</ele>
        <time>2021-09-29T11:10:33Z</time>
      </trkpt>
      <trkpt lat="46.25442" lon="6.2986">
        <ele>536.02</ele>
        <time>2021-09-29T11:10:41Z</time>
      </trkpt>
      <trkpt lat="46.2544" lon="6.29891">
        <ele>536.46</ele>
        <time>2021-09-29T11:10:47Z</time>
      </trkpt>
      <trkpt lat="46.25436" lon="6.29919">
        <ele>536.85</ele>
        <time>2021-09-29T11:10:54Z</time>
      </trkpt>
      <trkpt lat="46.25433" lon="6.2995">
        <ele>537.29</ele>
        <time>2021-09-29T11:11:01Z</time>
      </trkpt>
      <trkpt lat="46.25425" lon="6.29978">
        <ele>537.53</ele>
        <time>2021-09-29T11:11:10Z</time>
      </trkpt>
      <trkpt lat="46.25422" lon="6.29987">
        <ele>538.1</ele>
        <time>2021-09-29T11:11:54Z</time>
      </trkpt>
      <trkpt lat="46.25427" lon="6.2996">
        <ele>537.52</ele>
        <time>2021-09-29T11:12:11Z</time>
      </trkpt>
      <trkpt lat="46.2543" lon="6.29962">
        <ele>537.56</ele>
        <time>2021-09-29T11:17:12Z</time>
      </trkpt>
      <trkpt lat="46.25435" lon="6.29933">
        <ele>537.56</ele>
        <time>2021-09-29T11:17:18Z</time>
      </trkpt>
      <trkpt lat="46.25436" lon="6.29903">
        <ele>537.56</ele>
        <time>2021-09-29T11:17:22Z</time>
      </trkpt>
      <trkpt lat="46.2544" lon="6.29876">
        <ele>537.56</ele>
        <time>2021-09-29T11:17:26Z</time>
      </trkpt>
      <trkpt lat="46.25444" lon="6.29845">
        <ele>537.56</ele>
        <time>2021-09-29T11:17:31Z</time>
      </trkpt>
      <trkpt lat="46.25447" lon="6.29816">
        <ele>537.56</ele>
        <time>2021-09-29T11:17:36Z</time>
      </trkpt>
      <trkpt lat="46.2545" lon="6.29789">
        <ele>537.56</ele>
        <time>2021-09-29T11:17:41Z</time>
      </trkpt>
      <trkpt lat="46.25455" lon="6.29761">
        <ele>537.56</ele>
        <time>2021-09-29T11:17:46Z</time>
      </trkpt>
      <trkpt lat="46.25458" lon="6.2973">
        <ele>534.22</ele>
        <time>2021-09-29T11:17:50Z</time>
      </trkpt>
      <trkpt lat="46.25461" lon="6.29699">
        <ele>534</ele>
        <time>2021-09-29T11:17:54Z</time>
      </trkpt>
      <trkpt lat="46.25467" lon="6.29668">
        <ele>533.63</ele>
        <time>2021-09-29T11:17:58Z</time>
      </trkpt>
      <trkpt lat="46.25471" lon="6.29636">
        <ele>532.99</ele>
        <time>2021-09-29T11:18:02Z</time>
      </trkpt>
      <trkpt lat="46.25475" lon="6.29603">
        <ele>532.06</ele>
        <time>2021-09-29T11:18:06Z</time>
      </trkpt>
      <trkpt lat="46.25481" lon="6.29571">
        <ele>531.17</ele>
        <time>2021-09-29T11:18:10Z</time>
      </trkpt>
      <trkpt lat="46.25487" lon="6.29539">
        <ele>530.34</ele>
        <time>2021-09-29T11:18:14Z</time>
      </trkpt>
      <trkpt lat="46.25495" lon="6.29513">
        <ele>529.58</ele>
        <time>2021-09-29T11:18:18Z</time>
      </trkpt>
      <trkpt lat="46.25505" lon="6.2949">
        <ele>528.88</ele>
        <time>2021-09-29T11:18:22Z</time>
      </trkpt>
      <trkpt lat="46.25518" lon="6.29492">
        <ele>527.17</ele>
        <time>2021-09-29T11:18:33Z</time>
      </trkpt>
      <trkpt lat="46.25529" lon="6.29523">
        <ele>527.17</ele>
        <time>2021-09-29T11:18:41Z</time>
      </trkpt>
      <trkpt lat="46.25543" lon="6.29544">
        <ele>527.36</ele>
        <time>2021-09-29T11:18:46Z</time>
      </trkpt>
      <trkpt lat="46.25561" lon="6.29561">
        <ele>527.75</ele>
        <time>2021-09-29T11:18:51Z</time>
      </trkpt>
      <trkpt lat="46.25576" lon="6.29582">
        <ele>527.7</ele>
        <time>2021-09-29T11:18:56Z</time>
      </trkpt>
      <trkpt lat="46.25588" lon="6.29615">
        <ele>527.02</ele>
        <time>2021-09-29T11:19:22Z</time>
      </trkpt>
      <trkpt lat="46.25597" lon="6.29642">
        <ele>527.52</ele>
        <time>2021-09-29T11:19:38Z</time>
      </trkpt>
      <trkpt lat="46.25613" lon="6.29658">
        <ele>528.67</ele>
        <time>2021-09-29T11:19:46Z</time>
      </trkpt>
      <trkpt lat="46.25631" lon="6.29669">
        <ele>529.46</ele>
        <time>2021-09-29T11:19:52Z</time>
      </trkpt>
      <trkpt lat="46.25651" lon="6.29681">
        <ele>530</ele>
        <time>2021-09-29T11:19:59Z</time>
      </trkpt>
      <trkpt lat="46.25669" lon="6.29694">
        <ele>530.33</ele>
        <time>2021-09-29T11:20:04Z</time>
      </trkpt>
      <trkpt lat="46.25685" lon="6.29705">
        <ele>530.3</ele>
        <time>2021-09-29T11:20:09Z</time>
      </trkpt>
      <trkpt lat="46.25704" lon="6.29717">
        <ele>530.29</ele>
        <time>2021-09-29T11:20:16Z</time>
      </trkpt>
      <trkpt lat="46.25723" lon="6.29728">
        <ele>530.09</ele>
        <time>2021-09-29T11:20:22Z</time>
      </trkpt>
      <trkpt lat="46.2574" lon="6.29739">
        <ele>529.78</ele>
        <time>2021-09-29T11:20:28Z</time>
      </trkpt>
      <trkpt lat="46.2576" lon="6.29753">
        <ele>529.82</ele>
        <time>2021-09-29T11:20:34Z</time>
      </trkpt>
      <trkpt lat="46.25778" lon="6.29766">
        <ele>529.84</ele>
        <time>2021-09-29T11:20:39Z</time>
      </trkpt>
      <trkpt lat="46.25796" lon="6.29779">
        <ele>529.63</ele>
        <time>2021-09-29T11:20:44Z</time>
      </trkpt>
      <trkpt lat="46.25806" lon="6.29802">
        <ele>529.19</ele>
        <time>2021-09-29T11:20:50Z</time>
      </trkpt>
      <trkpt lat="46.258" lon="6.29826">
        <ele>529.19</ele>
        <time>2021-09-29T11:21:15Z</time>
      </trkpt>
      <trkpt lat="46.25794" lon="6.29852">
        <ele>529.19</ele>
        <time>2021-09-29T11:21:21Z</time>
      </trkpt>
      <trkpt lat="46.25786" lon="6.29877">
        <ele>529.19</ele>
        <time>2021-09-29T11:21:27Z</time>
      </trkpt>
      <trkpt lat="46.25778" lon="6.29902">
        <ele>529.19</ele>
        <time>2021-09-29T11:21:33Z</time>
      </trkpt>
      <trkpt lat="46.2577" lon="6.29928">
        <ele>529.19</ele>
        <time>2021-09-29T11:21:39Z</time>
      </trkpt>
      <trkpt lat="46.25762" lon="6.29953">
        <ele>529.19</ele>
        <time>2021-09-29T11:21:45Z</time>
      </trkpt>
      <trkpt lat="46.25755" lon="6.2998">
        <ele>534.46</ele>
        <time>2021-09-29T11:21:53Z</time>
      </trkpt>
      <trkpt lat="46.25747" lon="6.30007">
        <ele>534.91</ele>
        <time>2021-09-29T11:22:00Z</time>
      </trkpt>
      <trkpt lat="46.25739" lon="6.30033">
        <ele>535.57</ele>
        <time>2021-09-29T11:22:07Z</time>
      </trkpt>
      <trkpt lat="46.25732" lon="6.30059">
        <ele>536.3</ele>
        <time>2021-09-29T11:22:14Z</time>
      </trkpt>
      <trkpt lat="46.25725" lon="6.30086">
        <ele>537.09</ele>
        <time>2021-09-29T11:22:22Z</time>
      </trkpt>
      <trkpt lat="46.25717" lon="6.30113">
        <ele>537.14</ele>
        <time>2021-09-29T11:22:28Z</time>
      </trkpt>
      <trkpt lat="46.2571" lon="6.30137">
        <ele>537.08</ele>
        <time>2021-09-29T11:22:35Z</time>
      </trkpt>
      <trkpt lat="46.25703" lon="6.30161">
        <ele>537.39</ele>
        <time>2021-09-29T11:22:41Z</time>
      </trkpt>
      <trkpt lat="46.25696" lon="6.30188">
        <ele>538.81</ele>
        <time>2021-09-29T11:22:50Z</time>
      </trkpt>
      <trkpt lat="46.25689" lon="6.30214">
        <ele>540.03</ele>
        <time>2021-09-29T11:22:56Z</time>
      </trkpt>
      <trkpt lat="46.25682" lon="6.3024">
        <ele>540.82</ele>
        <time>2021-09-29T11:23:02Z</time>
      </trkpt>
      <trkpt lat="46.25675" lon="6.30266">
        <ele>541.25</ele>
        <time>2021-09-29T11:23:10Z</time>
      </trkpt>
      <trkpt lat="46.25668" lon="6.3029">
        <ele>541.18</ele>
        <time>2021-09-29T11:23:15Z</time>
      </trkpt>
      <trkpt lat="46.25661" lon="6.30314">
        <ele>541.24</ele>
        <time>2021-09-29T11:23:22Z</time>
      </trkpt>
      <trkpt lat="46.25653" lon="6.3034">
        <ele>541.33</ele>
        <time>2021-09-29T11:23:30Z</time>
      </trkpt>
      <trkpt lat="46.25645" lon="6.30364">
        <ele>541.75</ele>
        <time>2021-09-29T11:23:39Z</time>
      </trkpt>
      <trkpt lat="46.25634" lon="6.3039">
        <ele>542.23</ele>
        <time>2021-09-29T11:23:46Z</time>
      </trkpt>
      <trkpt lat="46.25623" lon="6.30415">
        <ele>542.93</ele>
        <time>2021-09-29T11:23:54Z</time>
      </trkpt>
      <trkpt lat="46.2561" lon="6.30439">
        <ele>543.47</ele>
        <time>2021-09-29T11:24:02Z</time>
      </trkpt>
      <trkpt lat="46.25595" lon="6.30458">
        <ele>543.08</ele>
        <time>2021-09-29T11:24:06Z</time>
      </trkpt>
      <trkpt lat="46.25583" lon="6.3048">
        <ele>542.43</ele>
        <time>2021-09-29T11:24:10Z</time>
      </trkpt>
      <trkpt lat="46.25575" lon="6.30504">
        <ele>542.03</ele>
        <time>2021-09-29T11:24:15Z</time>
      </trkpt>
      <trkpt lat="46.25572" lon="6.30535">
        <ele>542.62</ele>
        <time>2021-09-29T11:24:23Z</time>
      </trkpt>
      <trkpt lat="46.25566" lon="6.30567">
        <ele>544.55</ele>
        <time>2021-09-29T11:24:32Z</time>
      </trkpt>
      <trkpt lat="46.25564" lon="6.30601">
        <ele>546.12</ele>
        <time>2021-09-29T11:24:39Z</time>
      </trkpt>
      <trkpt lat="46.25563" lon="6.30635">
        <ele>547.41</ele>
        <time>2021-09-29T11:24:47Z</time>
      </trkpt>
      <trkpt lat="46.2556" lon="6.30665">
        <ele>548.08</ele>
        <time>2021-09-29T11:24:53Z</time>
      </trkpt>
      <trkpt lat="46.25555" lon="6.30696">
        <ele>549.27</ele>
        <time>2021-09-29T11:25:01Z</time>
      </trkpt>
      <trkpt lat="46.25548" lon="6.30731">
        <ele>550.87</ele>
        <time>2021-09-29T11:25:11Z</time>
      </trkpt>
      <trkpt lat="46.2554" lon="6.30767">
        <ele>552.12</ele>
        <time>2021-09-29T11:25:22Z</time>
      </trkpt>
      <trkpt lat="46.25533" lon="6.30805">
        <ele>553.17</ele>
        <time>2021-09-29T11:25:31Z</time>
      </trkpt>
      <trkpt lat="46.25527" lon="6.3084">
        <ele>554.34</ele>
        <time>2021-09-29T11:25:39Z</time>
      </trkpt>
      <trkpt lat="46.25517" lon="6.30873">
        <ele>555.54</ele>
        <time>2021-09-29T11:25:49Z</time>
      </trkpt>
      <trkpt lat="46.25505" lon="6.30903">
        <ele>556.06</ele>
        <time>2021-09-29T11:25:56Z</time>
      </trkpt>
      <trkpt lat="46.25495" lon="6.30928">
        <ele>556.6</ele>
        <time>2021-09-29T11:26:02Z</time>
      </trkpt>
      <trkpt lat="46.25485" lon="6.30951">
        <ele>557.03</ele>
        <time>2021-09-29T11:26:09Z</time>
      </trkpt>
      <trkpt lat="46.25476" lon="6.30973">
        <ele>557.76</ele>
        <time>2021-09-29T11:26:16Z</time>
      </trkpt>
      <trkpt lat="46.25465" lon="6.31">
        <ele>558.37</ele>
        <time>2021-09-29T11:26:24Z</time>
      </trkpt>
      <trkpt lat="46.25455" lon="6.31023">
        <ele>558.91</ele>
        <time>2021-09-29T11:26:30Z</time>
      </trkpt>
      <trkpt lat="46.25446" lon="6.31045">
        <ele>559.71</ele>
        <time>2021-09-29T11:26:36Z</time>
      </trkpt>
      <trkpt lat="46.25437" lon="6.31069">
        <ele>560.4</ele>
        <time>2021-09-29T11:26:42Z</time>
      </trkpt>
      <trkpt lat="46.25425" lon="6.31094">
        <ele>561.6</ele>
        <time>2021-09-29T11:26:49Z</time>
      </trkpt>
      <trkpt lat="46.25415" lon="6.31118">
        <ele>562.8</ele>
        <time>2021-09-29T11:26:57Z</time>
      </trkpt>
      <trkpt lat="46.25405" lon="6.31141">
        <ele>563.61</ele>
        <time>2021-09-29T11:27:04Z</time>
      </trkpt>
      <trkpt lat="46.25395" lon="6.31164">
        <ele>564.79</ele>
        <time>2021-09-29T11:27:11Z</time>
      </trkpt>
      <trkpt lat="46.25386" lon="6.31188">
        <ele>565.85</ele>
        <time>2021-09-29T11:27:18Z</time>
      </trkpt>
      <trkpt lat="46.25375" lon="6.31211">
        <ele>566.86</ele>
        <time>2021-09-29T11:27:25Z</time>
      </trkpt>
      <trkpt lat="46.25365" lon="6.31236">
        <ele>567.58</ele>
        <time>2021-09-29T11:27:34Z</time>
      </trkpt>
      <trkpt lat="46.25357" lon="6.31261">
        <ele>568.4</ele>
        <time>2021-09-29T11:27:41Z</time>
      </trkpt>
      <trkpt lat="46.25364" lon="6.31286">
        <ele>569.23</ele>
        <time>2021-09-29T11:27:47Z</time>
      </trkpt>
      <trkpt lat="46.2538" lon="6.31305">
        <ele>569.82</ele>
        <time>2021-09-29T11:27:52Z</time>
      </trkpt>
      <trkpt lat="46.25398" lon="6.31322">
        <ele>570.6</ele>
        <time>2021-09-29T11:27:58Z</time>
      </trkpt>
      <trkpt lat="46.25415" lon="6.31338">
        <ele>570.87</ele>
        <time>2021-09-29T11:28:03Z</time>
      </trkpt>
      <trkpt lat="46.25432" lon="6.31353">
        <ele>571.18</ele>
        <time>2021-09-29T11:28:07Z</time>
      </trkpt>
      <trkpt lat="46.2545" lon="6.31369">
        <ele>571.53</ele>
        <time>2021-09-29T11:28:11Z</time>
      </trkpt>
      <trkpt lat="46.25467" lon="6.31384">
        <ele>571.64</ele>
        <time>2021-09-29T11:28:15Z</time>
      </trkpt>
      <trkpt lat="46.25482" lon="6.31397">
        <ele>571.6</ele>
        <time>2021-09-29T11:28:19Z</time>
      </trkpt>
      <trkpt lat="46.25501" lon="6.31413">
        <ele>571.56</ele>
        <time>2021-09-29T11:28:24Z</time>
      </trkpt>
      <trkpt lat="46.25514" lon="6.31433">
        <ele>571.53</ele>
        <time>2021-09-29T11:28:29Z</time>
      </trkpt>
      <trkpt lat="46.25507" lon="6.31456">
        <ele>571.61</ele>
        <time>2021-09-29T11:28:36Z</time>
      </trkpt>
      <trkpt lat="46.25495" lon="6.31481">
        <ele>571.84</ele>
        <time>2021-09-29T11:28:42Z</time>
      </trkpt>
      <trkpt lat="46.25482" lon="6.31504">
        <ele>572.26</ele>
        <time>2021-09-29T11:28:47Z</time>
      </trkpt>
      <trkpt lat="46.25469" lon="6.31529">
        <ele>573.25</ele>
        <time>2021-09-29T11:28:52Z</time>
      </trkpt>
      <trkpt lat="46.25458" lon="6.31551">
        <ele>573.94</ele>
        <time>2021-09-29T11:28:56Z</time>
      </trkpt>
      <trkpt lat="46.25446" lon="6.31573">
        <ele>574.56</ele>
        <time>2021-09-29T11:29:01Z</time>
      </trkpt>
      <trkpt lat="46.25435" lon="6.31595">
        <ele>575.21</ele>
        <time>2021-09-29T11:29:07Z</time>
      </trkpt>
      <trkpt lat="46.25424" lon="6.31618">
        <ele>575.55</ele>
        <time>2021-09-29T11:29:12Z</time>
      </trkpt>
      <trkpt lat="46.25412" lon="6.31642">
        <ele>576.03</ele>
        <time>2021-09-29T11:29:17Z</time>
      </trkpt>
      <trkpt lat="46.25401" lon="6.31666">
        <ele>576.53</ele>
        <time>2021-09-29T11:29:22Z</time>
      </trkpt>
      <trkpt lat="46.25391" lon="6.31689">
        <ele>577.79</ele>
        <time>2021-09-29T11:29:29Z</time>
      </trkpt>
      <trkpt lat="46.25378" lon="6.31711">
        <ele>578.76</ele>
        <time>2021-09-29T11:29:36Z</time>
      </trkpt>
      <trkpt lat="46.25368" lon="6.31733">
        <ele>579.13</ele>
        <time>2021-09-29T11:29:41Z</time>
      </trkpt>
      <trkpt lat="46.25357" lon="6.31755">
        <ele>579.45</ele>
        <time>2021-09-29T11:29:46Z</time>
      </trkpt>
      <trkpt lat="46.25346" lon="6.31778">
        <ele>579.99</ele>
        <time>2021-09-29T11:29:52Z</time>
      </trkpt>
      <trkpt lat="46.25336" lon="6.31805">
        <ele>580.32</ele>
        <time>2021-09-29T11:29:58Z</time>
      </trkpt>
      <trkpt lat="46.25325" lon="6.31831">
        <ele>580.77</ele>
        <time>2021-09-29T11:30:04Z</time>
      </trkpt>
      <trkpt lat="46.25315" lon="6.31855">
        <ele>581.26</ele>
        <time>2021-09-29T11:30:09Z</time>
      </trkpt>
      <trkpt lat="46.25304" lon="6.3188">
        <ele>582.67</ele>
        <time>2021-09-29T11:30:15Z</time>
      </trkpt>
      <trkpt lat="46.25291" lon="6.31905">
        <ele>583.53</ele>
        <time>2021-09-29T11:30:21Z</time>
      </trkpt>
      <trkpt lat="46.2528" lon="6.31927">
        <ele>583.93</ele>
        <time>2021-09-29T11:30:26Z</time>
      </trkpt>
      <trkpt lat="46.25269" lon="6.31949">
        <ele>584.63</ele>
        <time>2021-09-29T11:30:33Z</time>
      </trkpt>
      <trkpt lat="46.25257" lon="6.31972">
        <ele>585.24</ele>
        <time>2021-09-29T11:30:39Z</time>
      </trkpt>
      <trkpt lat="46.25244" lon="6.31993">
        <ele>585.95</ele>
        <time>2021-09-29T11:30:44Z</time>
      </trkpt>
      <trkpt lat="46.25232" lon="6.32014">
        <ele>586.6</ele>
        <time>2021-09-29T11:30:51Z</time>
      </trkpt>
      <trkpt lat="46.25217" lon="6.32035">
        <ele>586.71</ele>
        <time>2021-09-29T11:30:57Z</time>
      </trkpt>
      <trkpt lat="46.25202" lon="6.32056">
        <ele>586.79</ele>
        <time>2021-09-29T11:31:02Z</time>
      </trkpt>
      <trkpt lat="46.25187" lon="6.32078">
        <ele>586.84</ele>
        <time>2021-09-29T11:31:08Z</time>
      </trkpt>
      <trkpt lat="46.25175" lon="6.32098">
        <ele>586.86</ele>
        <time>2021-09-29T11:31:13Z</time>
      </trkpt>
      <trkpt lat="46.25161" lon="6.32122">
        <ele>587.24</ele>
        <time>2021-09-29T11:31:18Z</time>
      </trkpt>
      <trkpt lat="46.25151" lon="6.32146">
        <ele>587.92</ele>
        <time>2021-09-29T11:31:23Z</time>
      </trkpt>
      <trkpt lat="46.25138" lon="6.32172">
        <ele>588.54</ele>
        <time>2021-09-29T11:31:29Z</time>
      </trkpt>
      <trkpt lat="46.25127" lon="6.32199">
        <ele>588.95</ele>
        <time>2021-09-29T11:31:34Z</time>
      </trkpt>
      <trkpt lat="46.25116" lon="6.32222">
        <ele>588.87</ele>
        <time>2021-09-29T11:31:39Z</time>
      </trkpt>
      <trkpt lat="46.25107" lon="6.32244">
        <ele>588.65</ele>
        <time>2021-09-29T11:31:45Z</time>
      </trkpt>
      <trkpt lat="46.25098" lon="6.32273">
        <ele>588.61</ele>
        <time>2021-09-29T11:31:51Z</time>
      </trkpt>
      <trkpt lat="46.25092" lon="6.32299">
        <ele>588.65</ele>
        <time>2021-09-29T11:31:56Z</time>
      </trkpt>
      <trkpt lat="46.25087" lon="6.32326">
        <ele>588.63</ele>
        <time>2021-09-29T11:32:02Z</time>
      </trkpt>
      <trkpt lat="46.25078" lon="6.32351">
        <ele>588.67</ele>
        <time>2021-09-29T11:32:07Z</time>
      </trkpt>
      <trkpt lat="46.2507" lon="6.32375">
        <ele>588.65</ele>
        <time>2021-09-29T11:32:12Z</time>
      </trkpt>
      <trkpt lat="46.25061" lon="6.32399">
        <ele>588.71</ele>
        <time>2021-09-29T11:32:18Z</time>
      </trkpt>
      <trkpt lat="46.25052" lon="6.32423">
        <ele>588.85</ele>
        <time>2021-09-29T11:32:24Z</time>
      </trkpt>
      <trkpt lat="46.25033" lon="6.32441">
        <ele>588.5</ele>
        <time>2021-09-29T11:32:29Z</time>
      </trkpt>
      <trkpt lat="46.2501" lon="6.32444">
        <ele>588.05</ele>
        <time>2021-09-29T11:32:33Z</time>
      </trkpt>
      <trkpt lat="46.24992" lon="6.32448">
        <ele>586.91</ele>
        <time>2021-09-29T11:32:38Z</time>
      </trkpt>
      <trkpt lat="46.2499" lon="6.32475">
        <ele>585.53</ele>
        <time>2021-09-29T11:32:44Z</time>
      </trkpt>
      <trkpt lat="46.2499" lon="6.3251">
        <ele>584.58</ele>
        <time>2021-09-29T11:32:48Z</time>
      </trkpt>
      <trkpt lat="46.24985" lon="6.32542">
        <ele>583.54</ele>
        <time>2021-09-29T11:32:51Z</time>
      </trkpt>
      <trkpt lat="46.24977" lon="6.32575">
        <ele>582.22</ele>
        <time>2021-09-29T11:32:54Z</time>
      </trkpt>
      <trkpt lat="46.24971" lon="6.32611">
        <ele>580.77</ele>
        <time>2021-09-29T11:32:57Z</time>
      </trkpt>
      <trkpt lat="46.2497" lon="6.32645">
        <ele>579.69</ele>
        <time>2021-09-29T11:33:00Z</time>
      </trkpt>
      <trkpt lat="46.24976" lon="6.32673">
        <ele>579.26</ele>
        <time>2021-09-29T11:33:03Z</time>
      </trkpt>
      <trkpt lat="46.24988" lon="6.32697">
        <ele>579.23</ele>
        <time>2021-09-29T11:33:07Z</time>
      </trkpt>
      <trkpt lat="46.25003" lon="6.32717">
        <ele>579.51</ele>
        <time>2021-09-29T11:33:12Z</time>
      </trkpt>
      <trkpt lat="46.25021" lon="6.32731">
        <ele>579.7</ele>
        <time>2021-09-29T11:33:18Z</time>
      </trkpt>
      <trkpt lat="46.25038" lon="6.32743">
        <ele>579.67</ele>
        <time>2021-09-29T11:33:22Z</time>
      </trkpt>
      <trkpt lat="46.25058" lon="6.32755">
        <ele>579.43</ele>
        <time>2021-09-29T11:33:27Z</time>
      </trkpt>
      <trkpt lat="46.25076" lon="6.32766">
        <ele>579.13</ele>
        <time>2021-09-29T11:33:32Z</time>
      </trkpt>
      <trkpt lat="46.25095" lon="6.32776">
        <ele>578.74</ele>
        <time>2021-09-29T11:33:38Z</time>
      </trkpt>
      <trkpt lat="46.25115" lon="6.32784">
        <ele>578.54</ele>
        <time>2021-09-29T11:33:43Z</time>
      </trkpt>
      <trkpt lat="46.25134" lon="6.32788">
        <ele>578.49</ele>
        <time>2021-09-29T11:33:48Z</time>
      </trkpt>
      <trkpt lat="46.25148" lon="6.32801">
        <ele>578.59</ele>
        <time>2021-09-29T11:33:55Z</time>
      </trkpt>
      <trkpt lat="46.25142" lon="6.32829">
        <ele>578.18</ele>
        <time>2021-09-29T11:34:03Z</time>
      </trkpt>
      <trkpt lat="46.25132" lon="6.32848">
        <ele>578.12</ele>
        <time>2021-09-29T11:34:09Z</time>
      </trkpt>
      <trkpt lat="46.25122" lon="6.32827">
        <ele>577.75</ele>
        <time>2021-09-29T11:34:17Z</time>
      </trkpt>
      <trkpt lat="46.25122" lon="6.32809">
        <ele>577.84</ele>
        <time>2021-09-29T11:40:42Z</time>
      </trkpt>
      <trkpt lat="46.25125" lon="6.32844">
        <ele>577.84</ele>
        <time>2021-09-29T11:41:03Z</time>
      </trkpt>
      <trkpt lat="46.25135" lon="6.32862">
        <ele>577.84</ele>
        <time>2021-09-29T11:41:11Z</time>
      </trkpt>
      <trkpt lat="46.25127" lon="6.3289">
        <ele>577.84</ele>
        <time>2021-09-29T11:41:19Z</time>
      </trkpt>
      <trkpt lat="46.25121" lon="6.32916">
        <ele>577.84</ele>
        <time>2021-09-29T11:41:28Z</time>
      </trkpt>
      <trkpt lat="46.25106" lon="6.32931">
        <ele>577.84</ele>
        <time>2021-09-29T11:41:37Z</time>
      </trkpt>
      <trkpt lat="46.25085" lon="6.32935">
        <ele>577.84</ele>
        <time>2021-09-29T11:41:44Z</time>
      </trkpt>
      <trkpt lat="46.25067" lon="6.32927">
        <ele>577.84</ele>
        <time>2021-09-29T11:41:50Z</time>
      </trkpt>
      <trkpt lat="46.25048" lon="6.32915">
        <ele>577.84</ele>
        <time>2021-09-29T11:41:57Z</time>
      </trkpt>
      <trkpt lat="46.25034" lon="6.32899">
        <ele>577.84</ele>
        <time>2021-09-29T11:42:08Z</time>
      </trkpt>
      <trkpt lat="46.2503" lon="6.32871">
        <ele>577.84</ele>
        <time>2021-09-29T11:42:19Z</time>
      </trkpt>
      <trkpt lat="46.25028" lon="6.32882">
        <ele>577.84</ele>
        <time>2021-09-29T11:42:30Z</time>
      </trkpt>
      <trkpt lat="46.25038" lon="6.32906">
        <ele>577.84</ele>
        <time>2021-09-29T11:42:39Z</time>
      </trkpt>
      <trkpt lat="46.25056" lon="6.32917">
        <ele>577.84</ele>
        <time>2021-09-29T11:42:47Z</time>
      </trkpt>
      <trkpt lat="46.25075" lon="6.32922">
        <ele>577.84</ele>
        <time>2021-09-29T11:42:56Z</time>
      </trkpt>
      <trkpt lat="46.25093" lon="6.32931">
        <ele>577.84</ele>
        <time>2021-09-29T11:43:02Z</time>
      </trkpt>
      <trkpt lat="46.25112" lon="6.32934">
        <ele>577.84</ele>
        <time>2021-09-29T11:43:11Z</time>
      </trkpt>
      <trkpt lat="46.25127" lon="6.32919">
        <ele>577.84</ele>
        <time>2021-09-29T11:43:27Z</time>
      </trkpt>
      <trkpt lat="46.25135" lon="6.32892">
        <ele>577.84</ele>
        <time>2021-09-29T11:43:34Z</time>
      </trkpt>
      <trkpt lat="46.25141" lon="6.32866">
        <ele>577.84</ele>
        <time>2021-09-29T11:43:40Z</time>
      </trkpt>
      <trkpt lat="46.25147" lon="6.32838">
        <ele>577.84</ele>
        <time>2021-09-29T11:43:48Z</time>
      </trkpt>
      <trkpt lat="46.2515" lon="6.32808">
        <ele>577.84</ele>
        <time>2021-09-29T11:43:56Z</time>
      </trkpt>
      <trkpt lat="46.25154" lon="6.32783">
        <ele>577.84</ele>
        <time>2021-09-29T11:44:05Z</time>
      </trkpt>
      <trkpt lat="46.25171" lon="6.32773">
        <ele>577.84</ele>
        <time>2021-09-29T11:44:11Z</time>
      </trkpt>
      <trkpt lat="46.2519" lon="6.3277">
        <ele>577.84</ele>
        <time>2021-09-29T11:44:56Z</time>
      </trkpt>
      <trkpt lat="46.25211" lon="6.32759">
        <ele>577.84</ele>
        <time>2021-09-29T11:45:02Z</time>
      </trkpt>
      <trkpt lat="46.25229" lon="6.32747">
        <ele>577.84</ele>
        <time>2021-09-29T11:45:07Z</time>
      </trkpt>
      <trkpt lat="46.25245" lon="6.32731">
        <ele>577.84</ele>
        <time>2021-09-29T11:45:13Z</time>
      </trkpt>
      <trkpt lat="46.25259" lon="6.32733">
        <ele>581.66</ele>
        <time>2021-09-29T11:45:21Z</time>
      </trkpt>
      <trkpt lat="46.25263" lon="6.32764">
        <ele>581.5</ele>
        <time>2021-09-29T11:45:28Z</time>
      </trkpt>
      <trkpt lat="46.25268" lon="6.32796">
        <ele>581.03</ele>
        <time>2021-09-29T11:45:33Z</time>
      </trkpt>
      <trkpt lat="46.25275" lon="6.32819">
        <ele>580.43</ele>
        <time>2021-09-29T11:45:37Z</time>
      </trkpt>
      <trkpt lat="46.25291" lon="6.32831">
        <ele>579.54</ele>
        <time>2021-09-29T11:45:42Z</time>
      </trkpt>
      <trkpt lat="46.2531" lon="6.32827">
        <ele>579.62</ele>
        <time>2021-09-29T11:45:48Z</time>
      </trkpt>
      <trkpt lat="46.25326" lon="6.32811">
        <ele>580.02</ele>
        <time>2021-09-29T11:45:53Z</time>
      </trkpt>
      <trkpt lat="46.25341" lon="6.32789">
        <ele>580.56</ele>
        <time>2021-09-29T11:45:59Z</time>
      </trkpt>
      <trkpt lat="46.2536" lon="6.3279">
        <ele>580.65</ele>
        <time>2021-09-29T11:46:06Z</time>
      </trkpt>
      <trkpt lat="46.25377" lon="6.32792">
        <ele>580.34</ele>
        <time>2021-09-29T11:46:14Z</time>
      </trkpt>
      <trkpt lat="46.25382" lon="6.32761">
        <ele>579.8</ele>
        <time>2021-09-29T11:46:20Z</time>
      </trkpt>
      <trkpt lat="46.25386" lon="6.3273">
        <ele>579.45</ele>
        <time>2021-09-29T11:46:25Z</time>
      </trkpt>
      <trkpt lat="46.25388" lon="6.32702">
        <ele>578.86</ele>
        <time>2021-09-29T11:46:30Z</time>
      </trkpt>
      <trkpt lat="46.2539" lon="6.32676">
        <ele>577.77</ele>
        <time>2021-09-29T11:46:38Z</time>
      </trkpt>
      <trkpt lat="46.25405" lon="6.32659">
        <ele>577.79</ele>
        <time>2021-09-29T11:46:44Z</time>
      </trkpt>
      <trkpt lat="46.25423" lon="6.32641">
        <ele>577.75</ele>
        <time>2021-09-29T11:46:49Z</time>
      </trkpt>
      <trkpt lat="46.25439" lon="6.32623">
        <ele>577.76</ele>
        <time>2021-09-29T11:46:54Z</time>
      </trkpt>
      <trkpt lat="46.25456" lon="6.32611">
        <ele>577.7</ele>
        <time>2021-09-29T11:47:00Z</time>
      </trkpt>
      <trkpt lat="46.25473" lon="6.32602">
        <ele>577.64</ele>
        <time>2021-09-29T11:47:05Z</time>
      </trkpt>
      <trkpt lat="46.25492" lon="6.3259">
        <ele>577.56</ele>
        <time>2021-09-29T11:47:10Z</time>
      </trkpt>
      <trkpt lat="46.25512" lon="6.32581">
        <ele>577.58</ele>
        <time>2021-09-29T11:47:15Z</time>
      </trkpt>
      <trkpt lat="46.25533" lon="6.32579">
        <ele>577.64</ele>
        <time>2021-09-29T11:47:21Z</time>
      </trkpt>
      <trkpt lat="46.25555" lon="6.32586">
        <ele>577.53</ele>
        <time>2021-09-29T11:47:26Z</time>
      </trkpt>
      <trkpt lat="46.25574" lon="6.32599">
        <ele>577.52</ele>
        <time>2021-09-29T11:47:31Z</time>
      </trkpt>
      <trkpt lat="46.2559" lon="6.32614">
        <ele>577.16</ele>
        <time>2021-09-29T11:47:36Z</time>
      </trkpt>
      <trkpt lat="46.25605" lon="6.32634">
        <ele>576.68</ele>
        <time>2021-09-29T11:47:42Z</time>
      </trkpt>
      <trkpt lat="46.25617" lon="6.32654">
        <ele>576.59</ele>
        <time>2021-09-29T11:47:46Z</time>
      </trkpt>
      <trkpt lat="46.25631" lon="6.32679">
        <ele>576.7</ele>
        <time>2021-09-29T11:47:51Z</time>
      </trkpt>
      <trkpt lat="46.2564" lon="6.32702">
        <ele>577.05</ele>
        <time>2021-09-29T11:47:57Z</time>
      </trkpt>
      <trkpt lat="46.25648" lon="6.32725">
        <ele>577.21</ele>
        <time>2021-09-29T11:48:03Z</time>
      </trkpt>
      <trkpt lat="46.25657" lon="6.3275">
        <ele>577.12</ele>
        <time>2021-09-29T11:48:09Z</time>
      </trkpt>
      <trkpt lat="46.25665" lon="6.32777">
        <ele>576.97</ele>
        <time>2021-09-29T11:48:16Z</time>
      </trkpt>
      <trkpt lat="46.25675" lon="6.32803">
        <ele>576.97</ele>
        <time>2021-09-29T11:48:22Z</time>
      </trkpt>
      <trkpt lat="46.25684" lon="6.32826">
        <ele>577.15</ele>
        <time>2021-09-29T11:48:28Z</time>
      </trkpt>
      <trkpt lat="46.25696" lon="6.3285">
        <ele>577.09</ele>
        <time>2021-09-29T11:48:35Z</time>
      </trkpt>
      <trkpt lat="46.25708" lon="6.32872">
        <ele>577.05</ele>
        <time>2021-09-29T11:48:41Z</time>
      </trkpt>
      <trkpt lat="46.25722" lon="6.32892">
        <ele>577.04</ele>
        <time>2021-09-29T11:48:47Z</time>
      </trkpt>
      <trkpt lat="46.25736" lon="6.32906">
        <ele>576.93</ele>
        <time>2021-09-29T11:49:24Z</time>
      </trkpt>
      <trkpt lat="46.25745" lon="6.32926">
        <ele>576.93</ele>
        <time>2021-09-29T11:49:35Z</time>
      </trkpt>
      <trkpt lat="46.25757" lon="6.32947">
        <ele>576.93</ele>
        <time>2021-09-29T11:49:43Z</time>
      </trkpt>
      <trkpt lat="46.25763" lon="6.3295">
        <ele>576.93</ele>
        <time>2021-09-29T11:51:11Z</time>
      </trkpt>
      <trkpt lat="46.25752" lon="6.32972">
        <ele>576.93</ele>
        <time>2021-09-29T11:51:21Z</time>
      </trkpt>
      <trkpt lat="46.25736" lon="6.32982">
        <ele>576.93</ele>
        <time>2021-09-29T11:51:32Z</time>
      </trkpt>
      <trkpt lat="46.2572" lon="6.32968">
        <ele>576.93</ele>
        <time>2021-09-29T11:51:43Z</time>
      </trkpt>
      <trkpt lat="46.25709" lon="6.32994">
        <ele>576.93</ele>
        <time>2021-09-29T11:52:00Z</time>
      </trkpt>
      <trkpt lat="46.25698" lon="6.33023">
        <ele>576.93</ele>
        <time>2021-09-29T11:52:08Z</time>
      </trkpt>
      <trkpt lat="46.25697" lon="6.33025">
        <ele>576.93</ele>
        <time>2021-09-29T11:52:29Z</time>
      </trkpt>
      <trkpt lat="46.25706" lon="6.32997">
        <ele>576.93</ele>
        <time>2021-09-29T11:52:35Z</time>
      </trkpt>
      <trkpt lat="46.2572" lon="6.32989">
        <ele>576.93</ele>
        <time>2021-09-29T11:52:43Z</time>
      </trkpt>
      <trkpt lat="46.25741" lon="6.33004">
        <ele>576.93</ele>
        <time>2021-09-29T11:52:51Z</time>
      </trkpt>
      <trkpt lat="46.25751" lon="6.33027">
        <ele>576.93</ele>
        <time>2021-09-29T11:53:02Z</time>
      </trkpt>
      <trkpt lat="46.25742" lon="6.33051">
        <ele>576.93</ele>
        <time>2021-09-29T11:53:12Z</time>
      </trkpt>
      <trkpt lat="46.2575" lon="6.33028">
        <ele>576.93</ele>
        <time>2021-09-29T11:53:39Z</time>
      </trkpt>
      <trkpt lat="46.25757" lon="6.33003">
        <ele>576.93</ele>
        <time>2021-09-29T11:53:49Z</time>
      </trkpt>
      <trkpt lat="46.25766" lon="6.32978">
        <ele>576.93</ele>
        <time>2021-09-29T11:53:57Z</time>
      </trkpt>
      <trkpt lat="46.25774" lon="6.32951">
        <ele>576.93</ele>
        <time>2021-09-29T11:54:05Z</time>
      </trkpt>
      <trkpt lat="46.25778" lon="6.32922">
        <ele>576.93</ele>
        <time>2021-09-29T11:54:15Z</time>
      </trkpt>
      <trkpt lat="46.25774" lon="6.32894">
        <ele>576.93</ele>
        <time>2021-09-29T11:54:22Z</time>
      </trkpt>
      <trkpt lat="46.25766" lon="6.32867">
        <ele>576.93</ele>
        <time>2021-09-29T11:54:28Z</time>
      </trkpt>
      <trkpt lat="46.25756" lon="6.32843">
        <ele>576.93</ele>
        <time>2021-09-29T11:54:33Z</time>
      </trkpt>
      <trkpt lat="46.25744" lon="6.32817">
        <ele>576.93</ele>
        <time>2021-09-29T11:54:39Z</time>
      </trkpt>
      <trkpt lat="46.25735" lon="6.32794">
        <ele>576.93</ele>
        <time>2021-09-29T11:54:45Z</time>
      </trkpt>
      <trkpt lat="46.25726" lon="6.32768">
        <ele>576.93</ele>
        <time>2021-09-29T11:54:52Z</time>
      </trkpt>
      <trkpt lat="46.25717" lon="6.32743">
        <ele>576.93</ele>
        <time>2021-09-29T11:54:59Z</time>
      </trkpt>
      <trkpt lat="46.25711" lon="6.32718">
        <ele>576.93</ele>
        <time>2021-09-29T11:55:06Z</time>
      </trkpt>
      <trkpt lat="46.25706" lon="6.32693">
        <ele>576.93</ele>
        <time>2021-09-29T11:55:14Z</time>
      </trkpt>
      <trkpt lat="46.25704" lon="6.32668">
        <ele>576.93</ele>
        <time>2021-09-29T11:55:22Z</time>
      </trkpt>
      <trkpt lat="46.25707" lon="6.32641">
        <ele>589.43</ele>
        <time>2021-09-29T11:55:29Z</time>
      </trkpt>
      <trkpt lat="46.25719" lon="6.3262">
        <ele>590.52</ele>
        <time>2021-09-29T11:55:36Z</time>
      </trkpt>
      <trkpt lat="46.25735" lon="6.32603">
        <ele>592.26</ele>
        <time>2021-09-29T11:55:43Z</time>
      </trkpt>
      <trkpt lat="46.25751" lon="6.32593">
        <ele>593.72</ele>
        <time>2021-09-29T11:55:50Z</time>
      </trkpt>
      <trkpt lat="46.25767" lon="6.32608">
        <ele>595.39</ele>
        <time>2021-09-29T11:55:58Z</time>
      </trkpt>
      <trkpt lat="46.25784" lon="6.32626">
        <ele>596.42</ele>
        <time>2021-09-29T11:56:06Z</time>
      </trkpt>
      <trkpt lat="46.25799" lon="6.3264">
        <ele>597.01</ele>
        <time>2021-09-29T11:56:12Z</time>
      </trkpt>
      <trkpt lat="46.25815" lon="6.32655">
        <ele>597.78</ele>
        <time>2021-09-29T11:56:18Z</time>
      </trkpt>
      <trkpt lat="46.25832" lon="6.32671">
        <ele>598.53</ele>
        <time>2021-09-29T11:56:25Z</time>
      </trkpt>
      <trkpt lat="46.25849" lon="6.32683">
        <ele>599.64</ele>
        <time>2021-09-29T11:56:32Z</time>
      </trkpt>
      <trkpt lat="46.25865" lon="6.32694">
        <ele>600.42</ele>
        <time>2021-09-29T11:56:39Z</time>
      </trkpt>
      <trkpt lat="46.25882" lon="6.32706">
        <ele>600.94</ele>
        <time>2021-09-29T11:56:48Z</time>
      </trkpt>
      <trkpt lat="46.259" lon="6.3272">
        <ele>601.12</ele>
        <time>2021-09-29T11:56:55Z</time>
      </trkpt>
      <trkpt lat="46.25917" lon="6.32732">
        <ele>601.53</ele>
        <time>2021-09-29T11:57:02Z</time>
      </trkpt>
      <trkpt lat="46.25936" lon="6.32747">
        <ele>601.99</ele>
        <time>2021-09-29T11:57:08Z</time>
      </trkpt>
      <trkpt lat="46.25948" lon="6.32769">
        <ele>602.55</ele>
        <time>2021-09-29T11:57:14Z</time>
      </trkpt>
      <trkpt lat="46.25953" lon="6.32798">
        <ele>603.65</ele>
        <time>2021-09-29T11:57:23Z</time>
      </trkpt>
      <trkpt lat="46.2596" lon="6.32823">
        <ele>604.19</ele>
        <time>2021-09-29T11:57:29Z</time>
      </trkpt>
      <trkpt lat="46.2597" lon="6.32845">
        <ele>604.81</ele>
        <time>2021-09-29T11:57:35Z</time>
      </trkpt>
      <trkpt lat="46.25984" lon="6.32869">
        <ele>605.36</ele>
        <time>2021-09-29T11:57:41Z</time>
      </trkpt>
      <trkpt lat="46.25997" lon="6.32887">
        <ele>605.99</ele>
        <time>2021-09-29T11:57:45Z</time>
      </trkpt>
      <trkpt lat="46.26014" lon="6.32906">
        <ele>606.94</ele>
        <time>2021-09-29T11:57:50Z</time>
      </trkpt>
      <trkpt lat="46.26031" lon="6.32921">
        <ele>607.95</ele>
        <time>2021-09-29T11:57:58Z</time>
      </trkpt>
      <trkpt lat="46.26048" lon="6.32936">
        <ele>608.59</ele>
        <time>2021-09-29T11:58:04Z</time>
      </trkpt>
      <trkpt lat="46.26064" lon="6.32949">
        <ele>609.39</ele>
        <time>2021-09-29T11:58:09Z</time>
      </trkpt>
      <trkpt lat="46.2608" lon="6.32961">
        <ele>610.29</ele>
        <time>2021-09-29T11:58:14Z</time>
      </trkpt>
      <trkpt lat="46.26099" lon="6.32974">
        <ele>610.89</ele>
        <time>2021-09-29T11:58:19Z</time>
      </trkpt>
      <trkpt lat="46.26117" lon="6.32984">
        <ele>611.9</ele>
        <time>2021-09-29T11:58:25Z</time>
      </trkpt>
      <trkpt lat="46.26135" lon="6.32993">
        <ele>612.97</ele>
        <time>2021-09-29T11:58:31Z</time>
      </trkpt>
      <trkpt lat="46.26154" lon="6.33002">
        <ele>613.72</ele>
        <time>2021-09-29T11:58:36Z</time>
      </trkpt>
      <trkpt lat="46.26172" lon="6.3301">
        <ele>614.18</ele>
        <time>2021-09-29T11:58:41Z</time>
      </trkpt>
      <trkpt lat="46.2619" lon="6.3302">
        <ele>614.78</ele>
        <time>2021-09-29T11:58:47Z</time>
      </trkpt>
      <trkpt lat="46.26208" lon="6.33028">
        <ele>615.36</ele>
        <time>2021-09-29T11:58:53Z</time>
      </trkpt>
      <trkpt lat="46.26229" lon="6.33038">
        <ele>616.2</ele>
        <time>2021-09-29T11:58:59Z</time>
      </trkpt>
      <trkpt lat="46.26247" lon="6.33047">
        <ele>616.94</ele>
        <time>2021-09-29T11:59:04Z</time>
      </trkpt>
      <trkpt lat="46.26265" lon="6.33059">
        <ele>617.98</ele>
        <time>2021-09-29T11:59:10Z</time>
      </trkpt>
      <trkpt lat="46.26283" lon="6.33075">
        <ele>618.86</ele>
        <time>2021-09-29T11:59:16Z</time>
      </trkpt>
      <trkpt lat="46.26298" lon="6.33093">
        <ele>619.68</ele>
        <time>2021-09-29T11:59:22Z</time>
      </trkpt>
      <trkpt lat="46.26315" lon="6.33114">
        <ele>620</ele>
        <time>2021-09-29T11:59:27Z</time>
      </trkpt>
      <trkpt lat="46.26329" lon="6.33133">
        <ele>620.3</ele>
        <time>2021-09-29T11:59:32Z</time>
      </trkpt>
      <trkpt lat="46.26345" lon="6.33154">
        <ele>620.59</ele>
        <time>2021-09-29T11:59:37Z</time>
      </trkpt>
      <trkpt lat="46.26359" lon="6.33171">
        <ele>620.84</ele>
        <time>2021-09-29T11:59:41Z</time>
      </trkpt>
      <trkpt lat="46.26373" lon="6.3319">
        <ele>621.09</ele>
        <time>2021-09-29T11:59:46Z</time>
      </trkpt>
      <trkpt lat="46.26387" lon="6.33209">
        <ele>621.22</ele>
        <time>2021-09-29T11:59:51Z</time>
      </trkpt>
      <trkpt lat="46.264" lon="6.33228">
        <ele>621.24</ele>
        <time>2021-09-29T11:59:55Z</time>
      </trkpt>
      <trkpt lat="46.26414" lon="6.33249">
        <ele>621.43</ele>
        <time>2021-09-29T11:59:59Z</time>
      </trkpt>
      <trkpt lat="46.26426" lon="6.33269">
        <ele>621.54</ele>
        <time>2021-09-29T12:00:03Z</time>
      </trkpt>
      <trkpt lat="46.26437" lon="6.33292">
        <ele>621.59</ele>
        <time>2021-09-29T12:00:08Z</time>
      </trkpt>
      <trkpt lat="46.26447" lon="6.33319">
        <ele>621.71</ele>
        <time>2021-09-29T12:00:14Z</time>
      </trkpt>
      <trkpt lat="46.26456" lon="6.33346">
        <ele>621.97</ele>
        <time>2021-09-29T12:00:20Z</time>
      </trkpt>
      <trkpt lat="46.2647" lon="6.33347">
        <ele>622.56</ele>
        <time>2021-09-29T12:00:33Z</time>
      </trkpt>
      <trkpt lat="46.26459" lon="6.33338">
        <ele>622.68</ele>
        <time>2021-09-29T12:24:14Z</time>
      </trkpt>
      <trkpt lat="46.2645" lon="6.33313">
        <ele>622.68</ele>
        <time>2021-09-29T12:24:24Z</time>
      </trkpt>
      <trkpt lat="46.26439" lon="6.33286">
        <ele>622.68</ele>
        <time>2021-09-29T12:24:30Z</time>
      </trkpt>
      <trkpt lat="46.26426" lon="6.33262">
        <ele>622.68</ele>
        <time>2021-09-29T12:24:35Z</time>
      </trkpt>
      <trkpt lat="46.26413" lon="6.3324">
        <ele>622.68</ele>
        <time>2021-09-29T12:24:41Z</time>
      </trkpt>
      <trkpt lat="46.26399" lon="6.33218">
        <ele>622.68</ele>
        <time>2021-09-29T12:24:47Z</time>
      </trkpt>
      <trkpt lat="46.26384" lon="6.33197">
        <ele>622.68</ele>
        <time>2021-09-29T12:24:52Z</time>
      </trkpt>
      <trkpt lat="46.2637" lon="6.33179">
        <ele>622.68</ele>
        <time>2021-09-29T12:24:57Z</time>
      </trkpt>
      <trkpt lat="46.26356" lon="6.33161">
        <ele>622.68</ele>
        <time>2021-09-29T12:25:02Z</time>
      </trkpt>
      <trkpt lat="46.26342" lon="6.33143">
        <ele>622.68</ele>
        <time>2021-09-29T12:25:07Z</time>
      </trkpt>
      <trkpt lat="46.26327" lon="6.33124">
        <ele>622.68</ele>
        <time>2021-09-29T12:25:12Z</time>
      </trkpt>
      <trkpt lat="46.26313" lon="6.33106">
        <ele>622.68</ele>
        <time>2021-09-29T12:25:17Z</time>
      </trkpt>
      <trkpt lat="46.26297" lon="6.33085">
        <ele>622.68</ele>
        <time>2021-09-29T12:25:23Z</time>
      </trkpt>
      <trkpt lat="46.26281" lon="6.33068">
        <ele>622.68</ele>
        <time>2021-09-29T12:25:28Z</time>
      </trkpt>
      <trkpt lat="46.26265" lon="6.33053">
        <ele>622.68</ele>
        <time>2021-09-29T12:25:33Z</time>
      </trkpt>
      <trkpt lat="46.26247" lon="6.33041">
        <ele>622.68</ele>
        <time>2021-09-29T12:25:38Z</time>
      </trkpt>
      <trkpt lat="46.26225" lon="6.33031">
        <ele>622.68</ele>
        <time>2021-09-29T12:25:43Z</time>
      </trkpt>
      <trkpt lat="46.26207" lon="6.33022">
        <ele>622.68</ele>
        <time>2021-09-29T12:25:47Z</time>
      </trkpt>
      <trkpt lat="46.26187" lon="6.33012">
        <ele>622.68</ele>
        <time>2021-09-29T12:25:51Z</time>
      </trkpt>
      <trkpt lat="46.26166" lon="6.33003">
        <ele>615.38</ele>
        <time>2021-09-29T12:25:55Z</time>
      </trkpt>
      <trkpt lat="46.26146" lon="6.32994">
        <ele>614.8</ele>
        <time>2021-09-29T12:25:59Z</time>
      </trkpt>
      <trkpt lat="46.26128" lon="6.32985">
        <ele>614.64</ele>
        <time>2021-09-29T12:26:03Z</time>
      </trkpt>
      <trkpt lat="46.2611" lon="6.32976">
        <ele>614.13</ele>
        <time>2021-09-29T12:26:07Z</time>
      </trkpt>
      <trkpt lat="46.26093" lon="6.32966">
        <ele>613.59</ele>
        <time>2021-09-29T12:26:11Z</time>
      </trkpt>
      <trkpt lat="46.26075" lon="6.32954">
        <ele>613.04</ele>
        <time>2021-09-29T12:26:15Z</time>
      </trkpt>
      <trkpt lat="46.26057" lon="6.3294">
        <ele>612.47</ele>
        <time>2021-09-29T12:26:19Z</time>
      </trkpt>
      <trkpt lat="46.26039" lon="6.32924">
        <ele>611.84</ele>
        <time>2021-09-29T12:26:23Z</time>
      </trkpt>
      <trkpt lat="46.2602" lon="6.32908">
        <ele>610.88</ele>
        <time>2021-09-29T12:26:27Z</time>
      </trkpt>
      <trkpt lat="46.26002" lon="6.32888">
        <ele>609.65</ele>
        <time>2021-09-29T12:26:31Z</time>
      </trkpt>
      <trkpt lat="46.25985" lon="6.32865">
        <ele>608.66</ele>
        <time>2021-09-29T12:26:35Z</time>
      </trkpt>
      <trkpt lat="46.2597" lon="6.32839">
        <ele>607.51</ele>
        <time>2021-09-29T12:26:39Z</time>
      </trkpt>
      <trkpt lat="46.25957" lon="6.32812">
        <ele>606.52</ele>
        <time>2021-09-29T12:26:43Z</time>
      </trkpt>
      <trkpt lat="46.2595" lon="6.32782">
        <ele>605.9</ele>
        <time>2021-09-29T12:26:47Z</time>
      </trkpt>
      <trkpt lat="46.25943" lon="6.32751">
        <ele>605.34</ele>
        <time>2021-09-29T12:26:51Z</time>
      </trkpt>
      <trkpt lat="46.25926" lon="6.32735">
        <ele>604.93</ele>
        <time>2021-09-29T12:26:55Z</time>
      </trkpt>
      <trkpt lat="46.25907" lon="6.32722">
        <ele>604</ele>
        <time>2021-09-29T12:26:59Z</time>
      </trkpt>
      <trkpt lat="46.25889" lon="6.32708">
        <ele>603.16</ele>
        <time>2021-09-29T12:27:03Z</time>
      </trkpt>
      <trkpt lat="46.25872" lon="6.32696">
        <ele>602.69</ele>
        <time>2021-09-29T12:27:07Z</time>
      </trkpt>
      <trkpt lat="46.25854" lon="6.32685">
        <ele>602.33</ele>
        <time>2021-09-29T12:27:11Z</time>
      </trkpt>
      <trkpt lat="46.25839" lon="6.32672">
        <ele>601.9</ele>
        <time>2021-09-29T12:27:15Z</time>
      </trkpt>
      <trkpt lat="46.25819" lon="6.32655">
        <ele>601.47</ele>
        <time>2021-09-29T12:27:20Z</time>
      </trkpt>
      <trkpt lat="46.25802" lon="6.3264">
        <ele>600.66</ele>
        <time>2021-09-29T12:27:24Z</time>
      </trkpt>
      <trkpt lat="46.25785" lon="6.32623">
        <ele>599.97</ele>
        <time>2021-09-29T12:27:28Z</time>
      </trkpt>
      <trkpt lat="46.25768" lon="6.32606">
        <ele>599.05</ele>
        <time>2021-09-29T12:27:32Z</time>
      </trkpt>
      <trkpt lat="46.25754" lon="6.32587">
        <ele>598.08</ele>
        <time>2021-09-29T12:27:36Z</time>
      </trkpt>
      <trkpt lat="46.25746" lon="6.32563">
        <ele>597.27</ele>
        <time>2021-09-29T12:27:40Z</time>
      </trkpt>
      <trkpt lat="46.25733" lon="6.32542">
        <ele>596.65</ele>
        <time>2021-09-29T12:27:44Z</time>
      </trkpt>
      <trkpt lat="46.25718" lon="6.32523">
        <ele>595.72</ele>
        <time>2021-09-29T12:27:48Z</time>
      </trkpt>
      <trkpt lat="46.25703" lon="6.32505">
        <ele>594.95</ele>
        <time>2021-09-29T12:27:52Z</time>
      </trkpt>
      <trkpt lat="46.25687" lon="6.32486">
        <ele>594.07</ele>
        <time>2021-09-29T12:27:56Z</time>
      </trkpt>
      <trkpt lat="46.25669" lon="6.32468">
        <ele>593.25</ele>
        <time>2021-09-29T12:28:00Z</time>
      </trkpt>
      <trkpt lat="46.2565" lon="6.32458">
        <ele>592.52</ele>
        <time>2021-09-29T12:28:05Z</time>
      </trkpt>
      <trkpt lat="46.25633" lon="6.32451">
        <ele>591.87</ele>
        <time>2021-09-29T12:28:10Z</time>
      </trkpt>
      <trkpt lat="46.25614" lon="6.32448">
        <ele>591.53</ele>
        <time>2021-09-29T12:28:15Z</time>
      </trkpt>
      <trkpt lat="46.25595" lon="6.32449">
        <ele>591.16</ele>
        <time>2021-09-29T12:28:20Z</time>
      </trkpt>
      <trkpt lat="46.25576" lon="6.32449">
        <ele>590.5</ele>
        <time>2021-09-29T12:28:27Z</time>
      </trkpt>
      <trkpt lat="46.25595" lon="6.32454">
        <ele>589.97</ele>
        <time>2021-09-29T12:28:49Z</time>
      </trkpt>
      <trkpt lat="46.25617" lon="6.32454">
        <ele>590.22</ele>
        <time>2021-09-29T12:28:54Z</time>
      </trkpt>
      <trkpt lat="46.25636" lon="6.32457">
        <ele>590.52</ele>
        <time>2021-09-29T12:28:58Z</time>
      </trkpt>
      <trkpt lat="46.25655" lon="6.32464">
        <ele>590.81</ele>
        <time>2021-09-29T12:29:03Z</time>
      </trkpt>
      <trkpt lat="46.25674" lon="6.32476">
        <ele>591.06</ele>
        <time>2021-09-29T12:29:09Z</time>
      </trkpt>
      <trkpt lat="46.2569" lon="6.32492">
        <ele>591.31</ele>
        <time>2021-09-29T12:29:14Z</time>
      </trkpt>
      <trkpt lat="46.25706" lon="6.32508">
        <ele>591.84</ele>
        <time>2021-09-29T12:29:19Z</time>
      </trkpt>
      <trkpt lat="46.25721" lon="6.32527">
        <ele>592.53</ele>
        <time>2021-09-29T12:29:25Z</time>
      </trkpt>
      <trkpt lat="46.25736" lon="6.32547">
        <ele>593.61</ele>
        <time>2021-09-29T12:29:31Z</time>
      </trkpt>
      <trkpt lat="46.25748" lon="6.32568">
        <ele>594.74</ele>
        <time>2021-09-29T12:29:37Z</time>
      </trkpt>
      <trkpt lat="46.25756" lon="6.32592">
        <ele>595.53</ele>
        <time>2021-09-29T12:29:46Z</time>
      </trkpt>
      <trkpt lat="46.25767" lon="6.3261">
        <ele>596.2</ele>
        <time>2021-09-29T12:29:56Z</time>
      </trkpt>
      <trkpt lat="46.25764" lon="6.32599">
        <ele>596.7</ele>
        <time>2021-09-29T12:30:05Z</time>
      </trkpt>
      <trkpt lat="46.25757" lon="6.3257">
        <ele>596.63</ele>
        <time>2021-09-29T12:30:11Z</time>
      </trkpt>
      <trkpt lat="46.25766" lon="6.32542">
        <ele>596.38</ele>
        <time>2021-09-29T12:30:16Z</time>
      </trkpt>
      <trkpt lat="46.25776" lon="6.32513">
        <ele>595.93</ele>
        <time>2021-09-29T12:30:21Z</time>
      </trkpt>
      <trkpt lat="46.25784" lon="6.32485">
        <ele>595.54</ele>
        <time>2021-09-29T12:30:26Z</time>
      </trkpt>
      <trkpt lat="46.25791" lon="6.3246">
        <ele>594.89</ele>
        <time>2021-09-29T12:30:30Z</time>
      </trkpt>
      <trkpt lat="46.258" lon="6.32434">
        <ele>594.3</ele>
        <time>2021-09-29T12:30:34Z</time>
      </trkpt>
      <trkpt lat="46.2581" lon="6.32408">
        <ele>593.61</ele>
        <time>2021-09-29T12:30:38Z</time>
      </trkpt>
      <trkpt lat="46.25818" lon="6.32381">
        <ele>593.12</ele>
        <time>2021-09-29T12:30:42Z</time>
      </trkpt>
      <trkpt lat="46.25826" lon="6.32355">
        <ele>592.69</ele>
        <time>2021-09-29T12:30:46Z</time>
      </trkpt>
      <trkpt lat="46.25833" lon="6.3233">
        <ele>592.3</ele>
        <time>2021-09-29T12:30:50Z</time>
      </trkpt>
      <trkpt lat="46.25839" lon="6.32304">
        <ele>591.66</ele>
        <time>2021-09-29T12:30:54Z</time>
      </trkpt>
      <trkpt lat="46.25849" lon="6.32276">
        <ele>591.13</ele>
        <time>2021-09-29T12:30:58Z</time>
      </trkpt>
      <trkpt lat="46.2586" lon="6.32256">
        <ele>590.42</ele>
        <time>2021-09-29T12:31:01Z</time>
      </trkpt>
      <trkpt lat="46.25871" lon="6.32235">
        <ele>588.62</ele>
        <time>2021-09-29T12:31:05Z</time>
      </trkpt>
      <trkpt lat="46.25876" lon="6.3221">
        <ele>585.59</ele>
        <time>2021-09-29T12:31:12Z</time>
      </trkpt>
      <trkpt lat="46.25872" lon="6.32178">
        <ele>584.45</ele>
        <time>2021-09-29T12:31:17Z</time>
      </trkpt>
      <trkpt lat="46.25862" lon="6.32151">
        <ele>583.88</ele>
        <time>2021-09-29T12:31:22Z</time>
      </trkpt>
      <trkpt lat="46.25851" lon="6.32126">
        <ele>583.3</ele>
        <time>2021-09-29T12:31:28Z</time>
      </trkpt>
      <trkpt lat="46.25841" lon="6.321">
        <ele>583.53</ele>
        <time>2021-09-29T12:31:35Z</time>
      </trkpt>
      <trkpt lat="46.25836" lon="6.32073">
        <ele>584.12</ele>
        <time>2021-09-29T12:31:41Z</time>
      </trkpt>
      <trkpt lat="46.25833" lon="6.32046">
        <ele>584.49</ele>
        <time>2021-09-29T12:31:47Z</time>
      </trkpt>
      <trkpt lat="46.25832" lon="6.32017">
        <ele>584.08</ele>
        <time>2021-09-29T12:31:53Z</time>
      </trkpt>
      <trkpt lat="46.25825" lon="6.31991">
        <ele>583.51</ele>
        <time>2021-09-29T12:31:58Z</time>
      </trkpt>
      <trkpt lat="46.25815" lon="6.31966">
        <ele>583.05</ele>
        <time>2021-09-29T12:32:02Z</time>
      </trkpt>
      <trkpt lat="46.25804" lon="6.3194">
        <ele>582.25</ele>
        <time>2021-09-29T12:32:06Z</time>
      </trkpt>
      <trkpt lat="46.25791" lon="6.31918">
        <ele>581.7</ele>
        <time>2021-09-29T12:32:10Z</time>
      </trkpt>
      <trkpt lat="46.25777" lon="6.31898">
        <ele>581.33</ele>
        <time>2021-09-29T12:32:14Z</time>
      </trkpt>
      <trkpt lat="46.25764" lon="6.31878">
        <ele>580.93</ele>
        <time>2021-09-29T12:32:18Z</time>
      </trkpt>
      <trkpt lat="46.25749" lon="6.31857">
        <ele>580.16</ele>
        <time>2021-09-29T12:32:23Z</time>
      </trkpt>
      <trkpt lat="46.25737" lon="6.31835">
        <ele>579.51</ele>
        <time>2021-09-29T12:32:27Z</time>
      </trkpt>
      <trkpt lat="46.25725" lon="6.31808">
        <ele>579.13</ele>
        <time>2021-09-29T12:32:32Z</time>
      </trkpt>
      <trkpt lat="46.25714" lon="6.31786">
        <ele>578.78</ele>
        <time>2021-09-29T12:32:36Z</time>
      </trkpt>
      <trkpt lat="46.257" lon="6.31764">
        <ele>578.31</ele>
        <time>2021-09-29T12:32:40Z</time>
      </trkpt>
      <trkpt lat="46.25681" lon="6.31749">
        <ele>577.58</ele>
        <time>2021-09-29T12:32:44Z</time>
      </trkpt>
      <trkpt lat="46.25664" lon="6.31737">
        <ele>576.91</ele>
        <time>2021-09-29T12:32:48Z</time>
      </trkpt>
      <trkpt lat="46.25649" lon="6.31721">
        <ele>576.37</ele>
        <time>2021-09-29T12:32:52Z</time>
      </trkpt>
      <trkpt lat="46.25632" lon="6.317">
        <ele>575.88</ele>
        <time>2021-09-29T12:32:57Z</time>
      </trkpt>
      <trkpt lat="46.25619" lon="6.31679">
        <ele>575.63</ele>
        <time>2021-09-29T12:33:01Z</time>
      </trkpt>
      <trkpt lat="46.25601" lon="6.31655">
        <ele>575.43</ele>
        <time>2021-09-29T12:33:05Z</time>
      </trkpt>
      <trkpt lat="46.25586" lon="6.31629">
        <ele>575.14</ele>
        <time>2021-09-29T12:33:09Z</time>
      </trkpt>
      <trkpt lat="46.25571" lon="6.31604">
        <ele>574.75</ele>
        <time>2021-09-29T12:33:13Z</time>
      </trkpt>
      <trkpt lat="46.25561" lon="6.31578">
        <ele>573.85</ele>
        <time>2021-09-29T12:33:17Z</time>
      </trkpt>
      <trkpt lat="46.25558" lon="6.31551">
        <ele>573.21</ele>
        <time>2021-09-29T12:33:21Z</time>
      </trkpt>
      <trkpt lat="46.25554" lon="6.3152">
        <ele>572.6</ele>
        <time>2021-09-29T12:33:26Z</time>
      </trkpt>
      <trkpt lat="46.25548" lon="6.31492">
        <ele>572.33</ele>
        <time>2021-09-29T12:33:30Z</time>
      </trkpt>
      <trkpt lat="46.25542" lon="6.3146">
        <ele>572.14</ele>
        <time>2021-09-29T12:33:34Z</time>
      </trkpt>
      <trkpt lat="46.2553" lon="6.31438">
        <ele>571.64</ele>
        <time>2021-09-29T12:33:38Z</time>
      </trkpt>
      <trkpt lat="46.25513" lon="6.31424">
        <ele>570.86</ele>
        <time>2021-09-29T12:33:44Z</time>
      </trkpt>
      <trkpt lat="46.25497" lon="6.31411">
        <ele>570.83</ele>
        <time>2021-09-29T12:33:49Z</time>
      </trkpt>
      <trkpt lat="46.25478" lon="6.31394">
        <ele>570.93</ele>
        <time>2021-09-29T12:33:54Z</time>
      </trkpt>
      <trkpt lat="46.25462" lon="6.31381">
        <ele>570.97</ele>
        <time>2021-09-29T12:33:58Z</time>
      </trkpt>
      <trkpt lat="46.25443" lon="6.31364">
        <ele>571.03</ele>
        <time>2021-09-29T12:34:03Z</time>
      </trkpt>
      <trkpt lat="46.25426" lon="6.31349">
        <ele>571.14</ele>
        <time>2021-09-29T12:34:07Z</time>
      </trkpt>
      <trkpt lat="46.25408" lon="6.31332">
        <ele>571.08</ele>
        <time>2021-09-29T12:34:11Z</time>
      </trkpt>
      <trkpt lat="46.25391" lon="6.31317">
        <ele>570.96</ele>
        <time>2021-09-29T12:34:15Z</time>
      </trkpt>
      <trkpt lat="46.25377" lon="6.31302">
        <ele>570.75</ele>
        <time>2021-09-29T12:34:19Z</time>
      </trkpt>
      <trkpt lat="46.25359" lon="6.31283">
        <ele>570.5</ele>
        <time>2021-09-29T12:34:24Z</time>
      </trkpt>
      <trkpt lat="46.25352" lon="6.31257">
        <ele>570.37</ele>
        <time>2021-09-29T12:34:28Z</time>
      </trkpt>
      <trkpt lat="46.25363" lon="6.3123">
        <ele>570.17</ele>
        <time>2021-09-29T12:34:32Z</time>
      </trkpt>
      <trkpt lat="46.25376" lon="6.31202">
        <ele>569.88</ele>
        <time>2021-09-29T12:34:36Z</time>
      </trkpt>
      <trkpt lat="46.25388" lon="6.31174">
        <ele>569.31</ele>
        <time>2021-09-29T12:34:40Z</time>
      </trkpt>
      <trkpt lat="46.25398" lon="6.31152">
        <ele>568.84</ele>
        <time>2021-09-29T12:34:43Z</time>
      </trkpt>
      <trkpt lat="46.25408" lon="6.31128">
        <ele>568.06</ele>
        <time>2021-09-29T12:34:46Z</time>
      </trkpt>
      <trkpt lat="46.25419" lon="6.31103">
        <ele>567.09</ele>
        <time>2021-09-29T12:34:49Z</time>
      </trkpt>
      <trkpt lat="46.2543" lon="6.31077">
        <ele>566.15</ele>
        <time>2021-09-29T12:34:52Z</time>
      </trkpt>
      <trkpt lat="46.25441" lon="6.31049">
        <ele>565.05</ele>
        <time>2021-09-29T12:34:55Z</time>
      </trkpt>
      <trkpt lat="46.25452" lon="6.3102">
        <ele>563.93</ele>
        <time>2021-09-29T12:34:58Z</time>
      </trkpt>
      <trkpt lat="46.25464" lon="6.30993">
        <ele>562.89</ele>
        <time>2021-09-29T12:35:01Z</time>
      </trkpt>
      <trkpt lat="46.25476" lon="6.30965">
        <ele>561.74</ele>
        <time>2021-09-29T12:35:04Z</time>
      </trkpt>
      <trkpt lat="46.25487" lon="6.30937">
        <ele>560.38</ele>
        <time>2021-09-29T12:35:07Z</time>
      </trkpt>
      <trkpt lat="46.25499" lon="6.30911">
        <ele>559.09</ele>
        <time>2021-09-29T12:35:10Z</time>
      </trkpt>
      <trkpt lat="46.2551" lon="6.30885">
        <ele>558.2</ele>
        <time>2021-09-29T12:35:13Z</time>
      </trkpt>
      <trkpt lat="46.25519" lon="6.30858">
        <ele>557.32</ele>
        <time>2021-09-29T12:35:16Z</time>
      </trkpt>
      <trkpt lat="46.25523" lon="6.30829">
        <ele>556.65</ele>
        <time>2021-09-29T12:35:19Z</time>
      </trkpt>
      <trkpt lat="46.25526" lon="6.30798">
        <ele>555.82</ele>
        <time>2021-09-29T12:35:22Z</time>
      </trkpt>
      <trkpt lat="46.25533" lon="6.30767">
        <ele>554.75</ele>
        <time>2021-09-29T12:35:25Z</time>
      </trkpt>
      <trkpt lat="46.25542" lon="6.30736">
        <ele>553.72</ele>
        <time>2021-09-29T12:35:28Z</time>
      </trkpt>
      <trkpt lat="46.25552" lon="6.30706">
        <ele>552.7</ele>
        <time>2021-09-29T12:35:31Z</time>
      </trkpt>
      <trkpt lat="46.25559" lon="6.30672">
        <ele>551.73</ele>
        <time>2021-09-29T12:35:34Z</time>
      </trkpt>
      <trkpt lat="46.25561" lon="6.30637">
        <ele>550.64</ele>
        <time>2021-09-29T12:35:37Z</time>
      </trkpt>
      <trkpt lat="46.25562" lon="6.30601">
        <ele>549.62</ele>
        <time>2021-09-29T12:35:40Z</time>
      </trkpt>
      <trkpt lat="46.25566" lon="6.30565">
        <ele>548.5</ele>
        <time>2021-09-29T12:35:43Z</time>
      </trkpt>
      <trkpt lat="46.25572" lon="6.30528">
        <ele>547.38</ele>
        <time>2021-09-29T12:35:46Z</time>
      </trkpt>
      <trkpt lat="46.25577" lon="6.30501">
        <ele>546.51</ele>
        <time>2021-09-29T12:35:48Z</time>
      </trkpt>
      <trkpt lat="46.25585" lon="6.30476">
        <ele>545.44</ele>
        <time>2021-09-29T12:35:50Z</time>
      </trkpt>
      <trkpt lat="46.25596" lon="6.30455">
        <ele>543.74</ele>
        <time>2021-09-29T12:35:53Z</time>
      </trkpt>
      <trkpt lat="46.2561" lon="6.3044">
        <ele>541.61</ele>
        <time>2021-09-29T12:35:59Z</time>
      </trkpt>
      <trkpt lat="46.25623" lon="6.30417">
        <ele>541.74</ele>
        <time>2021-09-29T12:36:05Z</time>
      </trkpt>
      <trkpt lat="46.25634" lon="6.30389">
        <ele>542.8</ele>
        <time>2021-09-29T12:36:10Z</time>
      </trkpt>
      <trkpt lat="46.25643" lon="6.30366">
        <ele>543.24</ele>
        <time>2021-09-29T12:36:14Z</time>
      </trkpt>
      <trkpt lat="46.25652" lon="6.30337">
        <ele>542.67</ele>
        <time>2021-09-29T12:36:19Z</time>
      </trkpt>
      <trkpt lat="46.25661" lon="6.30307">
        <ele>541.72</ele>
        <time>2021-09-29T12:36:24Z</time>
      </trkpt>
      <trkpt lat="46.25669" lon="6.30278">
        <ele>541.07</ele>
        <time>2021-09-29T12:36:29Z</time>
      </trkpt>
      <trkpt lat="46.25677" lon="6.30251">
        <ele>540.55</ele>
        <time>2021-09-29T12:36:34Z</time>
      </trkpt>
      <trkpt lat="46.25683" lon="6.30228">
        <ele>540.08</ele>
        <time>2021-09-29T12:36:39Z</time>
      </trkpt>
      <trkpt lat="46.2569" lon="6.30201">
        <ele>539.69</ele>
        <time>2021-09-29T12:36:44Z</time>
      </trkpt>
      <trkpt lat="46.25698" lon="6.30175">
        <ele>539.22</ele>
        <time>2021-09-29T12:36:48Z</time>
      </trkpt>
      <trkpt lat="46.25705" lon="6.30149">
        <ele>538.93</ele>
        <time>2021-09-29T12:36:52Z</time>
      </trkpt>
      <trkpt lat="46.25713" lon="6.30122">
        <ele>538.39</ele>
        <time>2021-09-29T12:36:56Z</time>
      </trkpt>
      <trkpt lat="46.2572" lon="6.30096">
        <ele>537.83</ele>
        <time>2021-09-29T12:37:00Z</time>
      </trkpt>
      <trkpt lat="46.25728" lon="6.30067">
        <ele>537.23</ele>
        <time>2021-09-29T12:37:05Z</time>
      </trkpt>
      <trkpt lat="46.25735" lon="6.30042">
        <ele>537.12</ele>
        <time>2021-09-29T12:37:10Z</time>
      </trkpt>
      <trkpt lat="46.25743" lon="6.30015">
        <ele>536.32</ele>
        <time>2021-09-29T12:37:15Z</time>
      </trkpt>
      <trkpt lat="46.2575" lon="6.2999">
        <ele>535.82</ele>
        <time>2021-09-29T12:37:19Z</time>
      </trkpt>
      <trkpt lat="46.25758" lon="6.29963">
        <ele>535.26</ele>
        <time>2021-09-29T12:37:23Z</time>
      </trkpt>
      <trkpt lat="46.25765" lon="6.29938">
        <ele>534.64</ele>
        <time>2021-09-29T12:37:27Z</time>
      </trkpt>
      <trkpt lat="46.25773" lon="6.29914">
        <ele>533.87</ele>
        <time>2021-09-29T12:37:31Z</time>
      </trkpt>
      <trkpt lat="46.2578" lon="6.29889">
        <ele>533.1</ele>
        <time>2021-09-29T12:37:35Z</time>
      </trkpt>
      <trkpt lat="46.25788" lon="6.29864">
        <ele>532.38</ele>
        <time>2021-09-29T12:37:39Z</time>
      </trkpt>
      <trkpt lat="46.25796" lon="6.29838">
        <ele>531.56</ele>
        <time>2021-09-29T12:37:43Z</time>
      </trkpt>
      <trkpt lat="46.25802" lon="6.29814">
        <ele>530.41</ele>
        <time>2021-09-29T12:37:49Z</time>
      </trkpt>
      <trkpt lat="46.258" lon="6.29789">
        <ele>528.16</ele>
        <time>2021-09-29T12:38:15Z</time>
      </trkpt>
      <trkpt lat="46.25785" lon="6.29771">
        <ele>528.27</ele>
        <time>2021-09-29T12:38:21Z</time>
      </trkpt>
      <trkpt lat="46.25767" lon="6.29761">
        <ele>528.26</ele>
        <time>2021-09-29T12:38:27Z</time>
      </trkpt>
      <trkpt lat="46.25748" lon="6.29748">
        <ele>528.67</ele>
        <time>2021-09-29T12:38:32Z</time>
      </trkpt>
      <trkpt lat="46.25729" lon="6.29734">
        <ele>529.21</ele>
        <time>2021-09-29T12:38:37Z</time>
      </trkpt>
      <trkpt lat="46.25712" lon="6.29722">
        <ele>529.11</ele>
        <time>2021-09-29T12:38:43Z</time>
      </trkpt>
      <trkpt lat="46.25693" lon="6.29711">
        <ele>529.05</ele>
        <time>2021-09-29T12:38:49Z</time>
      </trkpt>
      <trkpt lat="46.25673" lon="6.29698">
        <ele>529.38</ele>
        <time>2021-09-29T12:38:54Z</time>
      </trkpt>
      <trkpt lat="46.25656" lon="6.29685">
        <ele>529.67</ele>
        <time>2021-09-29T12:39:00Z</time>
      </trkpt>
      <trkpt lat="46.25637" lon="6.29671">
        <ele>529.45</ele>
        <time>2021-09-29T12:39:07Z</time>
      </trkpt>
      <trkpt lat="46.25619" lon="6.2966">
        <ele>529.2</ele>
        <time>2021-09-29T12:39:12Z</time>
      </trkpt>
      <trkpt lat="46.25601" lon="6.29642">
        <ele>528.83</ele>
        <time>2021-09-29T12:39:17Z</time>
      </trkpt>
      <trkpt lat="46.25591" lon="6.29616">
        <ele>527.99</ele>
        <time>2021-09-29T12:39:21Z</time>
      </trkpt>
      <trkpt lat="46.25585" lon="6.29597">
        <ele>525.78</ele>
        <time>2021-09-29T12:39:33Z</time>
      </trkpt>
      <trkpt lat="46.25574" lon="6.29574">
        <ele>525.74</ele>
        <time>2021-09-29T12:39:44Z</time>
      </trkpt>
      <trkpt lat="46.25555" lon="6.29556">
        <ele>525.72</ele>
        <time>2021-09-29T12:39:54Z</time>
      </trkpt>
      <trkpt lat="46.25534" lon="6.29534">
        <ele>525.92</ele>
        <time>2021-09-29T12:40:00Z</time>
      </trkpt>
      <trkpt lat="46.25523" lon="6.29505">
        <ele>526.09</ele>
        <time>2021-09-29T12:40:05Z</time>
      </trkpt>
      <trkpt lat="46.25515" lon="6.29474">
        <ele>525.06</ele>
        <time>2021-09-29T12:41:19Z</time>
      </trkpt>
      <trkpt lat="46.2552" lon="6.2944">
        <ele>524.88</ele>
        <time>2021-09-29T12:41:39Z</time>
      </trkpt>
      <trkpt lat="46.25529" lon="6.29412">
        <ele>524.81</ele>
        <time>2021-09-29T12:41:44Z</time>
      </trkpt>
      <trkpt lat="46.25541" lon="6.29383">
        <ele>524.78</ele>
        <time>2021-09-29T12:41:49Z</time>
      </trkpt>
      <trkpt lat="46.25553" lon="6.29353">
        <ele>524.69</ele>
        <time>2021-09-29T12:41:55Z</time>
      </trkpt>
      <trkpt lat="46.25557" lon="6.29324">
        <ele>524.12</ele>
        <time>2021-09-29T12:42:01Z</time>
      </trkpt>
      <trkpt lat="46.25556" lon="6.29293">
        <ele>523.68</ele>
        <time>2021-09-29T12:42:08Z</time>
      </trkpt>
      <trkpt lat="46.25544" lon="6.29264">
        <ele>523.34</ele>
        <time>2021-09-29T12:42:17Z</time>
      </trkpt>
      <trkpt lat="46.2553" lon="6.29238">
        <ele>522.87</ele>
        <time>2021-09-29T12:42:27Z</time>
      </trkpt>
      <trkpt lat="46.25515" lon="6.29216">
        <ele>522.71</ele>
        <time>2021-09-29T12:42:33Z</time>
      </trkpt>
      <trkpt lat="46.25501" lon="6.29196">
        <ele>522.64</ele>
        <time>2021-09-29T12:42:38Z</time>
      </trkpt>
      <trkpt lat="46.25488" lon="6.29181">
        <ele>522.8</ele>
        <time>2021-09-29T12:42:43Z</time>
      </trkpt>
      <trkpt lat="46.2547" lon="6.29168">
        <ele>522.93</ele>
        <time>2021-09-29T12:42:49Z</time>
      </trkpt>
      <trkpt lat="46.25451" lon="6.29153">
        <ele>522.92</ele>
        <time>2021-09-29T12:42:54Z</time>
      </trkpt>
      <trkpt lat="46.25436" lon="6.2914">
        <ele>522.83</ele>
        <time>2021-09-29T12:42:58Z</time>
      </trkpt>
      <trkpt lat="46.2542" lon="6.29123">
        <ele>522.74</ele>
        <time>2021-09-29T12:43:03Z</time>
      </trkpt>
      <trkpt lat="46.25402" lon="6.29104">
        <ele>522.62</ele>
        <time>2021-09-29T12:43:09Z</time>
      </trkpt>
      <trkpt lat="46.25384" lon="6.29085">
        <ele>522.56</ele>
        <time>2021-09-29T12:43:17Z</time>
      </trkpt>
      <trkpt lat="46.25367" lon="6.29066">
        <ele>522.62</ele>
        <time>2021-09-29T12:43:24Z</time>
      </trkpt>
      <trkpt lat="46.2535" lon="6.29049">
        <ele>522.72</ele>
        <time>2021-09-29T12:43:30Z</time>
      </trkpt>
      <trkpt lat="46.25328" lon="6.29031">
        <ele>522.85</ele>
        <time>2021-09-29T12:43:36Z</time>
      </trkpt>
      <trkpt lat="46.25313" lon="6.29014">
        <ele>523.03</ele>
        <time>2021-09-29T12:43:41Z</time>
      </trkpt>
      <trkpt lat="46.25295" lon="6.28994">
        <ele>523.04</ele>
        <time>2021-09-29T12:43:50Z</time>
      </trkpt>
      <trkpt lat="46.2527" lon="6.28976">
        <ele>522.6</ele>
        <time>2021-09-29T12:45:00Z</time>
      </trkpt>
      <trkpt lat="46.25251" lon="6.28963">
        <ele>522.6</ele>
        <time>2021-09-29T12:45:13Z</time>
      </trkpt>
      <trkpt lat="46.25233" lon="6.28943">
        <ele>522.6</ele>
        <time>2021-09-29T12:45:18Z</time>
      </trkpt>
      <trkpt lat="46.25215" lon="6.28925">
        <ele>522.6</ele>
        <time>2021-09-29T12:45:23Z</time>
      </trkpt>
      <trkpt lat="46.25198" lon="6.28906">
        <ele>522.6</ele>
        <time>2021-09-29T12:45:28Z</time>
      </trkpt>
      <trkpt lat="46.2518" lon="6.28888">
        <ele>522.6</ele>
        <time>2021-09-29T12:45:33Z</time>
      </trkpt>
      <trkpt lat="46.25162" lon="6.28871">
        <ele>522.6</ele>
        <time>2021-09-29T12:45:38Z</time>
      </trkpt>
      <trkpt lat="46.25144" lon="6.28854">
        <ele>522.6</ele>
        <time>2021-09-29T12:45:43Z</time>
      </trkpt>
      <trkpt lat="46.25129" lon="6.28841">
        <ele>522.6</ele>
        <time>2021-09-29T12:45:47Z</time>
      </trkpt>
      <trkpt lat="46.25113" lon="6.28828">
        <ele>522.6</ele>
        <time>2021-09-29T12:45:51Z</time>
      </trkpt>
      <trkpt lat="46.25095" lon="6.28817">
        <ele>522.6</ele>
        <time>2021-09-29T12:45:56Z</time>
      </trkpt>
      <trkpt lat="46.25078" lon="6.28806">
        <ele>522.6</ele>
        <time>2021-09-29T12:46:02Z</time>
      </trkpt>
      <trkpt lat="46.25064" lon="6.28784">
        <ele>522.6</ele>
        <time>2021-09-29T12:46:08Z</time>
      </trkpt>
      <trkpt lat="46.25065" lon="6.28757">
        <ele>522.6</ele>
        <time>2021-09-29T12:46:13Z</time>
      </trkpt>
      <trkpt lat="46.25058" lon="6.2873">
        <ele>522.6</ele>
        <time>2021-09-29T12:46:22Z</time>
      </trkpt>
      <trkpt lat="46.25043" lon="6.28712">
        <ele>522.6</ele>
        <time>2021-09-29T12:46:27Z</time>
      </trkpt>
      <trkpt lat="46.25028" lon="6.28696">
        <ele>522.6</ele>
        <time>2021-09-29T12:46:31Z</time>
      </trkpt>
      <trkpt lat="46.25011" lon="6.28682">
        <ele>522.6</ele>
        <time>2021-09-29T12:46:35Z</time>
      </trkpt>
      <trkpt lat="46.24993" lon="6.28668">
        <ele>522.6</ele>
        <time>2021-09-29T12:46:40Z</time>
      </trkpt>
      <trkpt lat="46.24975" lon="6.28657">
        <ele>522.6</ele>
        <time>2021-09-29T12:46:46Z</time>
      </trkpt>
      <trkpt lat="46.24954" lon="6.28645">
        <ele>522.6</ele>
        <time>2021-09-29T12:46:52Z</time>
      </trkpt>
      <trkpt lat="46.24934" lon="6.28634">
        <ele>522.6</ele>
        <time>2021-09-29T12:47:00Z</time>
      </trkpt>
      <trkpt lat="46.24915" lon="6.28624">
        <ele>522.6</ele>
        <time>2021-09-29T12:47:06Z</time>
      </trkpt>
      <trkpt lat="46.24896" lon="6.28613">
        <ele>522.6</ele>
        <time>2021-09-29T12:47:11Z</time>
      </trkpt>
      <trkpt lat="46.24878" lon="6.28602">
        <ele>527.31</ele>
        <time>2021-09-29T12:47:16Z</time>
      </trkpt>
      <trkpt lat="46.24862" lon="6.28589">
        <ele>527.25</ele>
        <time>2021-09-29T12:47:23Z</time>
      </trkpt>
      <trkpt lat="46.24841" lon="6.2858">
        <ele>527.46</ele>
        <time>2021-09-29T12:47:29Z</time>
      </trkpt>
      <trkpt lat="46.24822" lon="6.28568">
        <ele>527.79</ele>
        <time>2021-09-29T12:47:34Z</time>
      </trkpt>
      <trkpt lat="46.24803" lon="6.28555">
        <ele>528.25</ele>
        <time>2021-09-29T12:47:40Z</time>
      </trkpt>
      <trkpt lat="46.24785" lon="6.28541">
        <ele>528.41</ele>
        <time>2021-09-29T12:47:45Z</time>
      </trkpt>
      <trkpt lat="46.24764" lon="6.28521">
        <ele>528.56</ele>
        <time>2021-09-29T12:47:50Z</time>
      </trkpt>
      <trkpt lat="46.24747" lon="6.28501">
        <ele>528.65</ele>
        <time>2021-09-29T12:47:54Z</time>
      </trkpt>
      <trkpt lat="46.2473" lon="6.28479">
        <ele>528.83</ele>
        <time>2021-09-29T12:47:58Z</time>
      </trkpt>
      <trkpt lat="46.24714" lon="6.28454">
        <ele>529.44</ele>
        <time>2021-09-29T12:48:03Z</time>
      </trkpt>
      <trkpt lat="46.24701" lon="6.28433">
        <ele>529.89</ele>
        <time>2021-09-29T12:48:08Z</time>
      </trkpt>
      <trkpt lat="46.24687" lon="6.28411">
        <ele>530.2</ele>
        <time>2021-09-29T12:48:13Z</time>
      </trkpt>
      <trkpt lat="46.24675" lon="6.28388">
        <ele>530.18</ele>
        <time>2021-09-29T12:48:19Z</time>
      </trkpt>
      <trkpt lat="46.24662" lon="6.28364">
        <ele>530.14</ele>
        <time>2021-09-29T12:48:24Z</time>
      </trkpt>
      <trkpt lat="46.24648" lon="6.28344">
        <ele>530.56</ele>
        <time>2021-09-29T12:48:30Z</time>
      </trkpt>
      <trkpt lat="46.24633" lon="6.2832">
        <ele>530.28</ele>
        <time>2021-09-29T12:48:37Z</time>
      </trkpt>
      <trkpt lat="46.2462" lon="6.28296">
        <ele>530.38</ele>
        <time>2021-09-29T12:48:43Z</time>
      </trkpt>
      <trkpt lat="46.24608" lon="6.28274">
        <ele>530.1</ele>
        <time>2021-09-29T12:48:49Z</time>
      </trkpt>
      <trkpt lat="46.24597" lon="6.28251">
        <ele>529.34</ele>
        <time>2021-09-29T12:48:57Z</time>
      </trkpt>
      <trkpt lat="46.24586" lon="6.28228">
        <ele>529.33</ele>
        <time>2021-09-29T12:49:03Z</time>
      </trkpt>
      <trkpt lat="46.24575" lon="6.28206">
        <ele>529.45</ele>
        <time>2021-09-29T12:49:09Z</time>
      </trkpt>
      <trkpt lat="46.24563" lon="6.28184">
        <ele>529.42</ele>
        <time>2021-09-29T12:49:14Z</time>
      </trkpt>
      <trkpt lat="46.2455" lon="6.2816">
        <ele>529.4</ele>
        <time>2021-09-29T12:49:19Z</time>
      </trkpt>
      <trkpt lat="46.24538" lon="6.2814">
        <ele>529.08</ele>
        <time>2021-09-29T12:49:24Z</time>
      </trkpt>
      <trkpt lat="46.24531" lon="6.28127">
        <ele>528.45</ele>
        <time>2021-09-29T12:49:46Z</time>
      </trkpt>
      <trkpt lat="46.24548" lon="6.28108">
        <ele>528.34</ele>
        <time>2021-09-29T12:49:59Z</time>
      </trkpt>
      <trkpt lat="46.24564" lon="6.28089">
        <ele>528.43</ele>
        <time>2021-09-29T12:50:04Z</time>
      </trkpt>
      <trkpt lat="46.2458" lon="6.2807">
        <ele>528.49</ele>
        <time>2021-09-29T12:50:08Z</time>
      </trkpt>
      <trkpt lat="46.24598" lon="6.28048">
        <ele>528.5</ele>
        <time>2021-09-29T12:50:12Z</time>
      </trkpt>
      <trkpt lat="46.24615" lon="6.28028">
        <ele>528.23</ele>
        <time>2021-09-29T12:50:16Z</time>
      </trkpt>
      <trkpt lat="46.24631" lon="6.2801">
        <ele>527.52</ele>
        <time>2021-09-29T12:50:20Z</time>
      </trkpt>
      <trkpt lat="46.24648" lon="6.27993">
        <ele>526.6</ele>
        <time>2021-09-29T12:50:25Z</time>
      </trkpt>
      <trkpt lat="46.24663" lon="6.27975">
        <ele>525.84</ele>
        <time>2021-09-29T12:50:29Z</time>
      </trkpt>
      <trkpt lat="46.2468" lon="6.27953">
        <ele>525.26</ele>
        <time>2021-09-29T12:50:33Z</time>
      </trkpt>
      <trkpt lat="46.24698" lon="6.2793">
        <ele>525.01</ele>
        <time>2021-09-29T12:50:37Z</time>
      </trkpt>
      <trkpt lat="46.24713" lon="6.27911">
        <ele>524.54</ele>
        <time>2021-09-29T12:50:41Z</time>
      </trkpt>
      <trkpt lat="46.24729" lon="6.27891">
        <ele>524.03</ele>
        <time>2021-09-29T12:50:46Z</time>
      </trkpt>
      <trkpt lat="46.24742" lon="6.27873">
        <ele>523.22</ele>
        <time>2021-09-29T12:50:51Z</time>
      </trkpt>
      <trkpt lat="46.24757" lon="6.27855">
        <ele>522.75</ele>
        <time>2021-09-29T12:50:56Z</time>
      </trkpt>
      <trkpt lat="46.24771" lon="6.27837">
        <ele>522.46</ele>
        <time>2021-09-29T12:51:00Z</time>
      </trkpt>
      <trkpt lat="46.24786" lon="6.27818">
        <ele>522.16</ele>
        <time>2021-09-29T12:51:05Z</time>
      </trkpt>
      <trkpt lat="46.24802" lon="6.27798">
        <ele>521.47</ele>
        <time>2021-09-29T12:51:11Z</time>
      </trkpt>
      <trkpt lat="46.24817" lon="6.2778">
        <ele>521.12</ele>
        <time>2021-09-29T12:51:16Z</time>
      </trkpt>
      <trkpt lat="46.24831" lon="6.27763">
        <ele>520</ele>
        <time>2021-09-29T12:51:36Z</time>
      </trkpt>
      <trkpt lat="46.24846" lon="6.27743">
        <ele>519.94</ele>
        <time>2021-09-29T12:51:42Z</time>
      </trkpt>
      <trkpt lat="46.24861" lon="6.27722">
        <ele>519.91</ele>
        <time>2021-09-29T12:51:46Z</time>
      </trkpt>
      <trkpt lat="46.24877" lon="6.27701">
        <ele>519.81</ele>
        <time>2021-09-29T12:51:50Z</time>
      </trkpt>
      <trkpt lat="46.24891" lon="6.27682">
        <ele>519.53</ele>
        <time>2021-09-29T12:51:54Z</time>
      </trkpt>
      <trkpt lat="46.24906" lon="6.27663">
        <ele>518.94</ele>
        <time>2021-09-29T12:51:59Z</time>
      </trkpt>
      <trkpt lat="46.24919" lon="6.27645">
        <ele>518.43</ele>
        <time>2021-09-29T12:52:04Z</time>
      </trkpt>
      <trkpt lat="46.24933" lon="6.27626">
        <ele>518.18</ele>
        <time>2021-09-29T12:52:08Z</time>
      </trkpt>
      <trkpt lat="46.2495" lon="6.27603">
        <ele>518.01</ele>
        <time>2021-09-29T12:52:12Z</time>
      </trkpt>
      <trkpt lat="46.24965" lon="6.27583">
        <ele>517.69</ele>
        <time>2021-09-29T12:52:16Z</time>
      </trkpt>
      <trkpt lat="46.24979" lon="6.27565">
        <ele>517.45</ele>
        <time>2021-09-29T12:52:20Z</time>
      </trkpt>
      <trkpt lat="46.24993" lon="6.27546">
        <ele>516.75</ele>
        <time>2021-09-29T12:52:25Z</time>
      </trkpt>
      <trkpt lat="46.25007" lon="6.27527">
        <ele>515.84</ele>
        <time>2021-09-29T12:52:31Z</time>
      </trkpt>
      <trkpt lat="46.25021" lon="6.27508">
        <ele>515.39</ele>
        <time>2021-09-29T12:52:37Z</time>
      </trkpt>
      <trkpt lat="46.25031" lon="6.27487">
        <ele>515.14</ele>
        <time>2021-09-29T12:52:43Z</time>
      </trkpt>
      <trkpt lat="46.25021" lon="6.27464">
        <ele>513.97</ele>
        <time>2021-09-29T12:54:07Z</time>
      </trkpt>
      <trkpt lat="46.25007" lon="6.27441">
        <ele>513.93</ele>
        <time>2021-09-29T12:54:13Z</time>
      </trkpt>
      <trkpt lat="46.24998" lon="6.27417">
        <ele>514.14</ele>
        <time>2021-09-29T12:54:18Z</time>
      </trkpt>
      <trkpt lat="46.2499" lon="6.27389">
        <ele>514.08</ele>
        <time>2021-09-29T12:54:23Z</time>
      </trkpt>
      <trkpt lat="46.24977" lon="6.27363">
        <ele>514.08</ele>
        <time>2021-09-29T12:54:28Z</time>
      </trkpt>
      <trkpt lat="46.24963" lon="6.27341">
        <ele>514.08</ele>
        <time>2021-09-29T12:54:34Z</time>
      </trkpt>
      <trkpt lat="46.2495" lon="6.27318">
        <ele>514.08</ele>
        <time>2021-09-29T12:54:40Z</time>
      </trkpt>
      <trkpt lat="46.24939" lon="6.27292">
        <ele>514.08</ele>
        <time>2021-09-29T12:54:46Z</time>
      </trkpt>
      <trkpt lat="46.24929" lon="6.27265">
        <ele>514.08</ele>
        <time>2021-09-29T12:54:53Z</time>
      </trkpt>
      <trkpt lat="46.24921" lon="6.2724">
        <ele>514.08</ele>
        <time>2021-09-29T12:54:59Z</time>
      </trkpt>
      <trkpt lat="46.24915" lon="6.27217">
        <ele>514.08</ele>
        <time>2021-09-29T12:55:05Z</time>
      </trkpt>
      <trkpt lat="46.2491" lon="6.27191">
        <ele>514.08</ele>
        <time>2021-09-29T12:55:11Z</time>
      </trkpt>
      <trkpt lat="46.24903" lon="6.27166">
        <ele>514.08</ele>
        <time>2021-09-29T12:55:17Z</time>
      </trkpt>
      <trkpt lat="46.24895" lon="6.27137">
        <ele>514.08</ele>
        <time>2021-09-29T12:55:23Z</time>
      </trkpt>
      <trkpt lat="46.24884" lon="6.27115">
        <ele>514.08</ele>
        <time>2021-09-29T12:55:28Z</time>
      </trkpt>
      <trkpt lat="46.24875" lon="6.2709">
        <ele>514.08</ele>
        <time>2021-09-29T12:55:34Z</time>
      </trkpt>
      <trkpt lat="46.24865" lon="6.27063">
        <ele>514.08</ele>
        <time>2021-09-29T12:55:40Z</time>
      </trkpt>
      <trkpt lat="46.24855" lon="6.27037">
        <ele>514.08</ele>
        <time>2021-09-29T12:55:46Z</time>
      </trkpt>
      <trkpt lat="46.24843" lon="6.27015">
        <ele>514.08</ele>
        <time>2021-09-29T12:55:52Z</time>
      </trkpt>
      <trkpt lat="46.2483" lon="6.26991">
        <ele>514.08</ele>
        <time>2021-09-29T12:55:57Z</time>
      </trkpt>
      <trkpt lat="46.24821" lon="6.26964">
        <ele>514.08</ele>
        <time>2021-09-29T12:56:02Z</time>
      </trkpt>
      <trkpt lat="46.24814" lon="6.26937">
        <ele>514.08</ele>
        <time>2021-09-29T12:56:07Z</time>
      </trkpt>
      <trkpt lat="46.24809" lon="6.2691">
        <ele>514.08</ele>
        <time>2021-09-29T12:56:12Z</time>
      </trkpt>
      <trkpt lat="46.24802" lon="6.26879">
        <ele>514.08</ele>
        <time>2021-09-29T12:56:17Z</time>
      </trkpt>
      <trkpt lat="46.24794" lon="6.2685">
        <ele>514.08</ele>
        <time>2021-09-29T12:56:22Z</time>
      </trkpt>
      <trkpt lat="46.24785" lon="6.26822">
        <ele>514.08</ele>
        <time>2021-09-29T12:56:27Z</time>
      </trkpt>
      <trkpt lat="46.24778" lon="6.26796">
        <ele>514.08</ele>
        <time>2021-09-29T12:56:33Z</time>
      </trkpt>
      <trkpt lat="46.24769" lon="6.2677">
        <ele>514.08</ele>
        <time>2021-09-29T12:56:40Z</time>
      </trkpt>
      <trkpt lat="46.24761" lon="6.26743">
        <ele>514.08</ele>
        <time>2021-09-29T12:56:46Z</time>
      </trkpt>
      <trkpt lat="46.24752" lon="6.26719">
        <ele>514.08</ele>
        <time>2021-09-29T12:56:51Z</time>
      </trkpt>
      <trkpt lat="46.2474" lon="6.26692">
        <ele>514.08</ele>
        <time>2021-09-29T12:56:56Z</time>
      </trkpt>
      <trkpt lat="46.24728" lon="6.26672">
        <ele>514.08</ele>
        <time>2021-09-29T12:57:00Z</time>
      </trkpt>
      <trkpt lat="46.24716" lon="6.26649">
        <ele>514.08</ele>
        <time>2021-09-29T12:57:05Z</time>
      </trkpt>
      <trkpt lat="46.24702" lon="6.26626">
        <ele>514.08</ele>
        <time>2021-09-29T12:57:10Z</time>
      </trkpt>
      <trkpt lat="46.24688" lon="6.26603">
        <ele>514.08</ele>
        <time>2021-09-29T12:57:15Z</time>
      </trkpt>
      <trkpt lat="46.24675" lon="6.26584">
        <ele>514.08</ele>
        <time>2021-09-29T12:57:20Z</time>
      </trkpt>
      <trkpt lat="46.24663" lon="6.26565">
        <ele>510.18</ele>
        <time>2021-09-29T12:57:25Z</time>
      </trkpt>
      <trkpt lat="46.24678" lon="6.26538">
        <ele>510.44</ele>
        <time>2021-09-29T12:57:33Z</time>
      </trkpt>
      <trkpt lat="46.24693" lon="6.26513">
        <ele>510.46</ele>
        <time>2021-09-29T12:57:39Z</time>
      </trkpt>
      <trkpt lat="46.24708" lon="6.26488">
        <ele>510.61</ele>
        <time>2021-09-29T12:57:43Z</time>
      </trkpt>
      <trkpt lat="46.24719" lon="6.26466">
        <ele>510.84</ele>
        <time>2021-09-29T12:57:46Z</time>
      </trkpt>
      <trkpt lat="46.24732" lon="6.26444">
        <ele>510.99</ele>
        <time>2021-09-29T12:57:49Z</time>
      </trkpt>
      <trkpt lat="46.24748" lon="6.2642">
        <ele>511.06</ele>
        <time>2021-09-29T12:57:53Z</time>
      </trkpt>
      <trkpt lat="46.24759" lon="6.26399">
        <ele>511</ele>
        <time>2021-09-29T12:57:57Z</time>
      </trkpt>
      <trkpt lat="46.24772" lon="6.26376">
        <ele>510.75</ele>
        <time>2021-09-29T12:58:03Z</time>
      </trkpt>
      <trkpt lat="46.24785" lon="6.26354">
        <ele>510.56</ele>
        <time>2021-09-29T12:58:10Z</time>
      </trkpt>
      <trkpt lat="46.24797" lon="6.26332">
        <ele>510.77</ele>
        <time>2021-09-29T12:58:15Z</time>
      </trkpt>
      <trkpt lat="46.24809" lon="6.2631">
        <ele>511.23</ele>
        <time>2021-09-29T12:58:20Z</time>
      </trkpt>
      <trkpt lat="46.24821" lon="6.2629">
        <ele>511.47</ele>
        <time>2021-09-29T12:58:25Z</time>
      </trkpt>
      <trkpt lat="46.24833" lon="6.26274">
        <ele>512.04</ele>
        <time>2021-09-29T12:59:33Z</time>
      </trkpt>
      <trkpt lat="46.2485" lon="6.26284">
        <ele>512.29</ele>
        <time>2021-09-29T12:59:40Z</time>
      </trkpt>
      <trkpt lat="46.24868" lon="6.26297">
        <ele>512.54</ele>
        <time>2021-09-29T12:59:45Z</time>
      </trkpt>
      <trkpt lat="46.24883" lon="6.26286">
        <ele>513</ele>
        <time>2021-09-29T12:59:51Z</time>
      </trkpt>
      <trkpt lat="46.24889" lon="6.26258">
        <ele>513.56</ele>
        <time>2021-09-29T12:59:57Z</time>
      </trkpt>
      <trkpt lat="46.24896" lon="6.26229">
        <ele>513.97</ele>
        <time>2021-09-29T13:00:02Z</time>
      </trkpt>
      <trkpt lat="46.24902" lon="6.26199">
        <ele>514.09</ele>
        <time>2021-09-29T13:00:07Z</time>
      </trkpt>
      <trkpt lat="46.2491" lon="6.2617">
        <ele>513.83</ele>
        <time>2021-09-29T13:00:12Z</time>
      </trkpt>
      <trkpt lat="46.24917" lon="6.26141">
        <ele>513.18</ele>
        <time>2021-09-29T13:00:17Z</time>
      </trkpt>
      <trkpt lat="46.24923" lon="6.26115">
        <ele>512.64</ele>
        <time>2021-09-29T13:00:22Z</time>
      </trkpt>
      <trkpt lat="46.24929" lon="6.26089">
        <ele>512.36</ele>
        <time>2021-09-29T13:00:27Z</time>
      </trkpt>
      <trkpt lat="46.24935" lon="6.26065">
        <ele>512.02</ele>
        <time>2021-09-29T13:00:32Z</time>
      </trkpt>
      <trkpt lat="46.24941" lon="6.26039">
        <ele>512.02</ele>
        <time>2021-09-29T13:00:37Z</time>
      </trkpt>
      <trkpt lat="46.24947" lon="6.26014">
        <ele>512.02</ele>
        <time>2021-09-29T13:00:41Z</time>
      </trkpt>
      <trkpt lat="46.24953" lon="6.25986">
        <ele>512.02</ele>
        <time>2021-09-29T13:00:45Z</time>
      </trkpt>
      <trkpt lat="46.24959" lon="6.2596">
        <ele>512.02</ele>
        <time>2021-09-29T13:00:49Z</time>
      </trkpt>
      <trkpt lat="46.24965" lon="6.25936">
        <ele>509.24</ele>
        <time>2021-09-29T13:01:54Z</time>
      </trkpt>
      <trkpt lat="46.24973" lon="6.25911">
        <ele>508.95</ele>
        <time>2021-09-29T13:02:02Z</time>
      </trkpt>
      <trkpt lat="46.24986" lon="6.25892">
        <ele>508.4</ele>
        <time>2021-09-29T13:02:10Z</time>
      </trkpt>
      <trkpt lat="46.25005" lon="6.25903">
        <ele>508.03</ele>
        <time>2021-09-29T13:02:16Z</time>
      </trkpt>
      <trkpt lat="46.25023" lon="6.25915">
        <ele>507.85</ele>
        <time>2021-09-29T13:02:20Z</time>
      </trkpt>
      <trkpt lat="46.25042" lon="6.25928">
        <ele>507.85</ele>
        <time>2021-09-29T13:02:24Z</time>
      </trkpt>
      <trkpt lat="46.25058" lon="6.25941">
        <ele>507.99</ele>
        <time>2021-09-29T13:02:28Z</time>
      </trkpt>
      <trkpt lat="46.25076" lon="6.25953">
        <ele>508.18</ele>
        <time>2021-09-29T13:02:33Z</time>
      </trkpt>
      <trkpt lat="46.25093" lon="6.25964">
        <ele>508.25</ele>
        <time>2021-09-29T13:02:38Z</time>
      </trkpt>
      <trkpt lat="46.25109" lon="6.25976">
        <ele>508.47</ele>
        <time>2021-09-29T13:02:42Z</time>
      </trkpt>
      <trkpt lat="46.25126" lon="6.25989">
        <ele>508.63</ele>
        <time>2021-09-29T13:02:46Z</time>
      </trkpt>
      <trkpt lat="46.25142" lon="6.26002">
        <ele>508.89</ele>
        <time>2021-09-29T13:02:51Z</time>
      </trkpt>
      <trkpt lat="46.25161" lon="6.26012">
        <ele>509.16</ele>
        <time>2021-09-29T13:02:58Z</time>
      </trkpt>
      <trkpt lat="46.2518" lon="6.26015">
        <ele>509.39</ele>
        <time>2021-09-29T13:03:05Z</time>
      </trkpt>
      <trkpt lat="46.25196" lon="6.26024">
        <ele>509.47</ele>
        <time>2021-09-29T13:03:12Z</time>
      </trkpt>
      <trkpt lat="46.25214" lon="6.26038">
        <ele>509.24</ele>
        <time>2021-09-29T13:03:19Z</time>
      </trkpt>
      <trkpt lat="46.25229" lon="6.26052">
        <ele>509.12</ele>
        <time>2021-09-29T13:03:24Z</time>
      </trkpt>
      <trkpt lat="46.25247" lon="6.26068">
        <ele>508.97</ele>
        <time>2021-09-29T13:03:30Z</time>
      </trkpt>
      <trkpt lat="46.25266" lon="6.26081">
        <ele>508.82</ele>
        <time>2021-09-29T13:03:36Z</time>
      </trkpt>
      <trkpt lat="46.25284" lon="6.26091">
        <ele>508.68</ele>
        <time>2021-09-29T13:03:42Z</time>
      </trkpt>
      <trkpt lat="46.25305" lon="6.26095">
        <ele>508.5</ele>
        <time>2021-09-29T13:03:48Z</time>
      </trkpt>
      <trkpt lat="46.25326" lon="6.26104">
        <ele>508.35</ele>
        <time>2021-09-29T13:03:54Z</time>
      </trkpt>
      <trkpt lat="46.25346" lon="6.26114">
        <ele>508.01</ele>
        <time>2021-09-29T13:04:00Z</time>
      </trkpt>
      <trkpt lat="46.25365" lon="6.26122">
        <ele>507.53</ele>
        <time>2021-09-29T13:04:05Z</time>
      </trkpt>
      <trkpt lat="46.25386" lon="6.26132">
        <ele>507.21</ele>
        <time>2021-09-29T13:04:10Z</time>
      </trkpt>
      <trkpt lat="46.25405" lon="6.26141">
        <ele>506.82</ele>
        <time>2021-09-29T13:04:14Z</time>
      </trkpt>
      <trkpt lat="46.25426" lon="6.2615">
        <ele>506.36</ele>
        <time>2021-09-29T13:04:18Z</time>
      </trkpt>
      <trkpt lat="46.25448" lon="6.2616">
        <ele>506</ele>
        <time>2021-09-29T13:04:22Z</time>
      </trkpt>
      <trkpt lat="46.25469" lon="6.2617">
        <ele>505.44</ele>
        <time>2021-09-29T13:04:26Z</time>
      </trkpt>
      <trkpt lat="46.25489" lon="6.26179">
        <ele>505.16</ele>
        <time>2021-09-29T13:04:30Z</time>
      </trkpt>
      <trkpt lat="46.25508" lon="6.26189">
        <ele>504.73</ele>
        <time>2021-09-29T13:04:34Z</time>
      </trkpt>
      <trkpt lat="46.25524" lon="6.26201">
        <ele>504.51</ele>
        <time>2021-09-29T13:04:38Z</time>
      </trkpt>
      <trkpt lat="46.25543" lon="6.26217">
        <ele>504.11</ele>
        <time>2021-09-29T13:04:43Z</time>
      </trkpt>
      <trkpt lat="46.25561" lon="6.26232">
        <ele>503.82</ele>
        <time>2021-09-29T13:04:47Z</time>
      </trkpt>
      <trkpt lat="46.25581" lon="6.26247">
        <ele>503.66</ele>
        <time>2021-09-29T13:04:51Z</time>
      </trkpt>
      <trkpt lat="46.25601" lon="6.26261">
        <ele>503.48</ele>
        <time>2021-09-29T13:04:55Z</time>
      </trkpt>
      <trkpt lat="46.25619" lon="6.26274">
        <ele>503.26</ele>
        <time>2021-09-29T13:04:59Z</time>
      </trkpt>
      <trkpt lat="46.25636" lon="6.26282">
        <ele>502.98</ele>
        <time>2021-09-29T13:05:04Z</time>
      </trkpt>
      <trkpt lat="46.25652" lon="6.26296">
        <ele>502.81</ele>
        <time>2021-09-29T13:05:10Z</time>
      </trkpt>
      <trkpt lat="46.25648" lon="6.26288">
        <ele>502.08</ele>
        <time>2021-09-29T13:05:38Z</time>
      </trkpt>
      <trkpt lat="46.25641" lon="6.26265">
        <ele>502.22</ele>
        <time>2021-09-29T13:05:46Z</time>
      </trkpt>
      <trkpt lat="46.25649" lon="6.26241">
        <ele>502.36</ele>
        <time>2021-09-29T13:05:51Z</time>
      </trkpt>
      <trkpt lat="46.25658" lon="6.26215">
        <ele>502.3</ele>
        <time>2021-09-29T13:05:57Z</time>
      </trkpt>
      <trkpt lat="46.25664" lon="6.26188">
        <ele>502.06</ele>
        <time>2021-09-29T13:06:04Z</time>
      </trkpt>
      <trkpt lat="46.25652" lon="6.26166">
        <ele>501.77</ele>
        <time>2021-09-29T13:06:14Z</time>
      </trkpt>
      <trkpt lat="46.25637" lon="6.2615">
        <ele>501.47</ele>
        <time>2021-09-29T13:06:22Z</time>
      </trkpt>
      <trkpt lat="46.25621" lon="6.2613">
        <ele>501.23</ele>
        <time>2021-09-29T13:06:29Z</time>
      </trkpt>
      <trkpt lat="46.25608" lon="6.26113">
        <ele>501.34</ele>
        <time>2021-09-29T13:06:38Z</time>
      </trkpt>
      <trkpt lat="46.25624" lon="6.26134">
        <ele>501.53</ele>
        <time>2021-09-29T13:06:46Z</time>
      </trkpt>
      <trkpt lat="46.2564" lon="6.26154">
        <ele>501.51</ele>
        <time>2021-09-29T13:06:51Z</time>
      </trkpt>
      <trkpt lat="46.25656" lon="6.26174">
        <ele>501.51</ele>
        <time>2021-09-29T13:06:57Z</time>
      </trkpt>
      <trkpt lat="46.25662" lon="6.26201">
        <ele>501.42</ele>
        <time>2021-09-29T13:07:04Z</time>
      </trkpt>
      <trkpt lat="46.25654" lon="6.26225">
        <ele>501.33</ele>
        <time>2021-09-29T13:07:09Z</time>
      </trkpt>
      <trkpt lat="46.25645" lon="6.26248">
        <ele>501.45</ele>
        <time>2021-09-29T13:07:14Z</time>
      </trkpt>
      <trkpt lat="46.25638" lon="6.26273">
        <ele>501.5</ele>
        <time>2021-09-29T13:07:22Z</time>
      </trkpt>
      <trkpt lat="46.25648" lon="6.26294">
        <ele>501.73</ele>
        <time>2021-09-29T13:07:30Z</time>
      </trkpt>
      <trkpt lat="46.25666" lon="6.26308">
        <ele>501.71</ele>
        <time>2021-09-29T13:07:34Z</time>
      </trkpt>
      <trkpt lat="46.25682" lon="6.26321">
        <ele>501.34</ele>
        <time>2021-09-29T13:07:37Z</time>
      </trkpt>
      <trkpt lat="46.25703" lon="6.26337">
        <ele>501.34</ele>
        <time>2021-09-29T13:07:41Z</time>
      </trkpt>
      <trkpt lat="46.25723" lon="6.26353">
        <ele>501.34</ele>
        <time>2021-09-29T13:07:45Z</time>
      </trkpt>
      <trkpt lat="46.25741" lon="6.26367">
        <ele>501.34</ele>
        <time>2021-09-29T13:07:49Z</time>
      </trkpt>
      <trkpt lat="46.25757" lon="6.2638">
        <ele>501.34</ele>
        <time>2021-09-29T13:07:53Z</time>
      </trkpt>
      <trkpt lat="46.25775" lon="6.2639">
        <ele>501.34</ele>
        <time>2021-09-29T13:07:58Z</time>
      </trkpt>
      <trkpt lat="46.25796" lon="6.26397">
        <ele>501.34</ele>
        <time>2021-09-29T13:08:03Z</time>
      </trkpt>
      <trkpt lat="46.25817" lon="6.26401">
        <ele>501.34</ele>
        <time>2021-09-29T13:08:07Z</time>
      </trkpt>
      <trkpt lat="46.25839" lon="6.26404">
        <ele>501.34</ele>
        <time>2021-09-29T13:08:11Z</time>
      </trkpt>
      <trkpt lat="46.2586" lon="6.26409">
        <ele>501.34</ele>
        <time>2021-09-29T13:08:15Z</time>
      </trkpt>
      <trkpt lat="46.2588" lon="6.26414">
        <ele>501.34</ele>
        <time>2021-09-29T13:08:19Z</time>
      </trkpt>
      <trkpt lat="46.25899" lon="6.26416">
        <ele>501.34</ele>
        <time>2021-09-29T13:08:23Z</time>
      </trkpt>
      <trkpt lat="46.25918" lon="6.26418">
        <ele>501.34</ele>
        <time>2021-09-29T13:08:31Z</time>
      </trkpt>
      <trkpt lat="46.25927" lon="6.26394">
        <ele>497.43</ele>
        <time>2021-09-29T13:09:10Z</time>
      </trkpt>
      <trkpt lat="46.25936" lon="6.26369">
        <ele>497.41</ele>
        <time>2021-09-29T13:09:15Z</time>
      </trkpt>
      <trkpt lat="46.2595" lon="6.26344">
        <ele>497.2</ele>
        <time>2021-09-29T13:09:20Z</time>
      </trkpt>
      <trkpt lat="46.25966" lon="6.2632">
        <ele>496.97</ele>
        <time>2021-09-29T13:09:25Z</time>
      </trkpt>
      <trkpt lat="46.25978" lon="6.26297">
        <ele>496.46</ele>
        <time>2021-09-29T13:09:30Z</time>
      </trkpt>
      <trkpt lat="46.25988" lon="6.26273">
        <ele>496.16</ele>
        <time>2021-09-29T13:09:35Z</time>
      </trkpt>
      <trkpt lat="46.25997" lon="6.26248">
        <ele>495.63</ele>
        <time>2021-09-29T13:09:41Z</time>
      </trkpt>
      <trkpt lat="46.26006" lon="6.26224">
        <ele>495.46</ele>
        <time>2021-09-29T13:09:48Z</time>
      </trkpt>
      <trkpt lat="46.26014" lon="6.262">
        <ele>495.29</ele>
        <time>2021-09-29T13:09:54Z</time>
      </trkpt>
      <trkpt lat="46.2602" lon="6.26173">
        <ele>495.22</ele>
        <time>2021-09-29T13:09:59Z</time>
      </trkpt>
      <trkpt lat="46.26026" lon="6.26148">
        <ele>495.49</ele>
        <time>2021-09-29T13:10:03Z</time>
      </trkpt>
      <trkpt lat="46.26034" lon="6.26122">
        <ele>495.96</ele>
        <time>2021-09-29T13:10:07Z</time>
      </trkpt>
      <trkpt lat="46.26042" lon="6.26097">
        <ele>495.98</ele>
        <time>2021-09-29T13:10:11Z</time>
      </trkpt>
      <trkpt lat="46.26051" lon="6.26074">
        <ele>495.34</ele>
        <time>2021-09-29T13:10:15Z</time>
      </trkpt>
      <trkpt lat="46.26059" lon="6.26051">
        <ele>494.81</ele>
        <time>2021-09-29T13:10:19Z</time>
      </trkpt>
      <trkpt lat="46.2607" lon="6.26023">
        <ele>494.56</ele>
        <time>2021-09-29T13:10:24Z</time>
      </trkpt>
      <trkpt lat="46.2608" lon="6.25996">
        <ele>494.07</ele>
        <time>2021-09-29T13:10:29Z</time>
      </trkpt>
      <trkpt lat="46.26091" lon="6.25971">
        <ele>493.48</ele>
        <time>2021-09-29T13:10:34Z</time>
      </trkpt>
      <trkpt lat="46.26103" lon="6.25947">
        <ele>493.15</ele>
        <time>2021-09-29T13:10:39Z</time>
      </trkpt>
      <trkpt lat="46.26115" lon="6.25926">
        <ele>492.83</ele>
        <time>2021-09-29T13:10:44Z</time>
      </trkpt>
      <trkpt lat="46.26128" lon="6.25905">
        <ele>492.54</ele>
        <time>2021-09-29T13:10:49Z</time>
      </trkpt>
      <trkpt lat="46.2614" lon="6.25884">
        <ele>492.29</ele>
        <time>2021-09-29T13:10:54Z</time>
      </trkpt>
      <trkpt lat="46.26155" lon="6.2586">
        <ele>491.67</ele>
        <time>2021-09-29T13:10:59Z</time>
      </trkpt>
      <trkpt lat="46.26167" lon="6.25839">
        <ele>491.38</ele>
        <time>2021-09-29T13:11:03Z</time>
      </trkpt>
      <trkpt lat="46.26179" lon="6.25817">
        <ele>490.85</ele>
        <time>2021-09-29T13:11:07Z</time>
      </trkpt>
      <trkpt lat="46.26191" lon="6.25795">
        <ele>490.21</ele>
        <time>2021-09-29T13:11:11Z</time>
      </trkpt>
      <trkpt lat="46.26203" lon="6.25775">
        <ele>489.55</ele>
        <time>2021-09-29T13:11:15Z</time>
      </trkpt>
      <trkpt lat="46.26217" lon="6.25751">
        <ele>488.85</ele>
        <time>2021-09-29T13:11:20Z</time>
      </trkpt>
      <trkpt lat="46.26229" lon="6.2573">
        <ele>488.67</ele>
        <time>2021-09-29T13:11:25Z</time>
      </trkpt>
      <trkpt lat="46.26244" lon="6.25709">
        <ele>487.98</ele>
        <time>2021-09-29T13:11:31Z</time>
      </trkpt>
      <trkpt lat="46.26262" lon="6.25696">
        <ele>487.68</ele>
        <time>2021-09-29T13:11:36Z</time>
      </trkpt>
      <trkpt lat="46.26283" lon="6.25687">
        <ele>487.53</ele>
        <time>2021-09-29T13:11:41Z</time>
      </trkpt>
      <trkpt lat="46.26303" lon="6.25678">
        <ele>487.37</ele>
        <time>2021-09-29T13:11:46Z</time>
      </trkpt>
      <trkpt lat="46.26321" lon="6.2567">
        <ele>486.98</ele>
        <time>2021-09-29T13:11:51Z</time>
      </trkpt>
      <trkpt lat="46.2634" lon="6.25656">
        <ele>486.66</ele>
        <time>2021-09-29T13:11:57Z</time>
      </trkpt>
      <trkpt lat="46.26349" lon="6.25633">
        <ele>486.45</ele>
        <time>2021-09-29T13:12:02Z</time>
      </trkpt>
      <trkpt lat="46.26356" lon="6.25609">
        <ele>486.37</ele>
        <time>2021-09-29T13:12:06Z</time>
      </trkpt>
      <trkpt lat="46.26362" lon="6.25582">
        <ele>486.05</ele>
        <time>2021-09-29T13:12:10Z</time>
      </trkpt>
      <trkpt lat="46.26369" lon="6.25555">
        <ele>485.59</ele>
        <time>2021-09-29T13:12:14Z</time>
      </trkpt>
      <trkpt lat="46.26375" lon="6.25527">
        <ele>485.35</ele>
        <time>2021-09-29T13:12:18Z</time>
      </trkpt>
      <trkpt lat="46.26382" lon="6.25498">
        <ele>484.92</ele>
        <time>2021-09-29T13:12:22Z</time>
      </trkpt>
      <trkpt lat="46.26387" lon="6.25469">
        <ele>484.24</ele>
        <time>2021-09-29T13:12:26Z</time>
      </trkpt>
      <trkpt lat="46.26392" lon="6.25443">
        <ele>483.69</ele>
        <time>2021-09-29T13:12:30Z</time>
      </trkpt>
      <trkpt lat="46.26398" lon="6.25412">
        <ele>483.5</ele>
        <time>2021-09-29T13:12:35Z</time>
      </trkpt>
      <trkpt lat="46.26401" lon="6.25386">
        <ele>483.01</ele>
        <time>2021-09-29T13:12:39Z</time>
      </trkpt>
      <trkpt lat="46.26406" lon="6.25357">
        <ele>482.54</ele>
        <time>2021-09-29T13:12:43Z</time>
      </trkpt>
      <trkpt lat="46.2641" lon="6.25329">
        <ele>482.27</ele>
        <time>2021-09-29T13:12:47Z</time>
      </trkpt>
      <trkpt lat="46.26416" lon="6.253">
        <ele>482.11</ele>
        <time>2021-09-29T13:12:52Z</time>
      </trkpt>
      <trkpt lat="46.26424" lon="6.25275">
        <ele>481.79</ele>
        <time>2021-09-29T13:12:57Z</time>
      </trkpt>
      <trkpt lat="46.26433" lon="6.2525">
        <ele>481.69</ele>
        <time>2021-09-29T13:13:02Z</time>
      </trkpt>
      <trkpt lat="46.26445" lon="6.2523">
        <ele>480.93</ele>
        <time>2021-09-29T13:13:22Z</time>
      </trkpt>
      <trkpt lat="46.26463" lon="6.25242">
        <ele>481.37</ele>
        <time>2021-09-29T13:13:34Z</time>
      </trkpt>
      <trkpt lat="46.26479" lon="6.25256">
        <ele>481.46</ele>
        <time>2021-09-29T13:13:42Z</time>
      </trkpt>
      <trkpt lat="46.26496" lon="6.25272">
        <ele>481.62</ele>
        <time>2021-09-29T13:13:48Z</time>
      </trkpt>
      <trkpt lat="46.26511" lon="6.25293">
        <ele>481.66</ele>
        <time>2021-09-29T13:13:54Z</time>
      </trkpt>
      <trkpt lat="46.2652" lon="6.2532">
        <ele>481.31</ele>
        <time>2021-09-29T13:14:01Z</time>
      </trkpt>
      <trkpt lat="46.26524" lon="6.25346">
        <ele>481.25</ele>
        <time>2021-09-29T13:14:10Z</time>
      </trkpt>
      <trkpt lat="46.26538" lon="6.25352">
        <ele>481.35</ele>
        <time>2021-09-29T13:14:20Z</time>
      </trkpt>
      <trkpt lat="46.26554" lon="6.25351">
        <ele>481.3</ele>
        <time>2021-09-29T13:14:27Z</time>
      </trkpt>
      <trkpt lat="46.26558" lon="6.25323">
        <ele>481.31</ele>
        <time>2021-09-29T13:14:35Z</time>
      </trkpt>
      <trkpt lat="46.26568" lon="6.25299">
        <ele>480.95</ele>
        <time>2021-09-29T13:14:44Z</time>
      </trkpt>
      <trkpt lat="46.26587" lon="6.25306">
        <ele>480.25</ele>
        <time>2021-09-29T13:14:52Z</time>
      </trkpt>
      <trkpt lat="46.26604" lon="6.25321">
        <ele>480.35</ele>
        <time>2021-09-29T13:14:56Z</time>
      </trkpt>
      <trkpt lat="46.26624" lon="6.25338">
        <ele>480.74</ele>
        <time>2021-09-29T13:15:00Z</time>
      </trkpt>
      <trkpt lat="46.2664" lon="6.25353">
        <ele>481.13</ele>
        <time>2021-09-29T13:15:04Z</time>
      </trkpt>
      <trkpt lat="46.26658" lon="6.25368">
        <ele>481.35</ele>
        <time>2021-09-29T13:15:09Z</time>
      </trkpt>
      <trkpt lat="46.26677" lon="6.25384">
        <ele>481.42</ele>
        <time>2021-09-29T13:15:15Z</time>
      </trkpt>
      <trkpt lat="46.26695" lon="6.25399">
        <ele>481.21</ele>
        <time>2021-09-29T13:15:20Z</time>
      </trkpt>
      <trkpt lat="46.26714" lon="6.25416">
        <ele>481.05</ele>
        <time>2021-09-29T13:15:24Z</time>
      </trkpt>
      <trkpt lat="46.2673" lon="6.25432">
        <ele>480.93</ele>
        <time>2021-09-29T13:15:27Z</time>
      </trkpt>
      <trkpt lat="46.26742" lon="6.25453">
        <ele>480.67</ele>
        <time>2021-09-29T13:15:30Z</time>
      </trkpt>
      <trkpt lat="46.26753" lon="6.25475">
        <ele>480.28</ele>
        <time>2021-09-29T13:15:33Z</time>
      </trkpt>
      <trkpt lat="46.26765" lon="6.25496">
        <ele>479.88</ele>
        <time>2021-09-29T13:15:36Z</time>
      </trkpt>
      <trkpt lat="46.26776" lon="6.25516">
        <ele>479.55</ele>
        <time>2021-09-29T13:15:39Z</time>
      </trkpt>
      <trkpt lat="46.26792" lon="6.25539">
        <ele>479.28</ele>
        <time>2021-09-29T13:15:43Z</time>
      </trkpt>
      <trkpt lat="46.26809" lon="6.25555">
        <ele>479.06</ele>
        <time>2021-09-29T13:15:47Z</time>
      </trkpt>
      <trkpt lat="46.26828" lon="6.25565">
        <ele>478.98</ele>
        <time>2021-09-29T13:15:51Z</time>
      </trkpt>
      <trkpt lat="46.26846" lon="6.2558">
        <ele>478.87</ele>
        <time>2021-09-29T13:15:56Z</time>
      </trkpt>
      <trkpt lat="46.26845" lon="6.25609">
        <ele>478.57</ele>
        <time>2021-09-29T13:16:01Z</time>
      </trkpt>
      <trkpt lat="46.26836" lon="6.25637">
        <ele>478.28</ele>
        <time>2021-09-29T13:16:07Z</time>
      </trkpt>
      <trkpt lat="46.26827" lon="6.25664">
        <ele>478.23</ele>
        <time>2021-09-29T13:16:13Z</time>
      </trkpt>
      <trkpt lat="46.2683" lon="6.25692">
        <ele>478.25</ele>
        <time>2021-09-29T13:16:19Z</time>
      </trkpt>
      <trkpt lat="46.26839" lon="6.25718">
        <ele>478.06</ele>
        <time>2021-09-29T13:16:26Z</time>
      </trkpt>
      <trkpt lat="46.26845" lon="6.25744">
        <ele>478.3</ele>
        <time>2021-09-29T13:16:33Z</time>
      </trkpt>
      <trkpt lat="46.2684" lon="6.2575">
        <ele>479.04</ele>
        <time>2021-09-29T13:17:10Z</time>
      </trkpt>
    </trkseg>
  </trk>
</gpx>